[[[{"header":{"parameterUnit":"kt","parameterCategory":2,"dx":1,"dy":1,"la1":29.587661999999998,"la2":31.0,"lo1":-88.76705300000003,"lo2":-86.6583820000003,"nx":115,"ny":88,"refTime":"2022-10-10T06:00:00:Z","depth":0,"parameterNumber":1,"parameterNumberName":"U-component_of_WINDS"},"data":[-0.7624,-0.4644,-0.1925,-0.0735,-0.0202,0.223,0.345,0.3518,0.3931,0.4281,0.4278,0.4274,0.4262,0.4262,0.4262,0.4255,0.4304,0.4244,0.4258,0.4279,0.4279,0.4288,0.4304,0.433,0.4304,0.4307,0.4315,0.4302,0.4324,0.43,0.4279,0.4275,0.4273,0.4256,0.4257,0.4253,0.4244,0.4242,0.4243,0.4242,0.4288,0.4257,0.4262,0.427,0.4299,0.4249,0.4269,0.4242,0.4257,0.4264,0.4253,0.4305,0.4304,0.4318,0.516,0.6611,0.798,1.0505,1.3907,1.7656,2.0698,2.2761,2.4715,2.6454,2.6585,2.6696,2.6498,2.6171,2.6175,2.5812,2.5559,2.5393,2.5297,2.5638,2.5654,2.5856,2.61,2.6202,2.6344,2.6593,2.6712,2.6712,2.6704,2.6696,2.6688,2.668,2.6664,2.6672,2.6633,2.6712,2.6751,2.6727,2.6756,2.6479,2.6187,2.6195,2.6147,2.6107,2.6131,2.6258,2.625,2.6068,2.5949,2.5859,2.5835,2.5756,2.5717,2.5575,2.5654,2.5967,2.8368,3.0139,3.1054,3.3136,3.6458,-1.0847,-0.7593,-0.4777,-0.3539,-0.3148,-0.0591,0.0592,0.1054,0.3131,0.4154,0.4215,0.4305,0.4279,0.4277,0.4277,0.4278,0.4286,0.4241,0.426,0.4277,0.4288,0.4304,0.4261,0.4285,0.4275,0.4274,0.4275,0.4277,0.4274,0.4244,0.4284,0.4276,0.4248,0.4279,0.4275,0.4279,0.4294,0.4301,0.4302,0.4289,0.4277,0.426,0.4256,0.4254,0.426,0.4263,0.4266,0.4275,0.4277,0.4286,0.4295,0.4241,0.4262,0.4344,0.5315,0.6347,0.7702,1.0268,1.3987,1.6855,1.9877,2.2783,2.4963,2.6005,2.6088,2.6115,2.5891,2.582,2.5922,2.5838,2.5535,2.5362,2.5362,2.5441,2.5275,2.5179,2.5441,2.5614,2.5851,2.6171,2.621,2.6218,2.621,2.6195,2.6187,2.6171,2.6171,2.6187,2.625,2.6424,2.6309,2.6214,2.6151,2.612,2.5993,2.5914,2.591,2.5854,2.5709,2.5941,2.5997,2.5678,2.552,2.5488,2.5385,2.521,2.5163,2.5307,2.5124,2.5061,2.6973,2.8526,2.9499,3.1145,3.4545,-1.2728,-1.0967,-0.7832,-0.646,-0.5937,-0.3458,-0.1371,0.0065,0.1315,0.2771,0.409,0.4268,0.4255,0.4255,0.4254,0.426,0.426,0.4254,0.4277,0.4287,0.4297,0.4253,0.4253,0.4258,0.4274,0.4268,0.4268,0.4272,0.4256,0.4303,0.4297,0.4289,0.4278,0.426,0.4259,0.4256,0.4259,0.4254,0.426,0.426,0.426,0.4256,0.4255,0.4254,0.4254,0.4255,0.4254,0.4254,0.4254,0.4254,0.4254,0.4278,0.4287,0.4298,0.5039,0.5987,0.6997,0.7912,1.128,1.4386,1.7322,2.0633,2.3301,2.5562,2.5695,2.5535,2.5378,2.533,2.5433,2.5435,2.5133,2.4904,2.4888,2.4943,2.4833,2.4817,2.4991,2.5236,2.5528,2.5838,2.5867,2.5933,2.5925,2.5925,2.5957,2.5965,2.6044,2.61,2.61,2.6195,2.5812,2.5599,2.5464,2.5409,2.5528,2.5551,2.5543,2.5457,2.5338,2.5441,2.548,2.5291,2.518,2.5116,2.5037,2.4887,2.4887,2.4982,2.4911,2.4887,2.5894,2.6971,2.7925,2.9141,3.1191,-1.3581,-1.3317,-1.058,-0.9407,-0.901,-0.633,-0.3524,-0.111,-0.1632,-0.0588,0.2026,0.2813,0.3074,0.3205,0.3729,0.4254,0.4254,0.4254,0.4254,0.4259,0.426,0.4275,0.4263,0.4277,0.4266,0.4254,0.4254,0.4268,0.4273,0.4267,0.4256,0.4256,0.4255,0.4254,0.4254,0.4254,0.4254,0.4254,0.4254,0.4254,0.4254,0.4254,0.4254,0.4254,0.4254,0.4254,0.4254,0.4254,0.4254,0.4254,0.4254,0.4254,0.4254,0.4255,0.4582,0.5169,0.6033,0.7803,1.061,1.3946,1.6656,1.9576,2.2151,2.4201,2.5219,2.5027,2.4895,2.4832,2.4833,2.473,2.458,2.4367,2.4225,2.4382,2.4446,2.4509,2.458,2.4967,2.5299,2.5496,2.5662,2.5693,2.5678,2.5767,2.5807,2.5823,2.583,2.583,2.5701,2.5654,2.5338,2.5251,2.4974,2.4927,2.4958,2.5037,2.5116,2.5068,2.5068,2.5005,2.4935,2.4958,2.4998,2.4919,2.4887,2.4887,2.4887,2.4887,2.4887,2.4887,2.5519,2.5831,2.6588,2.7153,2.8153,-1.3581,-1.3512,-1.2671,-1.2089,-1.1828,-0.9205,-0.646,-0.4175,-0.6202,-0.5939,-0.2872,-0.0653,0.0,0.1438,0.3336,0.4188,0.4254,0.4254,0.4254,0.4255,0.4254,0.4254,0.4254,0.4254,0.4254,0.4254,0.4254,0.4254,0.4254,0.4254,0.4254,0.4255,0.4254,0.4254,0.4254,0.4254,0.4254,0.4254,0.4254,0.4254,0.4254,0.4254,0.4254,0.4254,0.4254,0.4254,0.4254,0.4254,0.4254,0.4254,0.4254,0.4254,0.4254,0.4319,0.5754,0.6471,0.6926,0.8616,1.1083,1.3672,1.6427,1.9091,2.1813,2.3417,2.4073,2.4092,2.4575,2.4648,2.4824,2.473,2.4722,2.4541,2.443,2.4478,2.447,2.4423,2.4533,2.4706,2.5038,2.5116,2.5249,2.5242,2.5299,2.5346,2.537,2.5116,2.5076,2.51,2.5076,2.5084,2.4982,2.4966,2.4903,2.4903,2.4887,2.4887,2.4887,2.4887,2.4919,2.4887,2.4887,2.4887,2.4887,2.4887,2.4887,2.4887,2.4887,2.4887,2.4887,2.4887,2.4887,2.4887,2.4951,2.5391,2.6269,-1.3976,-1.3512,-1.2866,-1.2609,-1.2479,-1.1434,-0.9274,-0.718,-0.7834,-0.6789,-0.3913,-0.1371,0.0,0.0,0.2681,0.4188,0.4188,0.4254,0.4254,0.4254,0.4254,0.4254,0.4254,0.4254,0.4254,0.4254,0.4254,0.4254,0.4254,0.4254,0.4254,0.4254,0.4254,0.4254,0.4254,0.4254,0.4254,0.4254,0.4254,0.4254,0.4254,0.4254,0.4254,0.4254,0.4254,0.4254,0.4254,0.4254,0.4254,0.4254,0.4254,0.4254,0.4254,0.4319,0.5364,0.6081,0.6928,0.8684,1.0762,1.2898,1.5366,1.7963,2.0304,2.1585,2.2035,2.2485,2.3198,2.3983,2.4367,2.4744,2.476,2.4777,2.4786,2.4738,2.4636,2.447,2.4525,2.4596,2.4714,2.4848,2.4887,2.4887,2.4887,2.4903,2.4887,2.4887,2.4887,2.4887,2.4887,2.4887,2.4887,2.4887,2.4887,2.4887,2.4887,2.4887,2.4887,2.4887,2.4887,2.4887,2.4887,2.4887,2.4887,2.4887,2.4887,2.4887,2.4887,2.4887,2.4887,2.4887,2.4887,2.4887,2.4887,2.4887,2.5079,-1.456,-1.3841,-1.3191,-1.2805,-1.2609,-1.2609,-1.1499,-0.973,-0.9537,-0.8619,-0.6391,-0.3654,0.0,-0.0914,0.1765,0.3336,0.3925,0.4254,0.4254,0.4254,0.4254,0.4254,0.4254,0.4254,0.4254,0.4254,0.4254,0.4254,0.4254,0.4254,0.4254,0.4254,0.4254,0.4254,0.4254,0.4254,0.4254,0.4254,0.4254,0.4254,0.4254,0.4254,0.4254,0.4254,0.4254,0.4254,0.4254,0.4254,0.4254,0.4254,0.4254,0.4254,0.4254,0.4319,0.4582,0.5235,0.6016,0.6928,0.8882,1.0052,1.2131,1.55,1.6994,1.8028,1.9061,1.9635,2.0414,2.1457,2.2171,2.2685,2.2912,2.4001,2.4816,2.4793,2.4761,2.4698,2.4714,2.4761,2.4777,2.4887,2.4887,2.4887,2.4887,2.4887,2.4887,2.4887,2.4887,2.4887,2.4887,2.4887,2.4887,2.4887,2.4887,2.4887,2.4887,2.4887,2.4887,2.4887,2.4887,2.4887,2.4887,2.4887,2.4887,2.4887,2.4887,2.4887,2.4887,2.4887,2.4887,2.4887,2.4887,2.4887,2.4887,2.4887,2.5015,-1.5275,-1.45,-1.3841,-1.3191,-1.2679,-1.2609,-1.2544,-1.2414,-1.2349,-1.2219,-1.1889,-0.8619,-0.6069,-0.3653,-0.0914,0.1634,0.3402,0.4123,0.4254,0.4254,0.4254,0.4254,0.4254,0.4254,0.4254,0.4254,0.4254,0.4254,0.4254,0.4254,0.4254,0.4254,0.4254,0.4254,0.4254,0.4254,0.4254,0.4254,0.4254,0.4254,0.4254,0.4254,0.4254,0.4254,0.4254,0.4254,0.4254,0.4254,0.4254,0.4254,0.4254,0.4254,0.4254,0.4254,0.4713,0.5235,0.5885,0.634,0.7448,0.9404,1.1285,1.2131,1.278,1.3884,1.5246,1.66,1.7505,1.8603,2.0678,2.0999,2.1649,2.327,2.4823,2.4823,2.4823,2.4823,2.4823,2.4887,2.4887,2.4887,2.4887,2.4887,2.4887,2.4887,2.4887,2.4887,2.4887,2.4887,2.4887,2.4887,2.4887,2.4887,2.4887,2.4887,2.4887,2.4887,2.4887,2.4887,2.4887,2.4887,2.4887,2.4887,2.4887,2.4887,2.4887,2.4887,2.4887,2.4887,2.4887,2.4887,2.4887,2.4887,2.4887,2.4887,2.4951,-1.4305,-1.3329,-1.3061,-1.287,-1.2675,-1.2609,-1.2609,-1.2609,-1.2609,-1.2609,-1.202,-0.9665,-0.7639,-0.5743,-0.2416,0.098,0.1503,0.3205,0.4254,0.4254,0.4254,0.4254,0.4254,0.4254,0.4254,0.4254,0.4254,0.4254,0.4254,0.4254,0.4254,0.4254,0.4254,0.4254,0.4254,0.4254,0.4254,0.4254,0.4254,0.4254,0.4254,0.4254,0.4254,0.4254,0.4254,0.4254,0.4254,0.4254,0.4254,0.4254,0.4254,0.4254,0.4254,0.432,0.4648,0.5236,0.5952,0.6669,0.7256,0.8888,0.9146,0.9602,0.9605,1.0971,1.2979,1.3689,1.4658,1.6536,1.9447,2.0349,2.1199,2.359,2.4631,2.4823,2.4823,2.4823,2.4823,2.4823,2.4887,2.4887,2.4887,2.4887,2.4887,2.4887,2.4887,2.4887,2.4887,2.4887,2.4887,2.4887,2.4887,2.4887,2.4887,2.4887,2.4887,2.4887,2.4887,2.4887,2.4887,2.4887,2.4887,2.4887,2.4887,2.4887,2.4887,2.4887,2.4887,2.4887,2.4887,2.4887,2.4887,2.4887,2.4887,2.4887,2.4887,-1.4305,-1.326,-1.3065,-1.287,-1.2609,-1.2609,-1.2609,-1.2609,-1.2609,-1.2609,-1.2154,-1.0844,-0.9472,-0.7641,-0.4505,-0.1893,-0.0131,0.2485,0.3925,0.4057,0.4254,0.4254,0.4254,0.4254,0.4254,0.4254,0.4254,0.4254,0.4254,0.4254,0.4254,0.4254,0.4254,0.4254,0.4254,0.4254,0.4254,0.4254,0.4254,0.4254,0.4254,0.4254,0.4254,0.4254,0.4254,0.4254,0.4254,0.4254,0.4254,0.4254,0.4254,0.4254,0.4254,0.4254,0.4582,0.5236,0.5562,0.654,0.7585,0.798,0.8045,0.8371,0.8633,0.9413,1.0645,1.0967,1.2008,1.3689,1.563,1.6983,1.8609,2.0742,2.2877,2.3134,2.3526,2.359,2.4367,2.4431,2.4495,2.4431,2.4823,2.4887,2.4887,2.4887,2.4887,2.4887,2.4887,2.4887,2.4887,2.4887,2.4887,2.4887,2.4887,2.4887,2.4887,2.4887,2.4887,2.4887,2.4887,2.4887,2.4887,2.4887,2.4887,2.4887,2.4887,2.4887,2.4887,2.4887,2.4887,2.4887,2.4887,2.4887,2.4887,2.4887,2.4887,-1.5145,-1.45,-1.3776,-1.3191,-1.2675,-1.2609,-1.2609,-1.2609,-1.2609,-1.2609,-1.2544,-1.2414,-1.0974,-0.9013,-0.7837,-0.4961,-0.1893,-0.0457,0.1241,0.3073,0.3336,0.4057,0.4188,0.4254,0.4254,0.4254,0.4254,0.4254,0.4254,0.4254,0.4254,0.4254,0.4254,0.4254,0.4254,0.4254,0.4254,0.4254,0.4254,0.4254,0.4254,0.4254,0.4254,0.4254,0.4254,0.4254,0.4254,0.4254,0.4254,0.4254,0.4254,0.4254,0.4254,0.4254,0.4517,0.504,0.5236,0.5954,0.713,0.7261,0.7588,0.8045,0.8306,0.8567,0.8567,0.8633,0.9348,1.0388,1.22,1.317,1.3884,1.55,1.8409,1.9963,2.0549,2.1064,2.2549,2.3262,2.3462,2.3526,2.4175,2.4823,2.4823,2.4823,2.4823,2.4759,2.4823,2.4887,2.4887,2.4887,2.4887,2.4887,2.4887,2.4887,2.4887,2.4887,2.4887,2.4887,2.4887,2.4887,2.4887,2.4887,2.4887,2.4887,2.4887,2.4887,2.4887,2.4887,2.4887,2.4887,2.4887,2.4887,2.4887,2.4887,2.4887,-1.4496,-1.3841,-1.3191,-1.2805,-1.2609,-1.2609,-1.2609,-1.2609,-1.2609,-1.2609,-1.2609,-1.2609,-1.2024,-1.0974,-0.9531,-0.6915,-0.5482,-0.3522,-0.124,0.0327,0.1568,0.255,0.3664,0.4188,0.3992,0.4254,0.4254,0.4254,0.4254,0.4254,0.4254,0.4254,0.4254,0.4254,0.4254,0.4254,0.4254,0.4254,0.4254,0.4254,0.4254,0.4254,0.4254,0.4254,0.4254,0.4254,0.4254,0.4254,0.4254,0.4254,0.4254,0.4254,0.4254,0.4319,0.4386,0.4648,0.4975,0.5366,0.5758,0.6019,0.6412,0.7457,0.7914,0.8306,0.8371,0.8371,0.8371,0.8567,1.0645,1.259,1.278,1.4273,1.66,1.7247,1.7834,1.848,2.0027,2.1385,2.1771,2.2164,2.3654,2.4495,2.4559,2.4623,2.4495,2.4303,2.4567,2.4887,2.4887,2.4887,2.4887,2.4887,2.4887,2.4887,2.4887,2.4887,2.4887,2.4887,2.4887,2.4887,2.4887,2.4887,2.4887,2.4887,2.4887,2.4887,2.4887,2.4887,2.4887,2.4887,2.4887,2.4887,2.4887,2.4887,2.4887,-1.4305,-1.3906,-1.3,-1.2609,-1.2609,-1.2609,-1.2609,-1.2609,-1.2609,-1.2609,-1.2609,-1.2609,-1.2609,-1.2127,-1.0475,-0.9415,-0.809,-0.63,-0.4095,-0.241,-0.124,0.0131,0.17,0.2616,0.327,0.4123,0.4254,0.4254,0.4254,0.4254,0.4254,0.4254,0.4254,0.4254,0.4254,0.4254,0.4254,0.4254,0.4254,0.4254,0.4254,0.4254,0.4254,0.4254,0.4254,0.4254,0.4254,0.4254,0.4254,0.4254,0.4254,0.4254,0.4254,0.4254,0.4319,0.4386,0.4582,0.4975,0.5302,0.5367,0.5629,0.6673,0.7455,0.8108,0.8371,0.8371,0.8371,0.8763,0.9866,1.045,1.0837,1.2395,1.4273,1.4792,1.5371,1.5953,1.7118,1.8538,1.9183,1.9576,2.1257,2.3134,2.3654,2.4039,2.379,2.3726,2.4367,2.4887,2.4887,2.4887,2.4887,2.4887,2.4887,2.4887,2.4887,2.4887,2.4887,2.4887,2.4887,2.4887,2.4887,2.4887,2.4887,2.4887,2.4887,2.4887,2.4887,2.4887,2.4887,2.4887,2.4887,2.4887,2.4887,2.4887,2.4887,-1.457,-1.45,-1.3195,-1.2609,-1.2609,-1.2609,-1.2609,-1.2609,-1.2609,-1.2609,-1.2609,-1.2609,-1.2663,-1.2485,-1.1864,-1.0696,-0.877,-0.8541,-0.6696,-0.512,-0.4105,-0.267,-0.0783,0.0588,0.1503,0.327,0.4188,0.4188,0.4188,0.3861,0.3796,0.4254,0.4254,0.4254,0.4254,0.4254,0.4254,0.4254,0.4254,0.4254,0.4254,0.4254,0.4254,0.4254,0.4254,0.4254,0.4254,0.4254,0.4254,0.4254,0.4254,0.4254,0.4254,0.4254,0.4254,0.4254,0.4386,0.4648,0.4909,0.504,0.5236,0.5629,0.6477,0.7583,0.8241,0.8371,0.8371,0.8502,0.876,0.8891,0.8695,0.8695,1.0577,1.1488,1.2395,1.2979,1.3819,1.5371,1.6536,1.6988,1.8222,1.9963,2.0806,2.1392,2.1328,2.2171,2.2813,2.3911,2.4111,2.4887,2.4887,2.4887,2.4887,2.4887,2.4887,2.4887,2.4887,2.4887,2.4887,2.4887,2.4887,2.4887,2.4887,2.4887,2.4887,2.4887,2.4887,2.4887,2.4887,2.4887,2.4887,2.4887,2.4887,2.4887,2.4887,-1.457,-1.4435,-1.313,-1.2609,-1.2609,-1.2609,-1.2609,-1.2609,-1.2609,-1.2609,-1.2609,-1.2609,-1.2534,-1.2354,-1.2175,-1.1779,-1.102,-1.1091,-0.9455,-0.7933,-0.6816,-0.5491,-0.3378,-0.1044,0.0131,0.1045,0.255,0.3598,0.327,0.2616,0.2485,0.4254,0.4254,0.4254,0.4254,0.4254,0.4254,0.4254,0.4254,0.4254,0.4254,0.4254,0.4254,0.4254,0.4254,0.4254,0.4254,0.4254,0.4254,0.4254,0.4254,0.4254,0.4254,0.4254,0.4254,0.4254,0.4254,0.4386,0.4517,0.4648,0.4778,0.53,0.6083,0.6995,0.798,0.8371,0.8371,0.8371,0.8371,0.8371,0.8371,0.8371,0.9021,0.9348,0.9736,0.9866,1.0518,1.233,1.3625,1.4338,1.5505,1.7123,1.7511,1.8351,1.9383,2.042,2.1649,2.2685,2.3719,2.4759,2.4887,2.4887,2.4887,2.4887,2.4887,2.4887,2.4887,2.4887,2.4887,2.4887,2.4887,2.4887,2.4887,2.4887,2.4887,2.4887,2.4887,2.4887,2.4887,2.4887,2.4887,2.4887,2.4887,2.4887,2.4887,-1.4435,-1.4106,-1.3,-1.2609,-1.2609,-1.2609,-1.2609,-1.2609,-1.2609,-1.2609,-1.2609,-1.2609,-1.2558,-1.2382,-1.2207,-1.2171,-1.2079,-1.1817,-1.1004,-0.9983,-0.9636,-0.8356,-0.5936,-0.4335,-0.2536,-0.1889,-0.0196,0.1307,0.1895,0.1045,0.1438,0.386,0.4254,0.4254,0.4254,0.4254,0.4254,0.4254,0.4254,0.4254,0.4254,0.4254,0.4254,0.4254,0.4254,0.4254,0.4254,0.4254,0.4254,0.4254,0.4254,0.4254,0.4254,0.4254,0.4254,0.4254,0.4254,0.4254,0.4254,0.4254,0.4451,0.4908,0.5495,0.6279,0.7256,0.7912,0.8371,0.8371,0.8371,0.8371,0.8371,0.8371,0.8371,0.8437,0.876,0.8956,0.9282,1.0384,1.1097,1.1943,1.2784,1.2784,1.2979,1.4273,1.5759,1.7182,1.8732,2.0607,2.2421,2.3847,2.4431,2.4695,2.4887,2.4887,2.4887,2.4887,2.4887,2.4887,2.4887,2.4887,2.4887,2.4887,2.4887,2.4887,2.4887,2.4887,2.4887,2.4887,2.4887,2.4887,2.4887,2.4887,2.4887,2.4887,2.4887,-1.424,-1.3646,-1.2935,-1.2609,-1.2609,-1.2609,-1.2609,-1.2609,-1.2609,-1.2609,-1.2609,-1.2609,-1.2609,-1.2514,-1.2246,-1.2083,-1.1941,-1.18,-1.1662,-1.1653,-1.1605,-1.0482,-0.8911,-0.8525,-0.6151,-0.4691,-0.3849,-0.274,-0.1893,-0.0979,0.0784,0.3139,0.3729,0.4254,0.4254,0.4254,0.4254,0.4254,0.4254,0.4254,0.4254,0.4254,0.4254,0.4254,0.4254,0.4254,0.4254,0.4254,0.4254,0.4254,0.4254,0.4254,0.4254,0.4254,0.4254,0.4254,0.4254,0.4254,0.4254,0.4254,0.4386,0.4515,0.4973,0.5495,0.6344,0.7324,0.8176,0.8306,0.8371,0.8371,0.8371,0.8371,0.8371,0.8371,0.8371,0.8371,0.8437,0.9475,0.9345,0.9997,1.071,1.0189,0.9866,1.1097,1.233,1.4139,1.6207,1.8797,2.0999,2.262,2.3526,2.4431,2.4887,2.4887,2.4887,2.4887,2.4887,2.4887,2.4887,2.4887,2.4887,2.4887,2.4887,2.4887,2.4887,2.4887,2.4887,2.4887,2.4887,2.4887,2.4887,2.4887,2.4887,2.4887,2.4887,-1.45,-1.4305,-1.313,-1.2609,-1.2609,-1.2609,-1.2609,-1.2609,-1.2609,-1.2609,-1.2609,-1.2609,-1.2609,-1.2518,-1.2262,-1.1945,-1.1749,-1.1741,-1.1879,-1.214,-1.2128,-1.2179,-1.1013,-0.9758,-0.8194,-0.7175,-0.6002,-0.4959,-0.5352,-0.4242,-0.1828,0.0523,0.3337,0.4254,0.4057,0.3795,0.4254,0.4254,0.4254,0.4254,0.4254,0.4254,0.4254,0.4254,0.4254,0.4254,0.4254,0.4254,0.4254,0.4254,0.4254,0.4254,0.4254,0.4254,0.4254,0.4254,0.4254,0.4254,0.4254,0.4254,0.4254,0.4319,0.4909,0.5236,0.5823,0.6736,0.7781,0.8241,0.8371,0.8371,0.8371,0.8371,0.8371,0.8371,0.8371,0.8371,0.8371,0.8371,0.8371,0.8502,0.8695,0.8891,0.8956,0.9863,1.0645,1.233,1.3815,1.6466,1.8603,2.0485,2.2235,2.3462,2.4367,2.4303,2.4759,2.4759,2.4887,2.4887,2.4887,2.4887,2.4887,2.4887,2.4887,2.4887,2.4887,2.4887,2.4887,2.4887,2.4887,2.4887,2.4887,2.4887,2.4887,2.4887,2.4887,-1.4435,-1.4041,-1.3065,-1.2609,-1.2609,-1.2609,-1.2609,-1.2609,-1.2609,-1.2609,-1.2609,-1.2609,-1.2609,-1.2538,-1.2314,-1.2048,-1.1929,-1.1824,-1.1985,-1.2096,-1.2159,-1.2247,-1.2,-1.1046,-1.0383,-0.9913,-0.901,-0.8616,-0.8163,-0.6721,-0.47,-0.222,-0.0653,0.098,0.1896,0.2288,0.2877,0.4188,0.4254,0.4254,0.4254,0.4254,0.4254,0.4254,0.4254,0.4254,0.4254,0.4254,0.4254,0.4254,0.4254,0.4254,0.4254,0.4254,0.4254,0.4254,0.4254,0.4254,0.4254,0.4254,0.4254,0.432,0.4517,0.4909,0.5433,0.6213,0.7126,0.7716,0.8042,0.8371,0.8371,0.8371,0.8371,0.8371,0.8371,0.8371,0.8371,0.8371,0.8371,0.8371,0.8567,0.8502,0.8371,0.8698,0.9217,1.0254,1.1679,1.3689,1.5884,1.7828,1.977,2.1128,2.2356,2.307,2.4503,2.4695,2.4887,2.4887,2.4887,2.4887,2.4887,2.4887,2.4887,2.4887,2.4887,2.4887,2.4887,2.4887,2.4887,2.4887,2.4887,2.4887,2.4887,2.4887,2.4887,-1.4106,-1.3512,-1.287,-1.2609,-1.2609,-1.2609,-1.2609,-1.2609,-1.2609,-1.2609,-1.2609,-1.2609,-1.2609,-1.2562,-1.2358,-1.2203,-1.2084,-1.2064,-1.21,-1.2219,-1.2239,-1.2227,-1.2366,-1.1943,-1.2171,-1.2582,-1.215,-1.0909,-0.9668,-0.8489,-0.6723,-0.5089,-0.3914,-0.2741,-0.0979,0.0,0.1438,0.2746,0.3925,0.4254,0.4254,0.4254,0.4254,0.4254,0.4254,0.4254,0.4254,0.4254,0.4254,0.4254,0.4254,0.4254,0.4254,0.4254,0.4254,0.4254,0.4254,0.4254,0.4319,0.4386,0.4386,0.4386,0.4646,0.4973,0.5169,0.5952,0.6799,0.7322,0.7781,0.8371,0.8371,0.8371,0.8371,0.8371,0.8371,0.8371,0.8371,0.8371,0.8371,0.8371,0.8371,0.8371,0.8371,0.8502,0.8826,0.9475,1.0319,1.1679,1.3689,1.563,1.7312,1.8732,2.0156,2.2035,2.379,2.3918,2.4695,2.4695,2.4887,2.4887,2.4887,2.4887,2.4887,2.4887,2.4887,2.4887,2.4887,2.4887,2.4887,2.4887,2.4887,2.4887,2.4887,2.4887,2.4887,-1.3711,-1.3577,-1.2866,-1.2609,-1.2609,-1.2609,-1.2609,-1.2609,-1.2609,-1.2609,-1.2609,-1.2609,-1.2609,-1.2574,-1.2366,-1.2279,-1.2243,-1.2247,-1.2302,-1.2458,-1.2466,-1.2498,-1.2526,-1.2542,-1.2574,-1.2602,-1.2609,-1.2544,-1.1238,-0.9733,-0.8554,-0.7508,-0.5611,-0.4437,-0.3198,-0.1436,-0.0131,0.0849,0.2681,0.386,0.3925,0.4188,0.4254,0.4254,0.4254,0.4254,0.4254,0.4254,0.4254,0.4254,0.4254,0.4254,0.4254,0.4254,0.4254,0.4254,0.4254,0.4319,0.4451,0.4713,0.4844,0.432,0.5168,0.5429,0.5168,0.6017,0.6734,0.7126,0.7585,0.8371,0.8371,0.8371,0.8371,0.8371,0.8371,0.8371,0.8371,0.8371,0.8371,0.8371,0.8371,0.8371,0.8371,0.8371,0.8371,0.8502,0.876,0.9671,1.1683,1.3495,1.4857,1.6212,1.7958,1.9834,2.1321,2.1907,2.4111,2.4503,2.4887,2.4887,2.4887,2.4887,2.4887,2.4887,2.4887,2.4887,2.4887,2.4887,2.4887,2.4887,2.4887,2.4887,2.4887,2.4887,2.4887,-1.3711,-1.3061,-1.274,-1.2609,-1.2609,-1.2609,-1.2609,-1.2609,-1.2609,-1.2609,-1.2609,-1.2609,-1.2609,-1.2602,-1.2526,-1.2482,-1.2482,-1.2486,-1.2534,-1.2586,-1.2609,-1.2609,-1.2609,-1.2609,-1.2609,-1.2609,-1.2609,-1.2609,-1.2414,-1.13,-1.045,-1.0384,-0.9466,-0.7766,-0.62,-0.5221,-0.359,-0.1958,0.0522,0.1961,0.2354,0.3337,0.4254,0.4254,0.4254,0.4254,0.4254,0.4254,0.4254,0.4254,0.4254,0.4254,0.4254,0.4254,0.4254,0.4254,0.4254,0.4386,0.4713,0.504,0.5235,0.5298,0.582,0.5752,0.5885,0.6538,0.7126,0.7191,0.7716,0.8371,0.8371,0.8371,0.8371,0.8371,0.8371,0.8371,0.8371,0.8371,0.8371,0.8371,0.8371,0.8371,0.8371,0.8371,0.8371,0.8371,0.8633,0.876,1.0645,1.1032,1.2395,1.3819,1.5694,1.7371,1.8861,2.0613,2.262,2.3783,2.4367,2.4887,2.4495,2.4559,2.4823,2.4887,2.4887,2.4887,2.4887,2.4887,2.4887,2.4887,2.4887,2.4887,2.4887,2.4887,2.4887,-1.3585,-1.2609,-1.2609,-1.2609,-1.2609,-1.2609,-1.2609,-1.2609,-1.2609,-1.2609,-1.2609,-1.2609,-1.2609,-1.2609,-1.2602,-1.2609,-1.2594,-1.2594,-1.2609,-1.2609,-1.2609,-1.2609,-1.2609,-1.2609,-1.2609,-1.2609,-1.2609,-1.2609,-1.2609,-1.2414,-1.2609,-1.2479,-1.1759,-1.143,-0.9274,-0.8228,-0.7049,-0.4894,-0.1501,0.0,0.0,0.2812,0.4254,0.4254,0.4254,0.4254,0.4254,0.4254,0.4254,0.4254,0.4254,0.4254,0.4254,0.4254,0.4254,0.4254,0.4319,0.4517,0.4975,0.5236,0.5627,0.595,0.6342,0.6601,0.6405,0.7061,0.7518,0.7518,0.7977,0.8306,0.8371,0.8371,0.8371,0.8371,0.8371,0.8371,0.8371,0.8371,0.8371,0.8371,0.8371,0.8371,0.8371,0.8371,0.8371,0.8371,0.8371,0.8371,0.8567,0.876,0.9931,1.1231,1.304,1.4788,1.6277,1.7958,2.0349,2.2292,2.3847,2.4823,2.3975,2.3719,2.4559,2.4887,2.4887,2.4887,2.4887,2.4887,2.4887,2.4887,2.4887,2.4887,2.4887,2.4887,2.4887,-1.2744,-1.2609,-1.2609,-1.2609,-1.2609,-1.2609,-1.2609,-1.2609,-1.2609,-1.2609,-1.2609,-1.2609,-1.2609,-1.2609,-1.2609,-1.2609,-1.2609,-1.2609,-1.2609,-1.2609,-1.2609,-1.2609,-1.2609,-1.2609,-1.2609,-1.2609,-1.2609,-1.2609,-1.2609,-1.2609,-1.2609,-1.2609,-1.2609,-1.2349,-1.1495,-0.9665,-0.8423,-0.7117,-0.3329,0.0,0.0,0.2157,0.386,0.4123,0.4254,0.4254,0.4254,0.4254,0.4123,0.4188,0.4254,0.4254,0.4254,0.4254,0.4254,0.4254,0.4254,0.432,0.4581,0.5429,0.5885,0.5952,0.7196,0.7653,0.6928,0.7452,0.7977,0.7583,0.7977,0.8306,0.8371,0.8371,0.8371,0.8371,0.8371,0.8371,0.8371,0.8371,0.8371,0.8371,0.8371,0.8371,0.8371,0.8371,0.8371,0.8371,0.8371,0.8371,0.8371,0.8371,0.8891,0.9609,1.0775,1.233,1.3754,1.5306,1.8022,2.0092,2.1578,2.2677,2.1771,2.262,2.3847,2.4887,2.4887,2.4887,2.4887,2.4887,2.4887,2.4887,2.4887,2.4887,2.4887,2.4887,2.4793,-1.3329,-1.2609,-1.2609,-1.2609,-1.2609,-1.2609,-1.2609,-1.2609,-1.2609,-1.2609,-1.2609,-1.2609,-1.2609,-1.2609,-1.2609,-1.2609,-1.2609,-1.2609,-1.2609,-1.2609,-1.2609,-1.2609,-1.2609,-1.2609,-1.2609,-1.2609,-1.2609,-1.2609,-1.2609,-1.2609,-1.2609,-1.2609,-1.2609,-1.2609,-1.2479,-1.13,-1.0844,-1.0059,-0.7052,-0.3915,-0.2349,0.0327,0.2288,0.4057,0.4254,0.4254,0.4254,0.4254,0.3401,0.2419,0.3337,0.4254,0.4254,0.4254,0.4254,0.4254,0.4254,0.4451,0.4844,0.53,0.5887,0.654,0.713,0.7585,0.7651,0.7912,0.8306,0.7977,0.8176,0.8306,0.8371,0.8371,0.8371,0.8371,0.8371,0.8371,0.8371,0.8371,0.8371,0.8371,0.8371,0.8371,0.8371,0.8371,0.8371,0.8371,0.8371,0.8371,0.8371,0.8371,0.8567,0.8763,0.9605,1.0124,1.1162,1.278,1.5241,1.5824,1.7177,1.899,1.9248,2.0478,2.1514,2.2492,2.3975,2.4887,2.4887,2.4887,2.4336,2.3858,2.4751,2.4887,2.4887,2.4887,2.473,-1.365,-1.2679,-1.2609,-1.2609,-1.2609,-1.2609,-1.2609,-1.2609,-1.2609,-1.2609,-1.2609,-1.2609,-1.2609,-1.2609,-1.2609,-1.2609,-1.2609,-1.2609,-1.2609,-1.2609,-1.2609,-1.2609,-1.2609,-1.2609,-1.2609,-1.2609,-1.2609,-1.2609,-1.2609,-1.2609,-1.2609,-1.2609,-1.2609,-1.2609,-1.2609,-1.2544,-1.2609,-1.228,-0.9733,-0.7115,-0.5024,-0.248,0.0,0.1961,0.1896,0.2223,0.3074,0.2485,0.098,-0.0718,0.1045,0.2092,0.1699,0.1765,0.1961,0.2616,0.3074,0.3533,0.4648,0.5171,0.5823,0.693,0.7256,0.7651,0.8306,0.8371,0.8371,0.8371,0.8371,0.8371,0.8371,0.8371,0.8371,0.8371,0.8371,0.8371,0.8371,0.8371,0.8371,0.8371,0.8371,0.8371,0.8371,0.8371,0.8371,0.8371,0.8371,0.8371,0.8371,0.8371,0.8371,0.8371,0.8437,0.8371,0.8891,1.0515,1.1618,1.233,1.3555,1.55,1.6342,1.7231,1.8198,1.9686,2.0895,2.1166,2.2078,2.3011,2.2626,2.1471,2.2215,2.2826,2.3344,2.4065,2.3888,-1.3256,-1.2679,-1.2609,-1.2609,-1.2609,-1.2609,-1.2609,-1.2609,-1.2609,-1.2609,-1.2609,-1.2609,-1.2609,-1.2609,-1.2609,-1.2609,-1.2609,-1.2609,-1.2609,-1.2609,-1.2609,-1.2609,-1.2609,-1.2609,-1.2609,-1.2609,-1.2609,-1.2609,-1.2609,-1.2609,-1.2609,-1.2609,-1.2609,-1.2609,-1.2609,-1.2609,-1.2609,-1.2349,-0.9993,-0.8489,-0.7769,-0.522,-0.3523,-0.3197,-0.2936,-0.1958,-0.0522,-0.2212,-0.3708,-0.3715,-0.3381,-0.3053,-0.3323,-0.3588,-0.1888,0.013,0.0261,0.1567,0.3729,0.4319,0.5235,0.6277,0.693,0.7651,0.8241,0.8371,0.8371,0.8371,0.8371,0.8371,0.8371,0.8371,0.8371,0.8371,0.8371,0.8371,0.8371,0.8371,0.8371,0.8371,0.8371,0.8371,0.8371,0.8371,0.8371,0.8371,0.8371,0.8371,0.8371,0.8371,0.8371,0.8371,0.8371,0.8371,0.8371,0.9801,1.0192,1.0645,1.1032,1.207,1.2655,1.3072,1.3762,1.5893,1.7433,1.7327,1.7707,1.8525,1.8652,1.9063,1.9633,2.0151,2.0929,2.1988,2.2335,-1.3585,-1.2675,-1.2609,-1.2609,-1.2609,-1.2609,-1.2609,-1.2609,-1.2609,-1.2609,-1.2609,-1.2609,-1.2609,-1.2609,-1.2609,-1.2609,-1.2609,-1.2609,-1.2609,-1.2609,-1.2609,-1.2609,-1.2609,-1.2609,-1.2609,-1.2609,-1.2609,-1.2609,-1.2609,-1.2609,-1.2609,-1.2609,-1.2609,-1.2605,-1.2609,-1.2609,-1.2609,-1.2544,-1.156,-1.0189,-0.8554,-0.731,-0.5872,-0.4369,-0.4109,-0.3588,-0.3061,-0.6858,-0.7496,-0.4766,-0.5592,-0.5463,-0.4004,-0.3944,-0.3447,-0.2572,-0.2257,-0.123,0.1175,0.1957,0.3007,0.5687,0.6471,0.7124,0.8108,0.8371,0.8371,0.8371,0.8371,0.8371,0.8371,0.8371,0.8371,0.8371,0.8371,0.8371,0.8371,0.8371,0.8371,0.8371,0.8371,0.8371,0.8371,0.8371,0.8371,0.8371,0.8371,0.8371,0.8371,0.8371,0.8371,0.8371,0.8371,0.8371,0.8371,0.8567,0.8894,0.9064,0.9111,0.9674,0.9985,1.0405,1.0885,1.305,1.478,1.4902,1.5078,1.5429,1.5399,1.6572,1.7331,1.7562,1.7801,1.9113,2.0315,-1.3637,-1.2586,-1.253,-1.2554,-1.2609,-1.2609,-1.2609,-1.2609,-1.2609,-1.2609,-1.2609,-1.2609,-1.2609,-1.2609,-1.2609,-1.2609,-1.2602,-1.2486,-1.2442,-1.2438,-1.2438,-1.243,-1.2434,-1.2442,-1.2442,-1.2446,-1.2446,-1.2442,-1.2438,-1.2434,-1.2446,-1.2442,-1.2438,-1.2442,-1.243,-1.2442,-1.2446,-1.2446,-1.2446,-1.1539,-0.9796,-0.9472,-0.863,-0.676,-0.6565,-0.6565,-0.6752,-1.0049,-1.0075,-0.6761,-0.8068,-0.8256,-0.6757,-0.6317,-0.5907,-0.5263,-0.5081,-0.3957,-0.1545,-0.0322,0.1546,0.3998,0.5701,0.6754,0.7797,0.8215,0.8371,0.8371,0.8371,0.8371,0.8371,0.8371,0.8371,0.8371,0.8371,0.8371,0.8371,0.8371,0.8371,0.8371,0.8371,0.8371,0.8371,0.8371,0.8371,0.8371,0.8371,0.8371,0.8371,0.8371,0.8371,0.8371,0.8371,0.8371,0.8371,0.8502,0.8562,0.8549,0.8525,0.8822,0.8697,0.8874,0.9417,1.0648,1.2147,1.2861,1.3093,1.3076,1.2627,1.3135,1.4265,1.4709,1.491,1.5876,1.7236,-1.3327,-1.2334,-1.2282,-1.237,-1.2554,-1.2562,-1.2594,-1.257,-1.2578,-1.2554,-1.2538,-1.2578,-1.255,-1.2582,-1.255,-1.2582,-1.251,-1.2262,-1.2135,-1.2131,-1.206,-1.2056,-1.2064,-1.2139,-1.2139,-1.2131,-1.204,-1.2099,-1.2064,-1.2135,-1.2068,-1.2107,-1.2068,-1.2147,-1.2036,-1.2135,-1.2111,-1.2127,-1.2135,-1.199,-1.1962,-1.1743,-1.1501,-1.1485,-1.1397,-1.1323,-1.1576,-1.1868,-1.1779,-1.1476,-1.167,-1.1942,-1.1344,-1.122,-1.0498,-0.8191,-0.7756,-0.6384,-0.3887,-0.1696,-0.0315,0.1511,0.4068,0.57,0.654,0.7439,0.7944,0.8137,0.828,0.8361,0.8358,0.8345,0.8337,0.8366,0.8329,0.8329,0.8345,0.8361,0.8363,0.8345,0.8334,0.8361,0.8363,0.8332,0.8318,0.8324,0.8329,0.8324,0.8313,0.8313,0.8353,0.835,0.8313,0.8284,0.8326,0.835,0.8151,0.8043,0.8028,0.8025,0.8038,0.8056,0.8653,0.8815,1.037,1.0315,1.0551,1.0486,1.0038,1.013,1.09,1.1776,1.2099,1.2769,1.4072,-1.3936,-1.279,-1.2288,-1.2195,-1.2187,-1.2246,-1.225,-1.225,-1.225,-1.2246,-1.225,-1.225,-1.2246,-1.225,-1.225,-1.2246,-1.2231,-1.2135,-1.2017,-1.2017,-1.2017,-1.2017,-1.2017,-1.2017,-1.2017,-1.2013,-1.2017,-1.2017,-1.2017,-1.2017,-1.2017,-1.2071,-1.2017,-1.2017,-1.2017,-1.2017,-1.2017,-1.2017,-1.2017,-1.2013,-1.2017,-1.2017,-1.2017,-1.1981,-1.1786,-1.1667,-1.1667,-1.1671,-1.1671,-1.1667,-1.1667,-1.1667,-1.1667,-1.1667,-1.1229,-1.0533,-1.0363,-0.9224,-0.6806,-0.5692,-0.4065,-0.1565,-0.0189,0.145,0.3656,0.4493,0.5775,0.7132,0.7877,0.8255,0.8177,0.8056,0.8072,0.807,0.8133,0.807,0.807,0.8138,0.8141,0.8083,0.8149,0.8141,0.807,0.8136,0.8078,0.807,0.8133,0.807,0.807,0.807,0.8072,0.8072,0.8085,0.8154,0.8133,0.813,0.7972,0.7954,0.7944,0.7965,0.7967,0.7888,0.7964,0.7884,0.7914,0.7807,0.7786,0.7786,0.7828,0.7922,0.8761,0.9682,0.9696,0.9997,1.1143,-1.5924,-1.4339,-1.2634,-1.1961,-1.2013,-1.2017,-1.2017,-1.2017,-1.2017,-1.2017,-1.2017,-1.2017,-1.2017,-1.2067,-1.1886,-1.183,-1.1887,-1.183,-1.183,-1.183,-1.1891,-1.183,-1.1826,-1.183,-1.183,-1.183,-1.183,-1.183,-1.183,-1.183,-1.183,-1.183,-1.183,-1.183,-1.1826,-1.183,-1.183,-1.183,-1.183,-1.183,-1.1818,-1.183,-1.1581,-1.1193,-1.0885,-1.0781,-1.0781,-1.1262,-1.1445,-1.1445,-1.1445,-1.1445,-1.1445,-1.1445,-1.1496,-1.1599,-1.1611,-1.086,-0.9285,-0.825,-0.6647,-0.4494,-0.334,-0.1489,0.0124,0.1184,0.2376,0.4263,0.5626,0.5883,0.561,0.5717,0.6138,0.6766,0.6953,0.7085,0.7704,0.7957,0.7957,0.7957,0.7957,0.7957,0.7972,0.7957,0.7957,0.7957,0.7957,0.7965,0.7959,0.7957,0.797,0.7959,0.7954,0.793,0.7867,0.7838,0.7838,0.7838,0.7841,0.7838,0.7825,0.7746,0.7736,0.7723,0.7694,0.766,0.7673,0.767,0.766,0.7636,0.7633,0.8179,0.7618,0.851,0.9105,-1.8981,-1.685,-1.3547,-1.2444,-1.2292,-1.2408,-1.235,-1.2325,-1.2221,-1.2105,-1.1965,-1.1969,-1.2047,-1.2193,-1.1724,-1.1513,-1.1453,-1.1469,-1.1477,-1.1477,-1.1465,-1.1449,-1.1445,-1.1445,-1.1453,-1.1488,-1.1552,-1.148,-1.1469,-1.1461,-1.1445,-1.1513,-1.1473,-1.1457,-1.1469,-1.148,-1.1513,-1.154,-1.148,-1.1461,-1.1461,-1.1401,-1.0683,-0.9602,-0.9457,-0.9457,-0.9516,-1.0598,-1.1262,-1.1322,-1.1322,-1.1381,-1.1445,-1.1445,-1.1445,-1.1453,-1.1453,-1.1393,-1.1042,-0.912,-0.7732,-0.7318,-0.5098,-0.3118,-0.2936,-0.2221,-0.1117,0.0187,0.1743,0.186,0.0614,0.1668,0.3112,0.4482,0.4926,0.5987,0.7554,0.7656,0.7936,0.7925,0.7912,0.7901,0.7922,0.7944,0.7917,0.7915,0.7928,0.7922,0.7907,0.792,0.7915,0.7912,0.7904,0.7867,0.7678,0.767,0.7657,0.7665,0.7694,0.7647,0.7626,0.7618,0.7626,0.7623,0.762,0.762,0.7618,0.7618,0.7618,0.7618,0.7618,0.7618,0.7618,0.7618,0.7836,-2.0928,-1.9236,-1.8184,-1.6961,-1.5776,-1.5711,-1.499,-1.3853,-1.3733,-1.2959,-1.1704,-1.164,-1.242,-1.3418,-1.2143,-1.1445,-1.1445,-1.1445,-1.1445,-1.1445,-1.1445,-1.1445,-1.1445,-1.1445,-1.1445,-1.1445,-1.1445,-1.1445,-1.1445,-1.1445,-1.1445,-1.1445,-1.1445,-1.1445,-1.1445,-1.1445,-1.1445,-1.1445,-1.1445,-1.1445,-1.1318,-1.0538,-0.9397,-0.8265,-0.8142,-0.8083,-0.8142,-0.8444,-0.9101,-0.9997,-1.0057,-1.0478,-1.1381,-1.1445,-1.1445,-1.1445,-1.1445,-1.1445,-1.1445,-0.9938,-0.9397,-1.012,-0.8764,-0.7281,-0.6382,-0.5613,-0.4296,-0.2545,-0.3268,-0.351,-0.3372,-0.0967,0.0727,0.1454,0.3637,0.5034,0.5769,0.6982,0.7659,0.7652,0.7733,0.7652,0.7715,0.772,0.7728,0.7728,0.7723,0.7712,0.7712,0.7659,0.7659,0.7652,0.7715,0.7626,0.7579,0.7618,0.7618,0.7618,0.7618,0.7618,0.7618,0.7618,0.7618,0.7618,0.7618,0.7618,0.7618,0.7618,0.7618,0.7618,0.7615,0.7612,0.7589,0.7612,0.7581,-2.3973,-2.2277,-2.1229,-1.9406,-1.7235,-1.7117,-1.6466,-1.5518,-1.5518,-1.4871,-1.3871,-1.3811,-1.4401,-1.5399,-1.4282,-1.3335,-1.268,-1.2625,-1.2272,-1.1505,-1.1445,-1.1445,-1.1445,-1.1445,-1.1445,-1.1445,-1.1445,-1.1445,-1.1445,-1.1445,-1.1445,-1.1445,-1.1445,-1.1445,-1.1445,-1.1445,-1.1445,-1.1445,-1.1445,-1.137,-1.1068,-0.9518,-0.8287,-0.7527,-0.7054,-0.6998,-0.7468,-0.7996,-0.8876,-0.9983,-1.0104,-1.0455,-1.1224,-1.1224,-1.1228,-1.1228,-1.1224,-1.1228,-1.1224,-1.0639,-1.0558,-1.1334,-1.0736,-0.9755,-0.8495,-0.8495,-0.7754,-0.5942,-0.6022,-0.6105,-0.5152,-0.3054,-0.1257,-0.0299,0.1258,0.3116,0.4555,0.5816,0.6837,0.7498,0.7618,0.762,0.7618,0.7618,0.7618,0.7618,0.762,0.7631,0.7623,0.7618,0.7618,0.7618,0.7618,0.7618,0.7618,0.7618,0.7618,0.7618,0.7618,0.7618,0.7618,0.7618,0.7618,0.7618,0.7618,0.7618,0.761,0.7618,0.7618,0.7605,0.7605,0.759,0.7486,0.7478,0.7487,-2.7384,-2.5506,-2.3339,-2.0531,-1.7885,-1.7767,-1.7655,-1.7413,-1.7413,-1.7413,-1.7596,-1.7419,-1.73,-1.7353,-1.7117,-1.6116,-1.4693,-1.4628,-1.3742,-1.2212,-1.1978,-1.1974,-1.2157,-1.2093,-1.1859,-1.1795,-1.1859,-1.1795,-1.1505,-1.1445,-1.1445,-1.1445,-1.1425,-1.1473,-1.1413,-1.1394,-1.139,-1.1394,-1.1453,-1.1177,-1.065,-0.8639,-0.744,-0.7211,-0.6182,-0.6121,-0.711,-0.835,-0.9495,-1.0627,-1.0639,-1.0749,-1.0867,-1.0863,-1.0863,-1.0867,-1.0867,-1.0859,-1.0871,-1.1008,-1.1036,-1.1223,-1.1173,-1.0654,-0.982,-1.0662,-1.0791,-0.9163,-0.7279,-0.6428,-0.6088,-0.4841,-0.3285,-0.1909,-0.1017,0.0359,0.3415,0.4615,0.5515,0.7196,0.7438,0.7618,0.7618,0.7618,0.7618,0.7618,0.7618,0.7618,0.7618,0.7618,0.7558,0.7318,0.7258,0.7258,0.7618,0.7618,0.7618,0.7618,0.7618,0.7618,0.7618,0.7618,0.7607,0.7584,0.7589,0.7573,0.7573,0.7586,0.757,0.7526,0.7532,0.7516,0.742,0.7406,0.7353,-2.8515,-2.6424,-2.5775,-2.4031,-2.1634,-2.1641,-2.0744,-1.9433,-1.9315,-2.0213,-2.1281,-2.0037,-1.9374,-1.9204,-1.7773,-1.688,-1.6531,-1.6525,-1.6288,-1.5879,-1.582,-1.5879,-1.582,-1.582,-1.5108,-1.3861,-1.3742,-1.2919,-1.162,-1.1445,-1.1445,-1.1429,-1.1362,-1.1357,-1.1353,-1.1159,-1.103,-1.103,-1.103,-1.0532,-0.9548,-0.9035,-0.7834,-0.6063,-0.5604,-0.5604,-0.5892,-0.6178,-0.7317,-0.932,-0.9548,-0.9944,-1.0802,-1.0859,-1.0859,-1.0859,-1.0859,-1.0859,-1.0802,-1.0098,-1.0001,-1.0861,-1.0206,-0.994,-1.0512,-1.0862,-1.0494,-0.9381,-0.8717,-0.8389,-0.8057,-0.6492,-0.5065,-0.4536,-0.2498,-0.0598,0.0479,0.3055,0.5094,0.5515,0.6717,0.7493,0.7618,0.7618,0.7435,0.7376,0.7618,0.7618,0.7618,0.7618,0.6956,0.5996,0.5455,0.5866,0.7378,0.749,0.7425,0.7618,0.749,0.7417,0.748,0.755,0.7589,0.7561,0.7601,0.7516,0.7431,0.7473,0.7479,0.7429,0.7457,0.7414,0.7377,0.7369,0.7313,-2.7829,-2.6608,-2.5967,-2.4967,-2.3696,-2.3177,-2.2296,-2.1376,-2.0965,-2.1466,-2.2279,-2.1293,-2.0818,-2.071,-1.9716,-1.8793,-1.799,-1.799,-1.7527,-1.6646,-1.6646,-1.6652,-1.6652,-1.6652,-1.613,-1.5254,-1.5196,-1.462,-1.3695,-1.3583,-1.3583,-1.3632,-1.3526,-1.3123,-1.2313,-1.1359,-1.0859,-1.0912,-1.1733,-1.1802,-1.1184,-1.0677,-0.9491,-0.7625,-0.6064,-0.5598,-0.6153,-0.6155,-0.7273,-0.9679,-0.9791,-1.001,-1.0683,-1.0735,-1.0683,-1.0679,-1.0739,-1.0735,-1.0735,-1.0126,-1.01,-1.0733,-1.0241,-1.0144,-1.0525,-1.0144,-0.961,-0.905,-0.8548,-0.8179,-0.7551,-0.634,-0.5332,-0.4812,-0.3271,-0.1878,-0.0822,0.1174,0.2641,0.3578,0.4517,0.5061,0.5037,0.4982,0.499,0.497,0.5034,0.4914,0.4974,0.4976,0.4693,0.3872,0.3579,0.405,0.481,0.5105,0.5105,0.5047,0.5694,0.6224,0.6282,0.7103,0.737,0.7495,0.7481,0.7452,0.7406,0.7382,0.744,0.738,0.7348,0.7305,0.7292,0.7254,0.7127,-2.6367,-2.6153,-2.5044,-2.4455,-2.4222,-2.32,-2.2792,-2.2686,-2.2029,-2.1762,-2.1754,-2.1754,-2.1754,-2.1754,-2.1754,-2.0914,-1.9468,-1.9468,-1.8553,0.0,-1.6912,-1.6906,-1.6912,-1.6969,-1.6799,-1.6573,-1.6517,-1.6404,-1.6178,-1.6121,-1.6116,-1.6121,-1.6116,-1.537,-1.3925,-1.215,-1.1293,-1.1567,-1.3076,-1.3757,-1.3536,-1.2547,-1.1442,-1.0177,-0.7141,-0.6057,-0.7212,-0.6932,-0.7961,-1.0489,-1.0632,-1.0782,-1.1049,-1.1091,-1.1003,-1.0982,-1.0597,-1.0439,-1.0489,-1.017,-1.012,-1.0317,-1.0595,-1.0442,-0.9685,-0.9075,-0.8734,-0.8702,-0.7961,-0.6914,-0.5854,-0.5521,-0.4961,-0.3881,-0.3661,-0.3035,-0.1491,-0.0803,0.0057,0.1548,0.1943,0.2244,0.2386,0.2276,0.2345,0.2133,0.2606,0.214,0.2306,0.1628,0.1432,0.1657,0.1714,0.1829,0.2466,0.223,0.2464,0.2114,0.3494,0.4363,0.4305,0.5397,0.6134,0.6506,0.6215,0.6433,0.6809,0.6935,0.6971,0.7302,0.7238,0.7185,0.718,0.7113,0.6989,-2.5103,-2.4204,-2.3979,-2.3239,-2.2281,-2.2056,-2.1999,-2.1943,0.0,0.0,0.0,-2.1754,-2.1754,-2.1754,-2.1754,-2.1594,-2.1314,-2.1306,-2.1082,-2.0794,-2.0794,-2.0745,-2.0738,-2.0745,-2.0016,-1.8553,-1.8511,-1.7708,-1.6172,-1.6116,-1.6116,-1.6116,-1.6116,-1.5898,-1.5468,-1.363,-1.332,-1.4659,-1.5054,-1.455,-1.3162,-1.294,-1.2148,-1.0755,-0.8128,-0.7344,-0.865,-0.6695,-0.7398,-1.131,-1.133,-1.2006,-1.3842,-1.3834,-1.3542,-1.3145,-1.1202,-1.0216,-1.0588,-0.8661,-0.784,-0.8709,-0.9703,-0.943,-0.75,-0.7997,-0.8497,-0.8607,-0.8322,-0.7738,-0.6859,-0.5839,-0.4822,-0.3649,-0.3637,-0.3605,-0.3147,-0.1832,-0.0743,-0.0172,0.1085,0.2117,0.195,0.1894,0.2127,0.2017,0.1734,0.2133,0.1728,-0.0574,-0.1768,-0.0513,-0.0228,0.0286,0.16,0.194,0.2114,0.1824,0.2225,0.2629,0.2629,0.2858,0.3013,0.3258,0.2913,0.3511,0.4575,0.4845,0.5381,0.676,0.707,0.7002,0.7002,0.6984,0.6854,-2.3271,0.0,-2.2713,-2.2377,0.0,-2.1754,-2.1565,-2.1289,-2.1289,-2.1297,-2.1297,-2.1289,-2.1289,-2.1297,-2.1289,-2.1289,-2.1297,-2.1289,-2.1242,-2.1289,-2.1297,-2.1234,-2.1289,-2.1289,-2.0805,-1.9929,-1.9929,-1.9428,-1.8543,-1.8481,-1.8488,-1.8481,-1.8488,-1.8023,-1.7115,-1.6177,-1.54,-1.4839,-1.5847,-1.5937,-1.5125,-1.5076,-1.4469,-1.3174,0.0,0.0,0.0,0.0,0.0,0.0,0.0,0.0,0.0,0.0,0.0,-1.4132,-1.2989,-1.2369,-1.2579,-1.1497,-1.0376,-0.9616,-1.0056,-0.9925,-0.873,-0.7976,-0.815,-0.9415,-0.8326,-0.7149,-0.6102,-0.551,-0.468,-0.3554,-0.3551,-0.3586,-0.3535,-0.2724,-0.2178,-0.2011,-0.1339,-0.0728,-0.0677,-0.0734,-0.0737,-0.08,-0.0801,-0.0859,-0.1028,-0.2428,-0.3354,-0.2347,-0.2179,-0.1732,-0.0893,-0.0725,-0.0781,-0.0558,0.0056,0.0558,0.067,0.1339,0.1949,0.1879,0.1819,0.2036,0.2836,0.2995,0.3539,0.5117,0.5609,0.542,0.4579,0.446,0.4405,-2.1557,-2.1565,-2.162,-2.1565,-2.162,-2.2056,-2.1671,-2.0829,-2.072,-2.0681,-2.0681,-2.0618,-2.0586,-2.0639,-2.0639,-2.0647,-2.0586,-2.0639,-2.0647,-2.0647,-2.0578,-2.0639,-2.0639,-2.0639,-2.0639,-2.0639,-2.0586,-2.0639,-2.0639,-2.0639,-2.0586,-2.0639,-2.0586,-1.9952,-1.8613,0.0,0.0,0.0,-1.6768,-1.7411,-1.709,-1.7038,-1.6502,-1.5429,-1.3299,0.0,-1.1973,-1.1559,-1.1847,-1.3186,-1.3287,0.0,0.0,0.0,0.0,0.0,0.0,0.0,0.0,0.0,0.0,0.0,-1.1065,-1.0832,-0.9915,-0.8265,-0.8298,-1.0582,-0.838,-0.6494,-0.5844,-0.5385,-0.4556,-0.3469,-0.3355,-0.3437,-0.3491,-0.3491,-0.3527,-0.3473,-0.3483,-0.3454,-0.333,-0.3505,-0.3466,-0.3391,-0.3632,-0.3688,-0.3514,-0.3439,-0.3493,-0.3489,-0.3389,-0.3437,-0.3489,-0.3329,-0.3117,-0.338,-0.218,-0.1364,-0.1201,-0.0164,0.0709,0.06,0.0763,0.0763,0.1199,0.125,0.1788,0.3466,0.3833,0.3476,0.2239,0.1967,0.1966,-2.0964,-2.091,-2.0918,-2.0918,-2.1071,-2.2971,-2.2653,-2.076,-2.0423,-2.0297,-2.0274,-2.0069,-1.9943,-1.9935,-1.9994,-1.9935,-1.9935,-1.9935,-1.9986,-1.9935,-1.9935,-1.9935,-1.9935,-1.9994,-1.9935,-1.9935,-1.9935,-1.9935,-1.9935,-1.9935,-1.9943,-1.9935,-1.9935,-1.9833,-1.9629,-1.9629,-1.9452,-1.9108,-1.9154,-1.8404,-1.6989,-1.6697,-1.6219,-1.5457,-1.3078,-1.2203,-1.3069,-1.1012,-1.1137,-1.4002,-1.4336,-1.541,-1.7572,-1.7807,-1.773,0.0,-1.5321,0.0,0.0,0.0,0.0,0.0,0.0,0.0,0.0,-0.8401,-0.9809,-1.1731,-0.8728,-0.7113,-0.8349,-0.6412,-0.4607,-0.3469,-0.3319,-0.3324,-0.3326,-0.3429,-0.3518,-0.352,-0.3511,-0.349,-0.3497,-0.3501,-0.3501,-0.3513,-0.3515,-0.3515,-0.3513,-0.3499,-0.3486,-0.3489,-0.3489,-0.3489,-0.3489,-0.3487,-0.3486,-0.3487,-0.3156,-0.3162,-0.3047,-0.2829,-0.2723,-0.2722,-0.2555,-0.2177,-0.0708,-0.043,0.0107,0.1705,0.2104,0.2028,0.1757,0.1651,0.1966,-2.4454,-2.4445,-2.4445,-2.4132,-2.3579,-2.3425,-2.2774,-2.1786,-2.0512,-1.9986,-1.9978,-1.9871,-1.98,-1.98,-1.98,-1.98,-1.98,-1.98,-1.98,-1.98,-1.98,-1.98,-1.98,-1.98,-1.98,-1.98,-1.98,-1.98,-1.98,-1.98,-1.98,-1.98,-1.98,-1.961,-1.9189,-1.9181,-1.912,-1.9058,-1.8953,-1.8459,-1.7614,-1.713,-1.6832,-1.6459,-1.5131,-1.4537,-1.4914,-1.3833,-1.3905,-1.5333,-1.5513,-1.6347,-1.7949,-1.785,-1.7814,0.0,0.0,0.0,0.0,0.0,0.0,0.0,0.0,0.0,0.0,0.0,-1.249,-1.0892,-0.7948,-0.7025,-0.8945,-0.707,-0.5475,-0.4971,-0.5014,-0.459,-0.342,-0.3318,-0.3403,-0.3405,-0.3427,-0.3391,-0.3392,-0.3473,-0.3493,-0.3493,-0.3466,-0.3413,-0.3524,-0.3514,-0.3505,-0.3485,-0.3489,-0.3489,-0.3489,-0.3516,-0.3493,-0.3491,-0.3466,-0.3391,-0.3391,-0.3391,-0.3392,-0.3391,-0.3392,-0.3073,-0.2383,-0.2156,-0.1623,-0.0313,-0.0256,-0.0806,-0.0855,-0.0854,-0.0855,-2.7053,-2.7104,-2.829,-2.8017,-2.6716,-2.4985,-2.3946,-2.3335,-2.18,-2.1123,-2.1114,-2.1021,-2.0987,-2.0978,-2.0987,-2.0737,-2.0288,-2.0288,-2.0047,-1.9555,-1.9555,-1.9555,-1.9555,-1.9555,-1.9555,-1.9563,-1.9555,-1.9563,-1.9555,-1.9555,-1.9555,-1.9555,-1.9555,-1.9236,-1.8683,-1.866,-1.86,-1.8514,-1.8514,-1.8427,-1.8153,-1.774,-1.7442,-1.7373,-1.6903,-1.6502,-1.6172,-1.6158,-1.6156,-1.6163,-1.6465,-1.6909,-1.7594,-1.7266,0.0,0.0,0.0,0.0,0.0,0.0,0.0,0.0,0.0,-1.444,-1.3363,0.0,-1.4038,0.0,-0.7578,-0.7266,-0.9191,-0.7894,0.0,0.0,-0.6771,-0.6301,-0.426,-0.402,-0.3805,-0.3344,-0.3305,-0.3312,-0.3312,-0.3405,-0.3429,-0.3466,-0.3386,-0.3344,-0.3429,-0.346,-0.3449,-0.3434,-0.3442,-0.3448,-0.3441,-0.3461,-0.3433,-0.3433,-0.3396,-0.3312,-0.3312,-0.3312,-0.3312,-0.3312,-0.3312,-0.3312,-0.3265,-0.3301,-0.2776,-0.1736,-0.2253,-0.3094,-0.3094,-0.3046,-0.3046,-2.5975,-2.6374,-3.0865,-3.1502,-2.9602,-2.895,-2.7497,-2.5592,-2.5045,-2.4823,-2.4802,-2.4432,-2.4286,-2.4286,-2.4333,0.0,-2.1623,-2.1632,-2.0597,-1.8746,-1.8754,-1.8746,-1.8746,-1.8754,-1.8746,-1.8754,-1.8746,-1.8754,-1.8754,-1.8802,-1.8746,-1.8746,-1.8746,-1.8723,-1.8675,-1.8708,-1.8635,-1.8659,-1.8667,-1.8573,-1.8469,-1.8131,-1.7894,-1.7698,-1.7144,-1.6694,-1.6301,-1.6335,-1.608,-1.5666,-1.6744,-1.725,-1.6828,0.0,0.0,0.0,0.0,0.0,0.0,0.0,0.0,0.0,0.0,0.0,0.0,0.0,0.0,0.0,-0.833,0.0,-0.959,-0.9095,0.0,0.0,0.0,-0.8282,-0.6181,-0.6136,-0.5454,-0.349,0.0,0.0,-0.3312,0.0,-0.3301,-0.3302,-0.3336,-0.3315,-0.3324,-0.3378,-0.332,-0.3591,-0.3382,-0.338,-0.3755,-0.3694,-0.3738,-0.3734,-0.3316,-0.3409,-0.3306,-0.3306,-0.3311,-0.3306,-0.3311,-0.331,-0.3311,-0.3266,-0.3221,-0.2923,-0.3003,-0.3094,-0.3094,-0.3094,-0.3094,-2.962,-2.8703,-3.0671,-3.0989,-3.0008,-2.8337,-2.7141,-2.6207,-2.4694,-2.3985,-2.3964,-2.3823,-2.3786,-2.374,-2.374,0.0,0.0,0.0,-2.1971,-1.9967,-2.035,-1.9889,-1.8715,-1.866,-1.866,-1.866,-1.866,-1.866,-1.866,-1.866,-1.9685,-2.1793,0.0,0.0,-2.2244,-2.1113,-2.0549,-2.0502,-1.9323,-1.8634,-1.8573,-1.8468,-1.8076,-1.7357,-1.6528,-1.5993,-1.5866,-1.5692,-1.5829,-1.6263,-1.7357,-1.813,0.0,0.0,0.0,0.0,0.0,0.0,0.0,0.0,0.0,0.0,0.0,-1.3849,-1.3067,0.0,0.0,0.0,-1.1602,-1.1779,-1.2475,-1.1346,0.0,0.0,0.0,0.0,0.0,0.0,0.0,-0.6818,-0.5742,-0.5054,-0.5054,-0.3933,-0.3073,-0.3172,-0.3215,-0.3695,-0.4995,0.0,-0.5618,-0.686,-0.7074,-0.7074,-0.7074,-0.7074,-0.7049,-0.7077,-0.5998,-0.4758,-0.346,-0.316,-0.316,-0.321,-0.321,-0.316,-0.3159,-0.3193,-0.3169,-0.3099,-0.3094,-0.3094,-0.3094,-0.3094,-0.3094,-3.3151,0.0,0.0,0.0,0.0,-2.92,-2.8156,-2.7601,-2.589,-2.5195,-2.5195,-2.5184,0.0,0.0,0.0,0.0,0.0,0.0,-2.3405,-2.1509,-2.1931,-2.1382,-1.9908,-1.939,-1.9163,-1.9171,-1.8748,-1.8748,-1.9171,-1.9672,-2.1207,-2.3653,0.0,0.0,0.0,0.0,-2.1602,-2.1713,-2.0311,-1.9562,-1.9506,-2.0137,-1.9976,-1.9051,-1.7484,-1.6308,-1.5698,-1.6004,-1.6406,-1.6924,-1.8316,0.0,0.0,0.0,0.0,0.0,0.0,0.0,0.0,0.0,0.0,0.0,0.0,0.0,0.0,0.0,0.0,0.0,0.0,0.0,-1.396,-1.2881,-1.1955,0.0,0.0,0.0,0.0,0.0,0.0,0.0,0.0,0.0,-0.7601,-0.5954,-0.4659,0.0,0.0,-0.5368,-0.6934,-0.7144,-0.7676,-0.9222,0.0,0.0,0.0,-0.9447,-0.9459,-0.9488,-0.819,-0.6654,-0.5146,-0.3925,-0.3289,-0.3926,-0.3484,-0.3094,-0.3094,-0.3094,-0.3094,-0.3094,-0.3094,-0.3094,-0.3094,-0.3094,-0.3094,0.0,0.0,0.0,0.0,0.0,0.0,0.0,0.0,-3.0019,-2.9863,0.0,-2.9836,0.0,0.0,0.0,0.0,0.0,-2.5954,0.0,0.0,-2.3118,-2.3029,-2.2826,-2.1177,-2.0358,-2.0286,-1.9007,-1.9075,-2.0394,-2.2125,0.0,0.0,0.0,0.0,0.0,0.0,-2.114,-2.1837,-2.1713,-2.1674,-2.1722,-2.3513,-2.4173,-2.356,-2.0809,-1.8288,-1.613,-1.7611,-1.8236,-1.753,-1.9763,0.0,0.0,0.0,0.0,0.0,0.0,0.0,0.0,0.0,0.0,0.0,0.0,0.0,0.0,0.0,0.0,0.0,0.0,0.0,0.0,-1.3248,0.0,0.0,0.0,0.0,0.0,0.0,0.0,0.0,0.0,0.0,-1.0866,-0.9756,-0.8641,-0.8351,0.0,0.0,0.0,0.0,-0.8964,-0.937,-0.9345,-0.9393,-0.9393,-0.9397,-0.9442,-0.9385,0.0,0.0,-0.9134,-0.5829,-0.3827,-0.5728,-0.4413,-0.3094,-0.3191,-0.3332,-0.3285,-0.3286,-0.3334,-0.3142,-0.3142,-0.3527,-0.3434,0.0,0.0,0.0,0.0,0.0,0.0,0.0,0.0,0.0,-2.8417,0.0,-2.798,0.0,0.0,0.0,0.0,0.0,0.0,0.0,0.0,-2.4348,-2.4017,-2.3122,-2.2498,-2.2195,0.0,-2.1713,-2.1661,0.0,0.0,0.0,0.0,0.0,0.0,0.0,0.0,-2.4844,-2.5016,-2.4161,-2.3702,-2.3702,-2.4362,-2.4456,-2.3938,-2.2898,-2.1529,-1.9799,-1.9535,-1.926,0.0,0.0,0.0,0.0,0.0,0.0,0.0,0.0,0.0,0.0,0.0,0.0,0.0,0.0,0.0,0.0,0.0,0.0,0.0,0.0,0.0,0.0,0.0,-1.2526,0.0,0.0,0.0,0.0,0.0,0.0,0.0,0.0,0.0,-1.1362,-0.9809,-0.863,-0.875,-0.8681,-0.9142,-1.0746,0.0,0.0,0.0,0.0,0.0,0.0,0.0,-1.3125,-1.3173,-1.2155,-1.1385,-1.1385,-0.7923,-0.5342,-0.607,0.0,0.0,-0.6462,-0.6756,-0.6727,-0.6908,-0.6926,-0.6848,-0.6668,-0.6926,-0.7115,0.0,0.0,0.0,0.0,0.0,0.0,0.0,0.0,0.0,-2.8902,-2.8834,0.0,0.0,0.0,0.0,0.0,0.0,0.0,0.0,0.0,0.0,0.0,-2.3959,-2.3375,0.0,0.0,0.0,0.0,0.0,0.0,0.0,0.0,0.0,0.0,0.0,0.0,-2.6486,-2.6779,-2.5865,-2.5526,-2.5736,-2.6392,-2.6361,-2.5718,-2.4881,-2.3873,-2.2738,0.0,0.0,0.0,0.0,0.0,0.0,0.0,0.0,0.0,0.0,0.0,0.0,0.0,0.0,0.0,0.0,0.0,0.0,0.0,0.0,0.0,0.0,0.0,0.0,0.0,-1.2102,0.0,0.0,0.0,0.0,0.0,0.0,0.0,0.0,0.0,0.0,0.0,-1.0429,-1.0554,-1.0538,-1.1098,-1.2698,-1.2902,-1.3394,0.0,0.0,0.0,0.0,0.0,0.0,0.0,0.0,0.0,0.0,0.0,0.0,0.0,0.0,-0.5748,-0.8311,-0.8666,-0.8624,-0.8786,0.0,0.0,0.0,0.0,0.0,0.0,0.0,0.0,0.0,0.0,0.0,0.0,0.0,0.0,0.0,0.0,0.0,0.0,-3.1249,0.0,0.0,0.0,0.0,0.0,0.0,0.0,0.0,0.0,0.0,0.0,0.0,0.0,0.0,0.0,0.0,0.0,0.0,0.0,0.0,0.0,0.0,0.0,-2.6845,-2.6835,-2.7149,-2.7804,-2.9649,-3.0026,-2.9006,-2.6767,-2.5197,-2.451,0.0,0.0,0.0,0.0,0.0,0.0,0.0,0.0,0.0,0.0,0.0,0.0,0.0,0.0,0.0,0.0,0.0,0.0,0.0,0.0,0.0,0.0,0.0,0.0,0.0,0.0,-1.1758,-1.2267,-1.2598,0.0,0.0,0.0,0.0,0.0,0.0,0.0,0.0,0.0,0.0,-1.4379,-1.4787,-1.4807,-1.5038,-1.5216,-1.5403,-1.5565,-1.5585,-1.5504,-1.5482,-1.5515,0.0,0.0,0.0,0.0,0.0,0.0,0.0,0.0,0.0,0.0,0.0,0.0,0.0,0.0,0.0,0.0,0.0,0.0,0.0,0.0,0.0,0.0,0.0,0.0,0.0,0.0,0.0,0.0,0.0,0.0,0.0,0.0,0.0,0.0,0.0,0.0,0.0,0.0,0.0,0.0,0.0,0.0,0.0,0.0,0.0,0.0,0.0,0.0,0.0,0.0,0.0,0.0,0.0,0.0,-2.7088,-2.7792,-2.7875,-2.8193,-2.8736,-2.8679,-2.8635,-2.8616,-2.7664,-2.6613,0.0,0.0,0.0,0.0,0.0,0.0,0.0,0.0,0.0,0.0,0.0,0.0,0.0,0.0,0.0,0.0,0.0,0.0,0.0,0.0,0.0,0.0,0.0,0.0,0.0,0.0,0.0,0.0,-1.2447,-1.2058,-1.2345,0.0,0.0,0.0,0.0,0.0,0.0,0.0,0.0,0.0,0.0,-1.5667,-1.6331,-1.6563,-1.6093,-1.4545,-1.5932,-1.66,-1.4976,-1.4893,-1.5031,-1.5031,0.0,0.0,0.0,0.0,0.0,0.0,0.0,0.0,0.0,0.0,0.0,0.0,0.0,0.0,0.0,0.0,0.0,0.0,0.0,0.0,0.0,0.0,0.0,0.0,0.0,0.0,0.0,0.0,0.0,0.0,0.0,0.0,0.0,0.0,0.0,0.0,0.0,0.0,0.0,0.0,0.0,0.0,0.0,0.0,0.0,0.0,0.0,0.0,0.0,0.0,0.0,0.0,0.0,-2.7566,-2.8713,-2.8437,-2.8593,-2.9117,-2.8637,-2.8317,-2.8318,-2.7743,-2.7344,0.0,0.0,0.0,0.0,0.0,0.0,0.0,0.0,0.0,0.0,0.0,0.0,0.0,0.0,0.0,0.0,0.0,0.0,0.0,0.0,0.0,0.0,0.0,0.0,0.0,0.0,0.0,0.0,-1.2043,-1.1669,-1.1966,0.0,0.0,0.0,0.0,0.0,0.0,0.0,0.0,0.0,0.0,-1.6236,-1.6983,-1.7268,0.0,0.0,-1.6794,-1.7804,-1.4973,-1.5276,-1.5575,-1.4911,-1.4768,0.0,0.0,0.0,0.0,0.0,0.0,0.0,0.0,0.0,0.0,0.0,0.0,0.0,0.0,0.0,0.0,0.0,0.0,0.0,0.0,0.0,0.0,0.0,0.0,0.0,0.0,0.0,0.0,0.0,0.0,0.0,0.0,0.0,0.0,0.0,0.0,0.0,0.0,0.0,0.0,0.0,0.0,0.0,0.0,0.0,0.0,0.0,0.0,0.0,0.0,0.0,0.0,0.0,-2.9234,-2.8491,-2.8369,-2.8987,-2.897,-2.8667,-2.8106,-2.7171,-2.7281,0.0,0.0,0.0,0.0,0.0,0.0,0.0,0.0,0.0,0.0,0.0,0.0,0.0,0.0,0.0,0.0,0.0,0.0,0.0,0.0,0.0,0.0,0.0,0.0,0.0,0.0,0.0,0.0,0.0,0.0,0.0,0.0,0.0,0.0,0.0,0.0,0.0,0.0,0.0,0.0,0.0,-1.6752,-1.7292,-1.7609,-1.7165,0.0,0.0,-1.9043,-1.5645,-1.6441,-1.6887,-1.5183,0.0,0.0,0.0,0.0,0.0,0.0,0.0,0.0,0.0,0.0,0.0,0.0,0.0,0.0,0.0,0.0,0.0,0.0,0.0,0.0,0.0,0.0,0.0,0.0,0.0,0.0,0.0,0.0,0.0,0.0,0.0,0.0,0.0,0.0,0.0,0.0,0.0,0.0,0.0,0.0,0.0,0.0,0.0,0.0,0.0,0.0,0.0,0.0,0.0,0.0,0.0,0.0,0.0,0.0,-2.719,-2.7077,-2.7313,-2.7801,-2.7175,-2.689,-2.7001,-2.6144,0.0,0.0,0.0,0.0,0.0,0.0,0.0,0.0,0.0,0.0,0.0,0.0,0.0,0.0,0.0,0.0,0.0,0.0,0.0,0.0,0.0,0.0,0.0,0.0,0.0,0.0,0.0,-1.4382,0.0,0.0,0.0,0.0,0.0,0.0,0.0,0.0,0.0,0.0,0.0,0.0,0.0,0.0,-1.9149,-2.0026,-2.0545,-2.0209,0.0,0.0,-2.0051,-1.8756,-1.7822,-1.7062,0.0,0.0,0.0,0.0,0.0,0.0,0.0,0.0,0.0,0.0,0.0,0.0,0.0,0.0,0.0,0.0,0.0,0.0,0.0,0.0,0.0,0.0,0.0,0.0,0.0,0.0,0.0,0.0,0.0,0.0,0.0,0.0,0.0,0.0,0.0,0.0,0.0,0.0,0.0,0.0,0.0,0.0,0.0,0.0,0.0,0.0,0.0,0.0,0.0,0.0,0.0,0.0,0.0,0.0,-2.6413,-2.6711,-2.6989,-2.7005,-2.6645,-2.6113,-2.6247,-2.715,-2.6478,-2.6662,0.0,0.0,0.0,0.0,0.0,0.0,0.0,0.0,0.0,0.0,0.0,0.0,0.0,0.0,0.0,0.0,0.0,0.0,0.0,0.0,0.0,0.0,0.0,0.0,0.0,0.0,0.0,0.0,0.0,0.0,0.0,0.0,0.0,0.0,0.0,0.0,0.0,0.0,0.0,0.0,0.0,0.0,-2.063,-2.0718,0.0,0.0,0.0,-2.0309,-1.822,0.0,0.0,0.0,0.0,0.0,0.0,0.0,0.0,0.0,0.0,0.0,0.0,0.0,0.0,0.0,0.0,0.0,0.0,0.0,0.0,0.0,0.0,0.0,0.0,0.0,0.0,0.0,0.0,0.0,0.0,0.0,0.0,0.0,0.0,0.0,0.0,0.0,0.0,0.0,0.0,0.0,0.0,0.0,0.0,0.0,0.0,0.0,0.0,0.0,0.0,0.0,0.0,0.0,0.0,0.0,0.0,0.0,-2.702,-2.7368,-2.7021,-2.5966,-2.594,-2.659,-2.8003,-2.7437,-2.8072,0.0,0.0,0.0,0.0,0.0,0.0,0.0,0.0,0.0,0.0,0.0,0.0,0.0,0.0,0.0,0.0,0.0,0.0,0.0,0.0,0.0,0.0,0.0,0.0,0.0,0.0,0.0,0.0,0.0,0.0,0.0,0.0,0.0,0.0,0.0,0.0,0.0,0.0,0.0,0.0,0.0,-1.8472,-2.0391,-1.9863,-1.9036,0.0,0.0,-2.0243,-1.6844,-1.6108,0.0,0.0,0.0,0.0,0.0,0.0,0.0,0.0,0.0,0.0,0.0,0.0,0.0,0.0,0.0,0.0,0.0,0.0,0.0,0.0,0.0,0.0,0.0,0.0,0.0,0.0,0.0,0.0,0.0,0.0,0.0,0.0,0.0,0.0,0.0,0.0,0.0,0.0,0.0,0.0,0.0,0.0,0.0,0.0,0.0,0.0,0.0,0.0,0.0,0.0,0.0,0.0,0.0,0.0,0.0,0.0,-2.6983,-2.6394,-2.6462,-2.7311,-2.7387,-2.8093,-2.9569,-2.7561,-2.7345,0.0,0.0,0.0,0.0,0.0,0.0,0.0,0.0,0.0,0.0,0.0,0.0,0.0,0.0,0.0,0.0,0.0,0.0,0.0,0.0,0.0,0.0,0.0,0.0,0.0,0.0,0.0,0.0,0.0,0.0,0.0,0.0,0.0,0.0,0.0,0.0,0.0,0.0,0.0,0.0,0.0,-2.1016,-2.1836,-2.1805,0.0,0.0,0.0,0.0,-2.1442,-1.9308,0.0,0.0,0.0,0.0,0.0,0.0,0.0,0.0,0.0,0.0,0.0,0.0,0.0,0.0,0.0,0.0,0.0,0.0,0.0,0.0,0.0,0.0,0.0,0.0,0.0,0.0,0.0,0.0,0.0,0.0,0.0,0.0,0.0,0.0,0.0,0.0,0.0,0.0,0.0,0.0,0.0,0.0,0.0,0.0,0.0,0.0,0.0,0.0,0.0,0.0,0.0,0.0,0.0,0.0,0.0,0.0,-2.6724,-2.6834,-2.7356,-2.8056,-2.8041,-2.8631,-2.9799,-2.8567,-2.8294,0.0,0.0,0.0,0.0,0.0,0.0,0.0,0.0,0.0,0.0,0.0,0.0,0.0,0.0,0.0,0.0,0.0,0.0,0.0,0.0,0.0,0.0,0.0,0.0,0.0,0.0,0.0,0.0,0.0,0.0,0.0,0.0,0.0,0.0,0.0,0.0,0.0,0.0,0.0,0.0,-2.0909,-2.0817,-2.1838,0.0,0.0,0.0,0.0,0.0,0.0,-1.8682,-1.7017,0.0,0.0,0.0,0.0,0.0,0.0,0.0,0.0,0.0,0.0,0.0,0.0,0.0,0.0,0.0,0.0,0.0,0.0,0.0,0.0,0.0,0.0,0.0,0.0,0.0,0.0,0.0,0.0,0.0,0.0,0.0,0.0,0.0,0.0,0.0,0.0,0.0,0.0,0.0,0.0,0.0,0.0,0.0,0.0,0.0,0.0,0.0,0.0,0.0,0.0,0.0,0.0,0.0,0.0,0.0,-2.7,-2.7875,-2.8502,-2.873,-2.8636,-2.9005,-2.9823,-2.944,-2.9199,-2.9081,0.0,0.0,0.0,0.0,0.0,0.0,0.0,0.0,0.0,0.0,0.0,0.0,0.0,0.0,0.0,0.0,0.0,0.0,0.0,0.0,0.0,0.0,0.0,0.0,0.0,0.0,0.0,0.0,0.0,0.0,0.0,0.0,0.0,0.0,0.0,0.0,0.0,0.0,0.0,-2.0472,-2.0118,0.0,0.0,0.0,0.0,0.0,0.0,0.0,0.0,-1.5843,0.0,0.0,0.0,0.0,0.0,0.0,0.0,0.0,0.0,0.0,0.0,0.0,0.0,0.0,0.0,0.0,0.0,0.0,0.0,0.0,0.0,0.0,0.0,0.0,0.0,0.0,0.0,0.0,0.0,0.0,0.0,0.0,0.0,0.0,0.0,0.0,0.0,0.0,0.0,0.0,0.0,0.0,0.0,0.0,0.0,0.0,0.0,0.0,0.0,0.0,0.0,0.0,0.0,0.0,0.0,0.0,-2.8953,-2.9007,-3.0264,-2.9704,-2.999,-3.1267,-2.9007,-2.7951,-2.8353,0.0,0.0,0.0,0.0,0.0,0.0,0.0,0.0,0.0,0.0,0.0,0.0,0.0,0.0,0.0,0.0,0.0,0.0,0.0,0.0,0.0,0.0,0.0,0.0,0.0,0.0,0.0,0.0,0.0,0.0,0.0,0.0,0.0,0.0,0.0,0.0,0.0,0.0,-2.1504,-2.1381,0.0,0.0,0.0,0.0,0.0,0.0,0.0,0.0,-1.8632,0.0,0.0,0.0,0.0,0.0,0.0,0.0,0.0,0.0,0.0,0.0,0.0,0.0,0.0,0.0,0.0,0.0,0.0,0.0,0.0,0.0,0.0,0.0,0.0,0.0,0.0,0.0,0.0,0.0,0.0,0.0,0.0,0.0,0.0,0.0,0.0,0.0,0.0,0.0,0.0,0.0,0.0,0.0,0.0,0.0,0.0,0.0,0.0,0.0,0.0,0.0,0.0,0.0,0.0,0.0,0.0,0.0,0.0,-3.0133,-3.1163,-3.0884,-3.059,-3.0416,-2.8747,-2.7937,0.0,0.0,0.0,0.0,0.0,0.0,0.0,0.0,0.0,0.0,0.0,0.0,0.0,0.0,0.0,0.0,0.0,0.0,0.0,0.0,0.0,0.0,0.0,0.0,0.0,0.0,0.0,0.0,0.0,0.0,0.0,0.0,0.0,0.0,0.0,0.0,0.0,0.0,0.0,0.0,0.0,0.0,0.0,0.0,0.0,0.0,0.0,0.0,0.0,0.0,0.0,0.0,0.0,0.0,0.0,0.0,0.0,0.0,0.0,0.0,0.0,0.0,0.0,0.0,0.0,0.0,0.0,0.0,0.0,0.0,0.0,0.0,0.0,0.0,0.0,0.0,0.0,0.0,0.0,0.0,0.0,0.0,0.0,0.0,0.0,0.0,0.0,0.0,0.0,0.0,0.0,0.0,0.0,0.0,0.0,0.0,0.0,0.0,0.0,0.0,0.0,0.0,0.0,0.0,0.0,0.0,0.0,0.0,-3.1525,-3.1679,-3.1548,-3.0782,-2.9374,-2.8578,-2.8284,0.0,0.0,0.0,0.0,0.0,0.0,0.0,0.0,0.0,0.0,0.0,0.0,0.0,0.0,0.0,0.0,0.0,0.0,0.0,0.0,0.0,0.0,0.0,0.0,0.0,0.0,0.0,0.0,0.0,0.0,0.0,0.0,0.0,0.0,0.0,0.0,0.0,0.0,0.0,0.0,0.0,0.0,0.0,0.0,0.0,0.0,0.0,0.0,-1.7079,0.0,0.0,0.0,0.0,0.0,0.0,0.0,0.0,0.0,0.0,0.0,0.0,0.0,0.0,0.0,0.0,0.0,0.0,0.0,0.0,0.0,0.0,0.0,0.0,0.0,0.0,0.0,0.0,0.0,0.0,0.0,0.0,0.0,0.0,0.0,0.0,0.0,0.0,0.0,0.0,0.0,0.0,0.0,0.0,0.0,0.0,0.0,0.0,0.0,0.0,0.0,0.0,0.0,0.0,0.0,0.0,0.0,0.0,0.0,-3.3034,-3.1712,-3.0996,-3.0211,-2.9374,-2.8607,-2.867,0.0,0.0,0.0,0.0,0.0,0.0,0.0,0.0,0.0,0.0,0.0,0.0,0.0,0.0,0.0,0.0,0.0,0.0,0.0,0.0,0.0,0.0,0.0,0.0,0.0,0.0,0.0,0.0,0.0,0.0,0.0,0.0,0.0,0.0,0.0,0.0,0.0,0.0,0.0,0.0,0.0,0.0,0.0,0.0,0.0,0.0,0.0,0.0,0.0,0.0,0.0,0.0,0.0,0.0,0.0,0.0,0.0,0.0,0.0,0.0,0.0,0.0,0.0,0.0,0.0,0.0,0.0,0.0,0.0,0.0,0.0,0.0,0.0,0.0,0.0,0.0,0.0,0.0,0.0,0.0,0.0,0.0,0.0,0.0,0.0,0.0,0.0,0.0,0.0,0.0,0.0,0.0,0.0,0.0,0.0,0.0,0.0,0.0,0.0,0.0,0.0,0.0,0.0,0.0,0.0,0.0,0.0,0.0,-3.2548,-3.1049,-3.0675,-3.0276,-2.9703,-2.9362,-2.9434,0.0,0.0,0.0,0.0,0.0,0.0,0.0,0.0,0.0,0.0,0.0,0.0,0.0,0.0,0.0,0.0,0.0,0.0,0.0,0.0,0.0,0.0,0.0,0.0,0.0,0.0,0.0,0.0,0.0,0.0,0.0,0.0,0.0,0.0,0.0,0.0,0.0,0.0,0.0,0.0,0.0,0.0,0.0,0.0,0.0,0.0,0.0,0.0,0.0,0.0,0.0,0.0,0.0,0.0,0.0,0.0,0.0,0.0,0.0,0.0,0.0,0.0,0.0,0.0,0.0,0.0,0.0,0.0,0.0,0.0,0.0,0.0,0.0,0.0,0.0,0.0,0.0,0.0,0.0,0.0,0.0,0.0,0.0,0.0,0.0,0.0,0.0,0.0,0.0,0.0,0.0,0.0,0.0,0.0,0.0,0.0,0.0,0.0,0.0,0.0,0.0,0.0,0.0,0.0,0.0,0.0,0.0,0.0,0.0,-3.1055,-3.0965,-3.0641,-2.9993,-2.9974,-3.0237,0.0,0.0,0.0,0.0,0.0,0.0,0.0,0.0,0.0,0.0,0.0,0.0,0.0,0.0,0.0,0.0,0.0,0.0,0.0,0.0,0.0,0.0,0.0,0.0,0.0,0.0,0.0,0.0,0.0,0.0,0.0,0.0,0.0,0.0,0.0,0.0,0.0,0.0,0.0,0.0,0.0,0.0,0.0,0.0,0.0,0.0,0.0,0.0,0.0,0.0,0.0,0.0,0.0,0.0,0.0,0.0,0.0,0.0,0.0,0.0,0.0,0.0,0.0,0.0,0.0,0.0,0.0,0.0,0.0,0.0,0.0,0.0,0.0,0.0,0.0,0.0,0.0,0.0,0.0,0.0,0.0,0.0,0.0,0.0,0.0,0.0,0.0,0.0,0.0,0.0,0.0,0.0,0.0,0.0,0.0,0.0,0.0,0.0,0.0,0.0,0.0,0.0,0.0,0.0,0.0,0.0,0.0,0.0,0.0,-3.2179,-3.2172,-3.1443,-3.0002,-2.9955,-3.1004,0.0,0.0,0.0,0.0,0.0,0.0,0.0,0.0,0.0,0.0,0.0,0.0,0.0,0.0,0.0,0.0,0.0,0.0,0.0,0.0,0.0,0.0,0.0,0.0,0.0,0.0,0.0,0.0,0.0,0.0,0.0,0.0,0.0,0.0,0.0,0.0,0.0,0.0,0.0,0.0,0.0,0.0,0.0,0.0,0.0,0.0,0.0,0.0,0.0,0.0,0.0,0.0,0.0,0.0,0.0,0.0,0.0,0.0,0.0,0.0,0.0,0.0,0.0,0.0,0.0,0.0,0.0,0.0,0.0,0.0,0.0,0.0,0.0,0.0,0.0,0.0,0.0,0.0,0.0,0.0,0.0,0.0,0.0,0.0,0.0,0.0,0.0,0.0,0.0,0.0,0.0,0.0,0.0,0.0,0.0,0.0,0.0,0.0,0.0,0.0,0.0,0.0,0.0,0.0,0.0,0.0,0.0,0.0,0.0,-3.2297,-3.2265,-3.1514,-2.9993,-3.064,-3.1458,-3.2266,0.0,0.0,0.0,0.0,0.0,0.0,0.0,0.0,0.0,0.0,0.0,0.0,0.0,0.0,0.0,0.0,0.0,0.0,0.0,0.0,0.0,0.0,0.0,0.0,0.0,0.0,0.0,0.0,0.0,0.0,0.0,0.0,0.0,0.0,0.0,0.0,0.0,0.0,0.0,0.0,0.0,0.0,0.0,0.0,0.0,0.0,0.0,0.0,0.0,0.0,0.0,0.0,0.0,0.0,0.0,0.0,0.0,0.0,0.0,0.0,0.0,0.0,0.0,0.0,0.0,0.0,0.0,0.0,0.0,0.0,0.0,0.0,0.0,0.0,0.0,0.0,0.0,0.0,0.0,0.0,0.0,0.0,0.0,0.0,0.0,0.0,0.0,0.0,0.0,0.0,0.0,0.0,0.0,0.0,0.0,0.0,0.0,0.0,0.0,0.0,0.0,0.0,0.0,0.0,0.0,0.0,0.0,0.0,-3.2977,-3.3285,-3.2685,-3.1139,-3.1798,-3.2211,0.0,0.0,0.0,0.0,0.0,0.0,0.0,0.0,0.0,0.0,0.0,0.0,0.0,0.0,0.0,0.0,0.0,0.0,0.0,0.0,0.0,0.0,0.0,0.0,0.0,0.0,0.0,0.0,0.0,0.0,0.0,0.0,0.0,0.0,0.0,0.0,0.0,0.0,0.0,0.0,0.0,0.0,0.0,0.0,0.0,0.0,0.0,0.0,0.0,0.0,0.0,0.0,0.0,0.0,0.0,0.0,0.0,0.0,0.0,0.0,0.0,0.0,0.0,0.0,0.0,0.0,0.0,0.0,0.0,0.0,0.0,0.0,0.0,0.0,0.0,0.0,0.0,0.0,0.0,0.0,0.0,0.0,0.0,0.0,0.0,0.0,0.0,0.0,0.0,0.0,0.0,0.0,0.0,0.0,0.0,0.0,0.0,0.0,0.0,0.0,0.0,0.0,0.0,0.0,0.0,0.0,0.0,0.0,0.0,-3.4473,-3.5486,-3.5083,-3.3441,-3.3296,-3.3329,0.0,0.0,0.0,0.0,0.0,0.0,0.0,0.0,0.0,0.0,0.0,0.0,0.0,0.0,0.0,0.0,0.0,0.0,0.0,0.0,0.0,0.0,0.0,0.0,0.0,0.0,0.0,0.0,0.0,0.0,0.0,0.0,0.0,0.0,0.0,0.0,0.0,0.0,0.0,0.0,0.0,0.0,0.0,0.0,0.0,0.0,0.0,0.0,0.0,0.0,0.0,0.0,0.0,0.0,0.0,0.0,0.0,0.0,0.0,0.0,0.0,0.0,0.0,0.0,0.0,0.0,0.0,0.0,0.0,0.0,0.0,0.0,0.0,0.0,0.0,0.0,0.0,0.0,0.0,0.0,0.0,0.0,0.0,0.0,0.0,0.0,0.0,0.0,0.0,0.0,0.0,0.0,0.0,0.0,0.0,0.0,0.0,0.0,0.0,0.0,0.0,0.0,0.0,0.0,0.0,0.0,0.0,0.0,0.0,-3.5881,0.0,-3.5067,0.0,-3.2232,-3.1901,0.0,0.0,0.0,0.0,0.0,0.0,0.0,0.0,0.0,0.0,0.0,0.0,0.0,0.0,0.0,0.0,0.0,0.0,0.0,0.0,0.0,0.0,0.0,0.0,0.0,0.0,0.0,0.0,0.0,0.0,0.0,0.0,0.0,0.0,0.0,0.0,0.0,0.0,0.0,0.0,0.0,0.0,0.0,0.0,0.0,0.0,0.0,0.0,0.0,0.0,0.0,0.0,0.0,0.0,0.0,0.0,0.0,0.0,0.0,0.0,0.0,0.0,0.0,0.0,0.0,0.0,0.0,0.0,0.0,0.0,0.0,0.0,0.0,0.0,0.0,0.0,0.0,0.0,0.0,0.0,0.0,0.0,0.0,0.0,0.0,0.0,0.0,0.0,0.0,0.0,0.0,0.0,0.0,0.0,0.0,0.0,0.0,0.0,0.0,0.0,0.0,0.0,0.0,0.0,0.0,0.0,0.0,0.0,0.0,-3.7196,-3.6773,-3.5193,0.0,-3.2106,-3.1414,0.0,0.0,0.0,0.0,0.0,0.0,0.0,0.0,0.0,0.0,0.0,0.0,0.0,0.0,0.0,0.0,0.0,0.0,0.0,0.0,0.0,0.0,0.0,0.0,0.0,0.0,0.0,0.0,0.0,0.0,0.0,0.0,0.0,0.0,0.0,0.0,0.0,0.0,0.0,0.0,0.0,0.0,0.0,0.0,0.0,0.0,0.0,0.0,0.0,0.0,0.0,0.0,0.0,0.0,0.0,0.0,0.0,0.0,0.0,0.0,0.0,0.0,0.0,0.0,0.0,0.0,0.0,0.0,0.0,0.0,0.0,0.0,0.0,0.0,0.0,0.0,0.0,0.0,0.0,0.0,0.0,0.0,0.0,0.0,0.0,0.0,0.0,0.0,0.0,0.0,0.0,0.0,0.0,0.0,0.0,0.0,0.0,0.0,0.0,0.0,0.0,0.0,0.0,0.0,0.0,0.0,0.0,0.0,0.0,0.0,-3.748,-3.5957,-3.4164,-3.3097,-3.1883,0.0,0.0,0.0,0.0,0.0,0.0,0.0,0.0,0.0,0.0,0.0,0.0,0.0,0.0,0.0,0.0,0.0,0.0,0.0,0.0,0.0,0.0,0.0,0.0,0.0,0.0,0.0,0.0,0.0,0.0,0.0,0.0,0.0,0.0,0.0,0.0,0.0,0.0,0.0,0.0,0.0,0.0,0.0,0.0,0.0,0.0,0.0,0.0,0.0,0.0,0.0,0.0,0.0,0.0,0.0,0.0,0.0,0.0,0.0,0.0,0.0,0.0,0.0,0.0,0.0,0.0,0.0,0.0,0.0,0.0,0.0,0.0,0.0,0.0,0.0,0.0,0.0,0.0,0.0,0.0,0.0,0.0,0.0,0.0,0.0,0.0,0.0,0.0,0.0,0.0,0.0,0.0,0.0,0.0,0.0,0.0,0.0,0.0,0.0,0.0,0.0,0.0,0.0,0.0,0.0,0.0,0.0,0.0,0.0,0.0,-4.0693,0.0,-3.7611,-3.4147,-3.1224,-2.911,0.0,0.0,0.0,0.0,0.0,0.0,0.0,0.0,0.0,0.0,0.0,0.0,0.0,0.0,0.0,0.0,0.0,0.0,0.0,0.0,0.0,0.0,0.0,0.0,0.0,0.0,0.0,0.0,0.0,0.0,0.0,0.0,0.0,0.0,0.0,0.0,0.0,0.0,0.0,0.0,0.0,0.0,0.0,0.0,0.0,0.0,0.0,0.0,0.0,0.0,0.0,0.0,0.0,0.0,0.0,0.0,0.0,0.0,0.0,0.0,0.0,0.0,0.0,0.0,0.0,0.0,0.0,0.0,0.0,0.0,0.0,0.0,0.0,0.0,0.0,0.0,0.0,0.0,0.0,0.0,0.0,0.0,0.0,0.0,0.0,0.0,0.0,0.0,0.0,0.0,0.0,0.0,0.0,0.0,0.0,0.0,0.0,0.0,0.0,0.0,0.0,0.0,0.0,0.0,0.0,0.0,0.0,0.0,0.0,0.0,0.0,-3.8541,-3.5009,-3.1825,0.0,0.0,0.0,0.0,0.0,0.0,0.0,0.0,0.0,0.0,0.0,0.0,0.0,0.0,0.0,0.0,0.0,0.0,0.0,0.0,0.0,0.0,0.0,0.0,0.0,0.0,0.0,0.0,0.0,0.0,0.0,0.0,0.0,0.0,0.0,0.0,0.0,0.0,0.0,0.0,0.0,0.0,0.0,0.0,0.0,0.0,0.0,0.0,0.0,0.0,0.0,0.0,0.0,0.0,0.0,0.0,0.0,0.0,0.0,0.0,0.0,0.0,0.0,0.0,0.0,0.0,0.0,0.0,0.0,0.0,0.0,0.0,0.0,0.0,0.0,0.0,0.0,0.0,0.0,0.0,0.0,0.0,0.0,0.0,0.0,0.0,0.0,0.0,0.0,0.0,0.0,0.0,0.0,0.0,0.0,0.0,0.0,0.0,0.0,0.0,0.0,0.0,0.0,0.0,0.0,0.0,0.0,0.0,0.0,0.0,0.0,-3.8931,-3.782,-3.5845,0.0,-3.0085,0.0,0.0,0.0,0.0,0.0,0.0,0.0,0.0,0.0,0.0,0.0,0.0,0.0,0.0,0.0,0.0,0.0,0.0,0.0,0.0,0.0,0.0,0.0,0.0,0.0,0.0,0.0,0.0,0.0,0.0,0.0,0.0,0.0,0.0,0.0,0.0,0.0,0.0,0.0,0.0,0.0,0.0,0.0,0.0,0.0,0.0,0.0,0.0,0.0,0.0,0.0,0.0,0.0,0.0,0.0,0.0,0.0,0.0,0.0,0.0,0.0,0.0,0.0,0.0,0.0,0.0,0.0,0.0,0.0,0.0,0.0,0.0,0.0,0.0,0.0,0.0,0.0,0.0,0.0,0.0,0.0,0.0,0.0,0.0,0.0,0.0,0.0,0.0,0.0,0.0,0.0,0.0,0.0,0.0,0.0,0.0,0.0,0.0,0.0,0.0,0.0,0.0,0.0,0.0,0.0,0.0,0.0,0.0,0.0,0.0,0.0,0.0,-3.7032,-3.4758,-3.1899,0.0,0.0,0.0,0.0,0.0,0.0,0.0,0.0,0.0,0.0,0.0,0.0,0.0,0.0,0.0,0.0,0.0,0.0,0.0,0.0,0.0,0.0,0.0,0.0,0.0,0.0,0.0,0.0,0.0,0.0,0.0,0.0,0.0,0.0,0.0,0.0,0.0,0.0,0.0,0.0,0.0,0.0,0.0,0.0,0.0,0.0,0.0,0.0,0.0,0.0,0.0,0.0,0.0,0.0,0.0,0.0,0.0,0.0,0.0,0.0,0.0,0.0,0.0,0.0,0.0,0.0,0.0,0.0,0.0,0.0,0.0,0.0,0.0,0.0,0.0,0.0,0.0,0.0,0.0,0.0,0.0,0.0,0.0,0.0,0.0,0.0,0.0,0.0,0.0,0.0,0.0,0.0,0.0,0.0,0.0,0.0,0.0,0.0,0.0,0.0,0.0,0.0,0.0,0.0,0.0,0.0,0.0,0.0,0.0,0.0,-4.0345,-3.7625,-3.5917,-3.4044,-3.2012,0.0,0.0,0.0,0.0,0.0,0.0,0.0,0.0,0.0,0.0,0.0,0.0,0.0,0.0,0.0,0.0,0.0,0.0,0.0,0.0,0.0,0.0,0.0,0.0,0.0,0.0,0.0,0.0,0.0,0.0,0.0,0.0,0.0,0.0,0.0,0.0,0.0,0.0,0.0,0.0,0.0,0.0,0.0,0.0,0.0,0.0,0.0,0.0,0.0,0.0,0.0,0.0,0.0,0.0,0.0,0.0,0.0,0.0,0.0,0.0,0.0,0.0,0.0,0.0,0.0,0.0,0.0,0.0,0.0,0.0,0.0,0.0,0.0,0.0,0.0,0.0,0.0,0.0,0.0,0.0,0.0,0.0,0.0,0.0,0.0,0.0,0.0,0.0,0.0,0.0,0.0,0.0,0.0,0.0,0.0,0.0,0.0,0.0,0.0,0.0,0.0,0.0,0.0,0.0,0.0,0.0,0.0,0.0,0.0,0.0,0.0,0.0,0.0,0.0,-3.1374,0.0,0.0,0.0,0.0,0.0,0.0,0.0,0.0,0.0,0.0,0.0,0.0,0.0,0.0,0.0,0.0,0.0,0.0,0.0,0.0,0.0,0.0,0.0,0.0,0.0,0.0,0.0,0.0,0.0,0.0,0.0,0.0,0.0,0.0,0.0,0.0,0.0,0.0,0.0,0.0,0.0,0.0,0.0,0.0,0.0,0.0,0.0,0.0,0.0,0.0,0.0,0.0,0.0,0.0,0.0,0.0,0.0,0.0,0.0,0.0,0.0,0.0,0.0,0.0,0.0,0.0,0.0,0.0,0.0,0.0,0.0,0.0,0.0,0.0,0.0,0.0,0.0,0.0,0.0,0.0,0.0,0.0,0.0,0.0,0.0,0.0,0.0,0.0,0.0,0.0,0.0,0.0,0.0,0.0,0.0,0.0,0.0,0.0,0.0,0.0,0.0,0.0,0.0,0.0,0.0,0.0,0.0,0.0,0.0,0.0,0.0,0.0,0.0,0.0,0.0,0.0,0.0,0.0,0.0,0.0,0.0,0.0,0.0,0.0,0.0,0.0,0.0,0.0,0.0,0.0,0.0,0.0,0.0,0.0,0.0,0.0,0.0,0.0,0.0,0.0,0.0,0.0,0.0,0.0,0.0,0.0,0.0,0.0,0.0,0.0,0.0,0.0,0.0,0.0,0.0,0.0,0.0,0.0,0.0,0.0,0.0,0.0,0.0,0.0,0.0,0.0,0.0,0.0,0.0,0.0,0.0,0.0,0.0,0.0,0.0,0.0,0.0,0.0,0.0,0.0,0.0,0.0,0.0,0.0,0.0,0.0,0.0,0.0,0.0,0.0,0.0,0.0,0.0,0.0,0.0,0.0,0.0,0.0,0.0,0.0,0.0,0.0,0.0,0.0,0.0,0.0,0.0,0.0,0.0,0.0,0.0,0.0,0.0,0.0,0.0,0.0,0.0,0.0,0.0,0.0,0.0,0.0,0.0,0.0,0.0,0.0,0.0,0.0,0.0,0.0,0.0,0.0,0.0,0.0,0.0,0.0,0.0,0.0,0.0,0.0,0.0,0.0,0.0,0.0,0.0,0.0,0.0,0.0,0.0,0.0,0.0,0.0,0.0,0.0,0.0,0.0,0.0,0.0,0.0,0.0,0.0,0.0,0.0,0.0,0.0,0.0,0.0,0.0,0.0,0.0,0.0,0.0,0.0,0.0,0.0,0.0,0.0,0.0,0.0,0.0,0.0,0.0,0.0,0.0,0.0,0.0,0.0,0.0,0.0,0.0,0.0,0.0,0.0,0.0,0.0,0.0,0.0,0.0,0.0,0.0,0.0,0.0,0.0,0.0,0.0,0.0,0.0,0.0,0.0,0.0,0.0,0.0,0.0,0.0,0.0,0.0,0.0,0.0,0.0,0.0,0.0,0.0,0.0,0.0,0.0,0.0,0.0,0.0,0.0,0.0,0.0,0.0,0.0,0.0,0.0,0.0,0.0,0.0,0.0,0.0,0.0,0.0,0.0,0.0,0.0,0.0,0.0,0.0,0.0,0.0,0.0,0.0,0.0,0.0,0.0,0.0,0.0,0.0,0.0,0.0,0.0,0.0,0.0,0.0,0.0,0.0,0.0,0.0,0.0,0.0,0.0,0.0,0.0,0.0,0.0,0.0,0.0,0.0,0.0,0.0,0.0,0.0,0.0,0.0,0.0,0.0,0.0,0.0,0.0,0.0,0.0,0.0,0.0,0.0,0.0,0.0,0.0,0.0,0.0,0.0,0.0,0.0,0.0,0.0,0.0,0.0,0.0,0.0,0.0,0.0,0.0,0.0,0.0,0.0,0.0,0.0,0.0,0.0,0.0,0.0,0.0,0.0,0.0,0.0,0.0,0.0,0.0,0.0,0.0,0.0,0.0,0.0,0.0,0.0,0.0,0.0,0.0,0.0,0.0,0.0,0.0,0.0,0.0,0.0,0.0,0.0,0.0,0.0,0.0,0.0,0.0,0.0,0.0,0.0,0.0,0.0,0.0,0.0,0.0,0.0,0.0,0.0,0.0,0.0,0.0,0.0,0.0,0.0,0.0,0.0,0.0,0.0,0.0,0.0,0.0,0.0,0.0,0.0,0.0,0.0,0.0,0.0,0.0,0.0,0.0,0.0,0.0,0.0,0.0,0.0,0.0,0.0,0.0,0.0,0.0,0.0,0.0,0.0,0.0,0.0,0.0,0.0,0.0,0.0,0.0,0.0,0.0,0.0,0.0,0.0,0.0,0.0,0.0,0.0,0.0,0.0,0.0,0.0,0.0,0.0,0.0,0.0,0.0,0.0,0.0,0.0,0.0,0.0,0.0,0.0,0.0,0.0,0.0,0.0,0.0,0.0,0.0,0.0,0.0,0.0,0.0,0.0,0.0,0.0,0.0,0.0,0.0,0.0,0.0,0.0,0.0,0.0,0.0,0.0,0.0,0.0,0.0,0.0,0.0,0.0,0.0,0.0,0.0,0.0,0.0,0.0,0.0,0.0,0.0,0.0,0.0,0.0,0.0,0.0,0.0,0.0,0.0,0.0,0.0,0.0,0.0,0.0,0.0,0.0,0.0,0.0,0.0,0.0,0.0,0.0,0.0,0.0,0.0,0.0,0.0,0.0,0.0,0.0,0.0,0.0,0.0,0.0,0.0,0.0,0.0,0.0,0.0,0.0,0.0,0.0,0.0,0.0,0.0,0.0,0.0,0.0,0.0,0.0,0.0,0.0,0.0,0.0,0.0,0.0,0.0,0.0,0.0,0.0,0.0,0.0,0.0,0.0,0.0,0.0,0.0,0.0,0.0,0.0,0.0,0.0,0.0,0.0,0.0,0.0,0.0,0.0,0.0,0.0,0.0,0.0,0.0,0.0,0.0,0.0,0.0,0.0,0.0,0.0,0.0,0.0,0.0,0.0,0.0,0.0,0.0,0.0,0.0,0.0,0.0,0.0,0.0,0.0,0.0,0.0,0.0,0.0,0.0,0.0,0.0,0.0,0.0,0.0,0.0,0.0,0.0,0.0,0.0,0.0,0.0,0.0,0.0,0.0,0.0,0.0,0.0,0.0,0.0,0.0,0.0,0.0,0.0,0.0,0.0,0.0,0.0,0.0,0.0,0.0,0.0,0.0,0.0,0.0,0.0,0.0,0.0,0.0,0.0,0.0,0.0,0.0,0.0,0.0,0.0,0.0,0.0,0.0,0.0,0.0,0.0,0.0,0.0,0.0,0.0,0.0,0.0,0.0,0.0,0.0,0.0,0.0,0.0,0.0,0.0,0.0,0.0,0.0,0.0,0.0,0.0,0.0,0.0,0.0,0.0,0.0,0.0,0.0,0.0,0.0,0.0,0.0,0.0,0.0,0.0,0.0,0.0,0.0,0.0,0.0,0.0,0.0,0.0,0.0,0.0,0.0,0.0,0.0,0.0,0.0,0.0,0.0,0.0,0.0,0.0,0.0,0.0,0.0,0.0,0.0,0.0,0.0,0.0,0.0,0.0,0.0,0.0,0.0,0.0,0.0,0.0,0.0,0.0,0.0,0.0,0.0,0.0,0.0,0.0,0.0,0.0,0.0,0.0,0.0,0.0,0.0,0.0,0.0,0.0,0.0,0.0,0.0,0.0,0.0,0.0,0.0,0.0,0.0,0.0,0.0,0.0,0.0,0.0,0.0,0.0,0.0,0.0,0.0,0.0,0.0,0.0,0.0,0.0,0.0,0.0,0.0,0.0,0.0,0.0,0.0,0.0,0.0,0.0,0.0,0.0,0.0,0.0,0.0,0.0,0.0,0.0,0.0,0.0,0.0,0.0,0.0,0.0,0.0,0.0,0.0,0.0,0.0,0.0,0.0,0.0,0.0,0.0,0.0,0.0,0.0,0.0,0.0,0.0,0.0,0.0,0.0,0.0,0.0,0.0,0.0,0.0,0.0,0.0,0.0,0.0,0.0,0.0,0.0,0.0,0.0,0.0,0.0,0.0,0.0,0.0,0.0,0.0,0.0,0.0,0.0,0.0,0.0,0.0,0.0,0.0,0.0,0.0,0.0,0.0,0.0,0.0,0.0,0.0,0.0,0.0,0.0,0.0,0.0,0.0,0.0,0.0,0.0,0.0,0.0,0.0,0.0,0.0,0.0,0.0,0.0,0.0,0.0,0.0,0.0,0.0,0.0,0.0,0.0,0.0,0.0,0.0,0.0,0.0,0.0,0.0,0.0,0.0,0.0,0.0,0.0,0.0,0.0,0.0,0.0,0.0,0.0,0.0,0.0,0.0,0.0,0.0,0.0,0.0,0.0,0.0,0.0,0.0,0.0,0.0,0.0,0.0,0.0,0.0,0.0,0.0,0.0,0.0,0.0,0.0,0.0]}],[{"header":{"parameterUnit":"kt","parameterCategory":2,"dx":1,"dy":1,"la1":29.587661999999998,"la2":31.0,"lo1":-88.76705300000003,"lo2":-86.6583820000003,"nx":115,"ny":88,"refTime":"2022-10-10T06:00:00:Z","depth":0,"parameterNumber":2,"parameterNumberName":"V-component_of_WINDS"},"data":[12.0338,12.1591,12.1665,12.2513,12.3616,12.3862,12.3986,12.4022,12.4237,12.453,12.4454,12.434,12.3998,12.3998,12.3998,12.3771,12.3237,12.3467,12.3885,12.4492,12.4492,12.4757,12.5213,12.5971,12.5213,12.5288,12.5516,12.5137,12.5782,12.5099,12.4492,12.4378,12.4302,12.3809,12.3847,12.3733,12.3467,12.3391,12.3429,12.3391,12.2782,12.1909,12.0162,12.0389,12.1224,12.1682,12.2251,12.3391,12.3847,12.4036,12.3733,12.3275,12.3237,12.3655,12.442,12.4846,12.488,12.4769,12.4474,12.4151,12.4104,12.4707,12.4606,12.4791,12.5074,12.5594,12.4665,12.3454,12.3143,12.1435,12.0246,11.9466,11.9332,12.0618,12.0692,12.1969,12.312,12.3603,12.4271,12.5111,12.5668,12.5668,12.5631,12.5594,12.5557,12.552,12.5445,12.5482,12.5297,12.5668,12.5854,12.5742,12.5542,12.4243,12.2869,12.2906,12.2683,12.2497,12.2609,12.3203,12.3166,12.2312,12.1755,12.1657,12.1546,12.1175,12.0989,12.0321,12.0692,12.0547,12.0473,12.0042,11.8475,11.7002,11.5851,11.948,11.9845,11.9914,12.0109,12.0234,12.0388,12.0577,12.0802,12.2095,12.2787,12.2632,12.1376,12.0655,12.0579,12.0579,12.0617,12.0845,12.1454,12.1985,12.2478,12.2782,12.3237,12.396,12.4643,12.4378,12.434,12.4378,12.4416,12.434,12.3467,12.2668,12.244,12.1644,12.0655,12.0541,12.0655,12.1072,12.1262,12.13,12.092,12.0579,12.0124,12.001,11.9934,12.0124,12.02,12.0275,12.0541,12.0579,12.0845,12.111,12.1454,12.2061,12.2476,12.3274,12.3681,12.3718,12.357,12.3357,12.2845,12.2892,12.2927,12.2697,12.2674,12.2734,12.2535,12.1806,12.1472,12.1955,12.1235,12.0135,11.9318,11.9318,11.9689,11.8909,11.8775,11.9689,12.0506,12.162,12.2794,12.298,12.3017,12.298,12.2906,12.2869,12.2794,12.2794,12.2869,12.3166,12.3983,12.3774,12.3329,12.3032,12.2883,12.2289,12.1917,12.1569,12.1309,12.0952,12.1718,12.1978,12.0803,12.0061,11.9912,11.9429,11.8923,11.87,11.9058,11.8515,11.8218,11.8302,11.825,11.6954,11.6487,11.5009,11.9218,11.9355,11.9487,11.9531,11.952,11.958,11.966,11.9857,12.0572,12.0965,12.0889,12.0351,11.9972,11.9972,11.9934,12.0124,12.0124,11.9934,12.0579,12.0882,12.1148,12.1795,12.1795,12.1947,12.2402,12.2213,12.2213,12.2327,12.1871,12.1338,12.1148,12.092,12.0617,12.0124,12.0086,12.001,12.0086,11.9934,12.0124,12.0124,12.0124,12.001,11.9972,11.9934,11.9934,11.9972,11.9934,11.9934,11.9934,11.9934,11.9934,12.0617,12.0882,12.1186,12.1499,12.1875,12.2049,12.1727,12.1308,12.0979,12.0862,12.1266,12.1284,12.1565,12.1537,12.0135,11.9392,11.9169,11.9652,11.9341,11.8241,11.7164,11.709,11.735,11.683,11.6756,11.7573,11.8724,12.0098,12.1235,12.1695,12.168,12.1643,12.1643,12.1792,12.1829,12.22,12.246,12.246,12.2906,12.1435,12.0432,11.9801,11.9541,12.0098,12.0209,12.0172,11.9764,11.9207,11.9689,11.9875,11.8984,11.8464,11.8478,11.8106,11.74,11.74,11.7846,11.7512,11.74,11.7105,11.6823,11.6598,11.6339,11.5649,11.92,11.9192,11.9428,11.9526,11.948,11.9538,11.9616,11.97,11.9694,11.9856,11.984,11.99,11.9894,11.9891,11.9913,11.9934,11.9934,11.9934,11.9934,12.0086,12.0124,12.0541,12.02,12.0579,12.0275,11.9934,11.9934,12.0351,12.0465,12.0313,12.001,12.001,11.9972,11.9934,11.9934,11.9934,11.9934,11.9934,11.9934,11.9934,11.9934,11.9934,11.9934,11.9934,11.9934,11.9934,11.9934,11.9934,11.9934,11.9934,11.9934,11.9934,11.9934,11.9972,11.996,11.9898,12.0124,12.006,11.9768,11.9502,11.9461,11.9787,11.9878,12.0295,11.993,11.838,11.7438,11.714,11.683,11.6347,11.5641,11.4639,11.397,11.4403,11.47,11.5307,11.5952,11.7461,11.9021,11.9949,12.0729,12.0878,12.0803,12.0901,12.1086,12.1161,12.1198,12.1198,12.0915,12.0692,11.9207,11.8798,11.7809,11.7586,11.7735,11.8106,11.8478,11.8255,11.8255,11.7958,11.7623,11.7735,11.792,11.7549,11.74,11.74,11.74,11.74,11.74,11.74,11.7226,11.7119,11.691,11.6741,11.6426,11.92,11.917,11.93,11.9399,11.9425,11.9465,11.9531,11.9557,11.9583,11.9558,11.9633,11.9704,11.9744,11.9811,11.9887,11.9936,11.9934,11.9934,11.9934,11.9972,11.9934,11.9934,11.9934,11.9934,11.9934,11.9934,11.9934,11.9934,11.9934,11.9934,11.9934,11.9972,11.9934,11.9934,11.9934,11.9934,11.9934,11.9934,11.9934,11.9934,11.9934,11.9934,11.9934,11.9934,11.9934,11.9934,11.9934,11.9934,11.9934,11.9934,11.9934,11.9934,11.9934,11.9932,11.9795,11.9721,11.9657,11.9471,11.9191,11.8846,11.8765,11.8443,11.8049,11.8399,11.8655,11.776,11.7505,11.7218,11.7103,11.6658,11.631,11.5456,11.4936,11.5159,11.5122,11.5209,11.5729,11.6546,11.7795,11.8478,11.9109,11.9072,11.9021,11.9244,11.9355,11.8478,11.8292,11.8403,11.8292,11.8329,11.7846,11.7772,11.7475,11.7475,11.74,11.74,11.74,11.74,11.7549,11.74,11.74,11.74,11.74,11.74,11.74,11.74,11.74,11.74,11.74,11.74,11.74,11.74,11.7387,11.7254,11.6982,11.9193,11.917,11.928,11.9345,11.9359,11.9425,11.9498,11.9528,11.9525,11.9551,11.9528,11.9698,11.9706,11.9744,11.9865,11.9936,11.9936,11.9934,11.9934,11.9934,11.9934,11.9934,11.9934,11.9934,11.9934,11.9934,11.9934,11.9934,11.9934,11.9934,11.9934,11.9934,11.9934,11.9934,11.9934,11.9934,11.9934,11.9934,11.9934,11.9934,11.9934,11.9934,11.9934,11.9934,11.9934,11.9934,11.9934,11.9934,11.9934,11.9934,11.9934,11.9934,11.9934,11.9932,11.9851,11.9779,11.9695,11.9504,11.9259,11.8971,11.8715,11.8427,11.8164,11.7898,11.7815,11.773,11.763,11.755,11.7471,11.7353,11.7117,11.688,11.6607,11.6384,11.5901,11.5432,11.5692,11.6026,11.6583,11.7215,11.74,11.74,11.74,11.7475,11.74,11.74,11.74,11.74,11.74,11.74,11.74,11.74,11.74,11.74,11.74,11.74,11.74,11.74,11.74,11.74,11.74,11.74,11.74,11.74,11.74,11.74,11.74,11.74,11.74,11.74,11.74,11.74,11.74,11.74,11.736,11.9123,11.917,11.9244,11.9324,11.9345,11.9345,11.9419,11.9462,11.9516,11.9509,11.9459,11.9612,11.963,11.9702,11.9844,11.9887,11.9907,11.9934,11.9934,11.9934,11.9934,11.9934,11.9934,11.9934,11.9934,11.9934,11.9934,11.9934,11.9934,11.9934,11.9934,11.9934,11.9934,11.9934,11.9934,11.9934,11.9934,11.9934,11.9934,11.9934,11.9934,11.9934,11.9934,11.9934,11.9934,11.9934,11.9934,11.9934,11.9934,11.9934,11.9934,11.9934,11.9934,11.9932,11.996,11.9895,11.9782,11.9695,11.9528,11.9397,11.9166,11.8736,11.857,11.8417,11.8255,11.8123,11.8029,11.7921,11.7828,11.773,11.7531,11.7314,11.7066,11.6955,11.6806,11.6509,11.6583,11.6806,11.688,11.74,11.74,11.74,11.74,11.74,11.74,11.74,11.74,11.74,11.74,11.74,11.74,11.74,11.74,11.74,11.74,11.74,11.74,11.74,11.74,11.74,11.74,11.74,11.74,11.74,11.74,11.74,11.74,11.74,11.74,11.74,11.74,11.74,11.74,11.74,11.7373,11.9033,11.9168,11.917,11.9244,11.9376,11.9345,11.9352,11.9366,11.9372,11.9386,11.9381,11.9509,11.9552,11.9574,11.9702,11.9808,11.9923,11.9938,11.9934,11.9934,11.9934,11.9934,11.9934,11.9934,11.9934,11.9934,11.9934,11.9934,11.9934,11.9934,11.9934,11.9934,11.9934,11.9934,11.9934,11.9934,11.9934,11.9934,11.9934,11.9934,11.9934,11.9934,11.9934,11.9934,11.9934,11.9934,11.9934,11.9934,11.9934,11.9934,11.9934,11.9934,11.9934,11.9934,11.9955,11.9895,11.9789,11.9728,11.9626,11.9488,11.9249,11.9166,11.9098,11.8974,11.8807,11.8587,11.8457,11.829,11.8022,11.7965,11.7886,11.7654,11.7414,11.7414,11.7414,11.7414,11.7414,11.74,11.74,11.74,11.74,11.74,11.74,11.74,11.74,11.74,11.74,11.74,11.74,11.74,11.74,11.74,11.74,11.74,11.74,11.74,11.74,11.74,11.74,11.74,11.74,11.74,11.74,11.74,11.74,11.74,11.74,11.74,11.74,11.74,11.74,11.74,11.74,11.74,11.7387,11.9192,11.9305,11.9258,11.9317,11.9338,11.9345,11.9345,11.9345,11.9345,11.9345,11.9368,11.9467,11.9538,11.9568,11.9681,11.9816,11.981,11.9891,11.9934,11.9934,11.9934,11.9934,11.9934,11.9934,11.9934,11.9934,11.9934,11.9934,11.9934,11.9934,11.9934,11.9934,11.9934,11.9934,11.9934,11.9934,11.9934,11.9934,11.9934,11.9934,11.9934,11.9934,11.9934,11.9934,11.9934,11.9934,11.9934,11.9934,11.9934,11.9934,11.9934,11.9934,11.9934,11.997,11.9957,11.9933,11.9824,11.9748,11.9714,11.9604,11.9546,11.951,11.9548,11.9392,11.9114,11.8997,11.8843,11.8596,11.8192,11.804,11.7968,11.759,11.7454,11.7414,11.7414,11.7414,11.7414,11.7414,11.74,11.74,11.74,11.74,11.74,11.74,11.74,11.74,11.74,11.74,11.74,11.74,11.74,11.74,11.74,11.74,11.74,11.74,11.74,11.74,11.74,11.74,11.74,11.74,11.74,11.74,11.74,11.74,11.74,11.74,11.74,11.74,11.74,11.74,11.74,11.74,11.74,11.9192,11.9275,11.9296,11.9317,11.9345,11.9345,11.9345,11.9345,11.9345,11.9345,11.9392,11.9442,11.9521,11.9576,11.9659,11.9691,11.9744,11.987,11.9907,11.9941,11.9934,11.9934,11.9934,11.9934,11.9934,11.9934,11.9934,11.9934,11.9934,11.9934,11.9934,11.9934,11.9934,11.9934,11.9934,11.9934,11.9934,11.9934,11.9934,11.9934,11.9934,11.9934,11.9934,11.9934,11.9934,11.9934,11.9934,11.9934,11.9934,11.9934,11.9934,11.9934,11.9934,11.9934,11.996,11.9933,11.988,11.9793,11.9731,11.9744,11.9739,11.9717,11.9698,11.9602,11.9422,11.9355,11.9254,11.8997,11.8719,11.8495,11.8327,11.8011,11.7693,11.7642,11.7603,11.759,11.7471,11.7457,11.7444,11.7457,11.7414,11.74,11.74,11.74,11.74,11.74,11.74,11.74,11.74,11.74,11.74,11.74,11.74,11.74,11.74,11.74,11.74,11.74,11.74,11.74,11.74,11.74,11.74,11.74,11.74,11.74,11.74,11.74,11.74,11.74,11.74,11.74,11.74,11.74,11.74,11.905,11.9168,11.9178,11.9244,11.9338,11.9345,11.9345,11.9345,11.9345,11.9345,11.9352,11.9366,11.943,11.9518,11.9563,11.9603,11.9691,11.9743,11.9775,11.9856,11.9887,11.9941,11.9936,11.9934,11.9934,11.9934,11.9934,11.9934,11.9934,11.9934,11.9934,11.9934,11.9934,11.9934,11.9934,11.9934,11.9934,11.9934,11.9934,11.9934,11.9934,11.9934,11.9934,11.9934,11.9934,11.9934,11.9934,11.9934,11.9934,11.9934,11.9934,11.9934,11.9934,11.9934,11.9962,11.9941,11.9933,11.9862,11.9797,11.9789,11.9769,11.9739,11.9722,11.9703,11.9703,11.9698,11.9607,11.9483,11.9197,11.9055,11.8974,11.8736,11.832,11.8106,11.8044,11.7954,11.7717,11.7617,11.7616,11.7603,11.751,11.7414,11.7414,11.7414,11.7414,11.7428,11.7414,11.74,11.74,11.74,11.74,11.74,11.74,11.74,11.74,11.74,11.74,11.74,11.74,11.74,11.74,11.74,11.74,11.74,11.74,11.74,11.74,11.74,11.74,11.74,11.74,11.74,11.74,11.74,11.74,11.9131,11.917,11.9244,11.9324,11.9345,11.9345,11.9345,11.9345,11.9345,11.9345,11.9345,11.9345,11.9406,11.943,11.944,11.9468,11.958,11.954,11.9623,11.9743,11.9809,11.9868,11.9915,11.9936,11.9943,11.9934,11.9934,11.9934,11.9934,11.9934,11.9934,11.9934,11.9934,11.9934,11.9934,11.9934,11.9934,11.9934,11.9934,11.9934,11.9934,11.9934,11.9934,11.9934,11.9934,11.9934,11.9934,11.9934,11.9934,11.9934,11.9934,11.9934,11.9934,11.9932,11.9967,11.9957,11.9944,11.9889,11.9871,11.9858,11.9838,11.9777,11.9748,11.9722,11.9717,11.9717,11.9717,11.9703,11.9422,11.9156,11.9098,11.8928,11.8587,11.8495,11.8446,11.8347,11.8095,11.7896,11.7825,11.779,11.7578,11.7444,11.7431,11.7417,11.7444,11.7484,11.7468,11.74,11.74,11.74,11.74,11.74,11.74,11.74,11.74,11.74,11.74,11.74,11.74,11.74,11.74,11.74,11.74,11.74,11.74,11.74,11.74,11.74,11.74,11.74,11.74,11.74,11.74,11.74,11.74,11.9192,11.9163,11.9303,11.9345,11.9345,11.9345,11.9345,11.9345,11.9345,11.9345,11.9345,11.9345,11.9345,11.9128,11.898,11.8802,11.9432,11.8969,11.9142,11.9416,11.9699,11.9744,11.9845,11.9867,11.9889,11.9938,11.9934,11.9934,11.9934,11.9934,11.9934,11.9934,11.9934,11.9934,11.9934,11.9934,11.9934,11.9934,11.9934,11.9934,11.9934,11.9934,11.9934,11.9934,11.9934,11.9934,11.9934,11.9934,11.9934,11.9934,11.9934,11.9934,11.9934,11.9934,11.9932,11.9967,11.996,11.9944,11.993,11.9927,11.9915,11.9824,11.974,11.9697,11.9717,11.9717,11.9717,11.9689,11.9527,11.9439,11.9367,11.9177,11.8928,11.8865,11.8753,11.8676,11.8514,11.83,11.8197,11.8171,11.7919,11.7642,11.7578,11.75,11.7589,11.7602,11.7471,11.74,11.74,11.74,11.74,11.74,11.74,11.74,11.74,11.74,11.74,11.74,11.74,11.74,11.74,11.74,11.74,11.74,11.74,11.74,11.74,11.74,11.74,11.74,11.74,11.74,11.74,11.74,11.74,11.9198,11.9168,11.9282,11.9345,11.9345,11.9345,11.9345,11.9345,11.9345,11.9345,11.9345,11.9345,11.9225,11.8786,11.7819,11.7816,11.8889,11.7535,11.7921,11.876,11.9407,11.9372,11.9703,11.9742,11.981,11.9889,11.9936,11.9936,11.9936,11.9947,11.9949,11.9934,11.9934,11.9934,11.9934,11.9934,11.9934,11.9934,11.9934,11.9934,11.9934,11.9934,11.9934,11.9934,11.9934,11.9934,11.9934,11.9934,11.9934,11.9934,11.9934,11.9934,11.9934,11.9934,11.9934,11.9934,11.9967,11.9957,11.9947,11.9941,11.9933,11.9915,11.9834,11.9693,11.9726,11.9717,11.9717,11.9708,11.9651,11.9641,11.9656,11.9656,11.939,11.9306,11.9177,11.9114,11.8982,11.8753,11.8596,11.8532,11.8387,11.8106,11.7999,11.7933,11.7945,11.7828,11.7705,11.7526,11.7524,11.74,11.74,11.74,11.74,11.74,11.74,11.74,11.74,11.74,11.74,11.74,11.74,11.74,11.74,11.74,11.74,11.74,11.74,11.74,11.74,11.74,11.74,11.74,11.74,11.74,11.74,11.9198,11.9176,11.9289,11.9345,11.9345,11.9345,11.9345,11.9345,11.9345,11.9345,11.9345,11.9345,11.8628,11.754,11.7062,11.6339,11.5765,11.5186,11.6094,11.7121,11.7762,11.8363,11.9088,11.9587,11.9668,11.9777,11.9868,11.9917,11.9889,11.9867,11.987,11.9934,11.9934,11.9934,11.9934,11.9934,11.9934,11.9934,11.9934,11.9934,11.9934,11.9934,11.9934,11.9934,11.9934,11.9934,11.9934,11.9934,11.9934,11.9934,11.9934,11.9934,11.9934,11.9934,11.9934,11.9934,11.9934,11.9967,11.9962,11.9957,11.9952,11.9892,11.9817,11.9729,11.9744,11.9717,11.9717,11.9717,11.9717,11.9717,11.9717,11.9717,11.9632,11.9607,11.9538,11.9527,11.9471,11.9183,11.9004,11.892,11.8774,11.8551,11.8495,11.8368,11.8203,11.8067,11.7886,11.773,11.7565,11.7428,11.74,11.74,11.74,11.74,11.74,11.74,11.74,11.74,11.74,11.74,11.74,11.74,11.74,11.74,11.74,11.74,11.74,11.74,11.74,11.74,11.74,11.74,11.74,11.74,11.74,11.9176,11.9177,11.9303,11.9345,11.9345,11.9345,11.9345,11.9345,11.9345,11.9345,11.9345,11.9345,11.8854,11.7804,11.6143,11.5192,11.4324,11.3626,11.4279,11.5555,11.5965,11.6749,11.819,11.8563,11.9185,11.9387,11.9743,11.9812,11.9805,11.9777,11.9811,11.9909,11.9934,11.9934,11.9934,11.9934,11.9934,11.9934,11.9934,11.9934,11.9934,11.9934,11.9934,11.9934,11.9934,11.9934,11.9934,11.9934,11.9934,11.9934,11.9934,11.9934,11.9934,11.9934,11.9934,11.9934,11.9934,11.9934,11.9934,11.9934,11.9965,11.9909,11.9845,11.9807,11.9714,11.971,11.9717,11.9717,11.9717,11.9717,11.9717,11.9717,11.9717,11.9712,11.9651,11.9637,11.9612,11.9445,11.9343,11.9261,11.9136,11.9136,11.9114,11.8928,11.8702,11.8504,11.8269,11.7996,11.7742,11.7539,11.7457,11.7441,11.74,11.74,11.74,11.74,11.74,11.74,11.74,11.74,11.74,11.74,11.74,11.74,11.74,11.74,11.74,11.74,11.74,11.74,11.74,11.74,11.74,11.74,11.74,11.92,11.9193,11.931,11.9345,11.9345,11.9345,11.9345,11.9345,11.9345,11.9345,11.9345,11.9345,11.9345,11.8439,11.5909,11.4361,11.3613,11.2864,11.3336,11.5093,11.525,11.6158,11.7318,11.7308,11.8597,11.9386,11.9568,11.9598,11.9653,11.9702,11.9779,11.9892,11.9913,11.9934,11.9934,11.9934,11.9934,11.9934,11.9934,11.9934,11.9934,11.9934,11.9934,11.9934,11.9934,11.9934,11.9934,11.9934,11.9934,11.9934,11.9934,11.9934,11.9934,11.9934,11.9934,11.9934,11.9934,11.9934,11.9934,11.9934,11.9967,11.9924,11.9906,11.9845,11.9804,11.9748,11.9731,11.9722,11.9717,11.9717,11.9717,11.9717,11.9717,11.9717,11.9717,11.9717,11.9712,11.9559,11.9569,11.9516,11.9416,11.9462,11.9527,11.9343,11.9183,11.8906,11.8603,11.8259,11.7965,11.7742,11.7603,11.7457,11.74,11.74,11.74,11.74,11.74,11.74,11.74,11.74,11.74,11.74,11.74,11.74,11.74,11.74,11.74,11.74,11.74,11.74,11.74,11.74,11.74,11.74,11.74,11.9168,11.9192,11.9289,11.9345,11.9345,11.9345,11.9345,11.9345,11.9345,11.9345,11.9345,11.9345,11.9345,11.8477,11.606,11.3651,11.2373,11.2298,11.3619,11.5501,11.5998,11.71,11.8435,11.9003,11.9044,11.9452,11.9517,11.9565,11.9586,11.9592,11.9692,11.978,11.9925,11.9934,11.9941,11.9911,11.9934,11.9934,11.9934,11.9934,11.9934,11.9934,11.9934,11.9934,11.9934,11.9934,11.9934,11.9934,11.9934,11.9934,11.9934,11.9934,11.9934,11.9934,11.9934,11.9934,11.9934,11.9934,11.9934,11.9934,11.9934,11.9932,11.9947,11.9933,11.9868,11.9782,11.9719,11.9726,11.9717,11.9717,11.9717,11.9717,11.9717,11.9717,11.9717,11.9717,11.9717,11.9717,11.9717,11.9708,11.9656,11.9641,11.9637,11.9489,11.9422,11.9183,11.8944,11.8568,11.829,11.8055,11.7816,11.7616,11.7471,11.7484,11.7428,11.7428,11.74,11.74,11.74,11.74,11.74,11.74,11.74,11.74,11.74,11.74,11.74,11.74,11.74,11.74,11.74,11.74,11.74,11.74,11.74,11.9176,11.9185,11.9296,11.9345,11.9345,11.9345,11.9345,11.9345,11.9345,11.9345,11.9345,11.9345,11.9345,11.8665,11.6551,11.4632,11.3499,11.3091,11.4028,11.5085,11.5689,11.652,11.7882,11.8089,11.8683,11.9294,11.948,11.9471,11.9541,11.9517,11.9613,11.9685,11.9704,11.9778,11.9842,11.9836,11.9861,11.9936,11.9934,11.9934,11.9934,11.9934,11.9934,11.9934,11.9934,11.9934,11.9934,11.9934,11.9934,11.9934,11.9934,11.9934,11.9934,11.9934,11.9934,11.9934,11.9934,11.9934,11.9934,11.9934,11.9934,11.997,11.9962,11.9947,11.9924,11.981,11.9722,11.9723,11.9702,11.9717,11.9717,11.9717,11.9717,11.9717,11.9717,11.9717,11.9717,11.9717,11.9717,11.9717,11.9703,11.9708,11.9717,11.9694,11.9617,11.9456,11.9249,11.8997,11.8647,11.8409,11.8139,11.7942,11.7754,11.7655,11.7481,11.7441,11.74,11.74,11.74,11.74,11.74,11.74,11.74,11.74,11.74,11.74,11.74,11.74,11.74,11.74,11.74,11.74,11.74,11.74,11.74,11.9177,11.917,11.9317,11.9345,11.9345,11.9345,11.9345,11.9345,11.9345,11.9345,11.9345,11.9345,11.9345,11.8892,11.7577,11.6105,11.4972,11.4783,11.5123,11.5645,11.5834,11.6331,11.7653,11.7964,11.8284,11.9081,11.9355,11.9436,11.9505,11.9518,11.9555,11.9559,11.9566,11.9636,11.9702,11.9706,11.9811,11.9864,11.9907,11.9934,11.9934,11.9934,11.9934,11.9934,11.9934,11.9934,11.9934,11.9934,11.9934,11.9934,11.9934,11.9934,11.9934,11.9934,11.9934,11.9934,11.9934,11.9934,11.9932,11.9967,11.9967,11.9967,11.9919,11.9906,11.9898,11.9824,11.9741,11.971,11.9719,11.9717,11.9717,11.9717,11.9717,11.9717,11.9717,11.9717,11.9717,11.9717,11.9717,11.9717,11.9717,11.9717,11.9717,11.9708,11.9646,11.9559,11.9451,11.9249,11.8997,11.8719,11.8486,11.8269,11.8073,11.7815,11.7589,11.7563,11.7441,11.7441,11.74,11.74,11.74,11.74,11.74,11.74,11.74,11.74,11.74,11.74,11.74,11.74,11.74,11.74,11.74,11.74,11.74,11.9185,11.9162,11.928,11.9345,11.9345,11.9345,11.9345,11.9345,11.9345,11.9345,11.9345,11.9345,11.9345,11.9005,11.7653,11.6822,11.6482,11.652,11.7049,11.791,11.7986,11.8288,11.8552,11.8703,11.9005,11.927,11.9345,11.9352,11.9444,11.95,11.9514,11.9546,11.9536,11.9585,11.9625,11.9659,11.9744,11.9779,11.9865,11.9909,11.9907,11.9936,11.9934,11.9934,11.9934,11.9934,11.9934,11.9934,11.9934,11.9934,11.9934,11.9934,11.9934,11.9934,11.9934,11.9934,11.9934,11.9932,11.9965,11.9955,11.995,11.997,11.986,11.9848,11.986,11.982,11.9744,11.9722,11.9731,11.9717,11.9717,11.9717,11.9717,11.9717,11.9717,11.9717,11.9717,11.9717,11.9717,11.9717,11.9717,11.9717,11.9717,11.9717,11.9717,11.9708,11.9651,11.9543,11.9287,11.9019,11.8857,11.8641,11.8389,11.8128,11.7907,11.7839,11.7524,11.7481,11.74,11.74,11.74,11.74,11.74,11.74,11.74,11.74,11.74,11.74,11.74,11.74,11.74,11.74,11.74,11.74,11.74,11.9185,11.9258,11.9331,11.9345,11.9345,11.9345,11.9345,11.9345,11.9345,11.9345,11.9345,11.9345,11.9345,11.927,11.8552,11.8137,11.8137,11.8175,11.8628,11.9119,11.9345,11.9345,11.9345,11.9345,11.9345,11.9345,11.9345,11.9345,11.9366,11.94,11.9439,11.9445,11.9445,11.9491,11.9545,11.9592,11.9652,11.9652,11.9742,11.9841,11.9872,11.9925,11.9934,11.9934,11.9934,11.9934,11.9934,11.9934,11.9934,11.9934,11.9934,11.9934,11.9934,11.9934,11.9934,11.9934,11.9934,11.9967,11.9955,11.9941,11.9895,11.9854,11.9792,11.9757,11.9789,11.9755,11.9722,11.9718,11.9723,11.9717,11.9717,11.9717,11.9717,11.9717,11.9717,11.9717,11.9717,11.9717,11.9717,11.9717,11.9717,11.9717,11.9717,11.9717,11.9717,11.9717,11.9698,11.9651,11.9422,11.9349,11.9177,11.8982,11.8711,11.8439,11.8249,11.8033,11.7742,11.7552,11.7471,11.74,11.7444,11.7431,11.7414,11.74,11.74,11.74,11.74,11.74,11.74,11.74,11.74,11.74,11.74,11.74,11.74,11.9238,11.9345,11.9345,11.9345,11.9345,11.9345,11.9345,11.9345,11.9345,11.9345,11.9345,11.9345,11.9345,11.9345,11.927,11.9345,11.9194,11.9194,11.9345,11.9345,11.9345,11.9345,11.9345,11.9345,11.9345,11.9345,11.9345,11.9345,11.9345,11.9366,11.9345,11.9359,11.9394,11.9388,11.9498,11.9537,11.9536,11.9568,11.9658,11.9744,11.9782,11.9862,11.9934,11.9934,11.9934,11.9934,11.9934,11.9934,11.9934,11.9934,11.9934,11.9934,11.9934,11.9934,11.9934,11.9934,11.9932,11.9962,11.9944,11.9933,11.9877,11.9786,11.9766,11.9714,11.9724,11.9725,11.9698,11.9698,11.9706,11.9722,11.9717,11.9717,11.9717,11.9717,11.9717,11.9717,11.9717,11.9717,11.9717,11.9717,11.9717,11.9717,11.9717,11.9717,11.9717,11.9717,11.9717,11.9717,11.9703,11.9651,11.9521,11.9368,11.907,11.8827,11.8632,11.8389,11.804,11.7766,11.7539,11.7414,11.7513,11.7565,11.7431,11.74,11.74,11.74,11.74,11.74,11.74,11.74,11.74,11.74,11.74,11.74,11.74,11.9369,11.9345,11.9345,11.9345,11.9345,11.9345,11.9345,11.9345,11.9345,11.9345,11.9345,11.9345,11.9345,11.9345,11.9345,11.9345,11.9345,11.9345,11.9345,11.9345,11.9345,11.9345,11.9345,11.9345,11.9345,11.9345,11.9345,11.9345,11.9345,11.9345,11.9345,11.9345,11.9345,11.9372,11.9381,11.9467,11.9523,11.957,11.9659,11.9706,11.9706,11.9838,11.9909,11.9938,11.9934,11.9934,11.9934,11.9934,11.9938,11.9936,11.9934,11.9934,11.9934,11.9934,11.9934,11.9934,11.9934,11.997,11.9922,11.9848,11.9789,11.9824,11.9793,11.9765,11.9695,11.9702,11.9706,11.9693,11.9706,11.9722,11.9717,11.9717,11.9717,11.9717,11.9717,11.9717,11.9717,11.9717,11.9717,11.9717,11.9717,11.9717,11.9717,11.9717,11.9717,11.9717,11.9717,11.9717,11.9717,11.9717,11.9641,11.9586,11.941,11.9183,11.8989,11.8761,11.838,11.8084,11.786,11.7693,11.7825,11.7742,11.7539,11.74,11.74,11.74,11.74,11.74,11.74,11.74,11.74,11.74,11.74,11.74,11.6955,11.9305,11.9345,11.9345,11.9345,11.9345,11.9345,11.9345,11.9345,11.9345,11.9345,11.9345,11.9345,11.9345,11.9345,11.9345,11.9345,11.9345,11.9345,11.9345,11.9345,11.9345,11.9345,11.9345,11.9345,11.9345,11.9345,11.9345,11.9345,11.9345,11.9345,11.9345,11.9345,11.9345,11.9345,11.9359,11.94,11.9442,11.9473,11.9574,11.9604,11.9607,11.9743,11.9836,11.9941,11.9934,11.9934,11.9934,11.9934,11.9885,11.9871,11.9925,11.9934,11.9934,11.9934,11.9934,11.9934,11.9934,11.9965,11.995,11.9892,11.9827,11.9793,11.9797,11.9731,11.9727,11.971,11.9722,11.9706,11.9731,11.9722,11.9717,11.9717,11.9717,11.9717,11.9717,11.9717,11.9717,11.9717,11.9717,11.9717,11.9717,11.9717,11.9717,11.9717,11.9717,11.9717,11.9717,11.9717,11.9717,11.9717,11.9703,11.9689,11.9548,11.9467,11.9337,11.9098,11.877,11.8693,11.8467,11.8228,11.8186,11.8018,11.7872,11.7767,11.7513,11.74,11.74,11.74,11.7322,11.7265,11.739,11.74,11.74,11.74,11.6658,11.923,11.9376,11.9345,11.9345,11.9345,11.9345,11.9345,11.9345,11.9345,11.9345,11.9345,11.9345,11.9345,11.9345,11.9345,11.9345,11.9345,11.9345,11.9345,11.9345,11.9345,11.9345,11.9345,11.9345,11.9345,11.9345,11.9345,11.9345,11.9345,11.9345,11.9345,11.9345,11.9345,11.9345,11.9345,11.9352,11.9345,11.9341,11.95,11.9532,11.9562,11.9642,11.9744,11.9841,11.9842,11.9837,11.9894,11.987,11.9778,11.9703,11.9777,11.9839,11.9807,11.9844,11.9841,11.9867,11.9894,11.9919,11.9957,11.9936,11.9868,11.9733,11.9714,11.9727,11.9722,11.9717,11.9717,11.9717,11.9717,11.9717,11.9717,11.9717,11.9717,11.9717,11.9717,11.9717,11.9717,11.9717,11.9717,11.9717,11.9717,11.9717,11.9717,11.9717,11.9717,11.9717,11.9717,11.9717,11.9717,11.9717,11.9717,11.9717,11.9712,11.9717,11.9641,11.9433,11.9293,11.9183,11.8974,11.8736,11.8623,11.8382,11.8237,11.8037,11.7752,11.7781,11.7691,11.7357,11.7084,11.6915,11.666,11.6078,11.6362,11.6331,11.5476,11.9237,11.9376,11.9345,11.9345,11.9345,11.9345,11.9345,11.9345,11.9345,11.9345,11.9345,11.9345,11.9345,11.9345,11.9345,11.9345,11.9345,11.9345,11.9345,11.9345,11.9345,11.9345,11.9345,11.9345,11.9345,11.9345,11.9345,11.9345,11.9345,11.9345,11.9345,11.9345,11.9345,11.9345,11.9345,11.9345,11.9345,11.9372,11.9478,11.9518,11.9529,11.9554,11.9578,11.9587,11.9594,11.9652,11.9629,11.9267,11.923,11.9458,11.9164,11.9059,11.9432,11.9576,11.9349,11.9516,11.9705,11.9695,11.9913,11.9932,11.9895,11.9769,11.9733,11.9727,11.9726,11.9717,11.9717,11.9717,11.9717,11.9717,11.9717,11.9717,11.9717,11.9717,11.9717,11.9717,11.9717,11.9717,11.9717,11.9717,11.9717,11.9717,11.9717,11.9717,11.9717,11.9717,11.9717,11.9717,11.9717,11.9717,11.9717,11.9717,11.9717,11.9717,11.9717,11.9532,11.95,11.9422,11.9349,11.921,11.9149,11.8761,11.8491,11.8225,11.7969,11.8138,11.8043,11.738,11.6937,11.6255,11.539,11.4645,11.4313,11.4114,11.3582,11.9238,11.9338,11.9345,11.9345,11.9345,11.9345,11.9345,11.9345,11.9345,11.9345,11.9345,11.9345,11.9345,11.9345,11.9345,11.9345,11.9345,11.9345,11.9345,11.9345,11.9345,11.9345,11.9345,11.9345,11.9345,11.9345,11.9345,11.9345,11.9345,11.9345,11.9345,11.9345,11.9345,11.9307,11.9345,11.9345,11.9345,11.9352,11.9375,11.9462,11.9514,11.952,11.9524,11.9512,11.9521,11.9576,11.9401,11.7379,11.6313,11.6457,11.642,11.6388,11.6486,11.6602,11.6997,11.7855,11.8241,11.8674,11.9662,11.9614,11.982,11.976,11.9721,11.9684,11.9697,11.9717,11.9717,11.9717,11.9717,11.9717,11.9717,11.9717,11.9717,11.9717,11.9717,11.9717,11.9717,11.9717,11.9717,11.9717,11.9717,11.9717,11.9717,11.9717,11.9717,11.9717,11.9717,11.9717,11.9717,11.9717,11.9717,11.9717,11.9717,11.9717,11.9717,11.9703,11.9679,11.9324,11.9092,11.8781,11.8603,11.8185,11.7761,11.7388,11.6685,11.6631,11.6494,11.6218,11.5992,11.5179,11.426,11.3687,11.3189,11.2705,11.1993,11.7971,11.8508,11.859,11.8816,11.9345,11.9345,11.9345,11.9345,11.9345,11.9345,11.9345,11.9345,11.9345,11.9345,11.9345,11.9345,11.927,11.8175,11.7759,11.7722,11.7722,11.7646,11.7684,11.7759,11.7759,11.7797,11.7797,11.7759,11.7722,11.7684,11.7797,11.7759,11.7722,11.7759,11.7646,11.7759,11.7797,11.7797,11.7797,11.7813,11.7895,11.7883,11.7871,11.7917,11.789,11.789,11.7766,11.5587,11.4441,11.4647,11.4486,11.4473,11.4571,11.4558,11.5112,11.617,11.6368,11.6981,11.7987,11.8149,11.8101,11.8195,11.8696,11.8945,11.8957,11.9347,11.9717,11.9717,11.9717,11.9717,11.9717,11.9717,11.9717,11.9717,11.9717,11.9717,11.9717,11.9717,11.9717,11.9717,11.9717,11.9717,11.9717,11.9717,11.9717,11.9717,11.9717,11.9717,11.9717,11.9717,11.9717,11.9717,11.9717,11.9717,11.9717,11.9708,11.8714,11.7649,11.7308,11.6982,11.7029,11.6825,11.6402,11.5876,11.4965,11.4544,11.4365,11.4214,11.415,11.3634,11.3115,11.2675,11.2304,11.1635,11.078,11.5293,11.674,11.686,11.7691,11.8816,11.8892,11.9194,11.8968,11.9043,11.8816,11.8665,11.9043,11.8779,11.9081,11.8779,11.9081,11.8401,11.606,11.4852,11.4814,11.4745,11.4708,11.4783,11.489,11.489,11.4814,11.4557,11.4512,11.4783,11.4852,11.4821,11.4588,11.4821,11.4965,11.4519,11.4852,11.4626,11.4777,11.4852,11.4677,11.4412,11.474,11.4841,11.469,11.4432,11.4325,11.4337,11.4117,11.3859,11.3966,11.4023,11.4223,11.3903,11.3915,11.4251,11.4439,11.4508,11.463,11.4894,11.5175,11.5339,11.5444,11.6483,11.7327,11.7436,11.8447,11.9213,11.9162,11.9343,11.9566,11.9528,11.9338,11.9225,11.9641,11.9111,11.9111,11.9338,11.9566,11.9603,11.9338,11.9187,11.9566,11.9603,11.9149,11.896,11.9035,11.9111,11.9035,11.8884,11.8884,11.9452,11.9414,11.8884,11.8467,11.9073,11.9414,11.7487,11.5934,11.5707,11.5669,11.5858,11.521,11.4748,11.4393,11.3538,11.2933,11.2797,11.2765,11.2615,11.2264,11.1925,11.1454,11.1038,11.0466,10.9657,11.4533,11.5048,11.5103,11.5418,11.5954,11.5909,11.5947,11.5947,11.5947,11.5909,11.5947,11.5947,11.5909,11.5947,11.5947,11.5909,11.5758,11.4852,11.433,11.433,11.433,11.433,11.433,11.433,11.433,11.4292,11.433,11.433,11.433,11.433,11.433,11.4248,11.433,11.433,11.433,11.433,11.433,11.433,11.433,11.4292,11.433,11.433,11.433,11.399,11.214,11.1007,11.1007,11.1045,11.1045,11.1007,11.1007,11.1007,11.1007,11.1007,11.1511,11.2608,11.2776,11.3256,11.434,11.4591,11.4622,11.4759,11.5263,11.5558,11.5547,11.5974,11.6259,11.6602,11.7239,11.8051,11.7866,11.7037,11.6351,11.6313,11.6308,11.6313,11.6313,11.6384,11.6422,11.6502,11.6536,11.6422,11.6313,11.6346,11.6426,11.6313,11.6308,11.6313,11.6313,11.6313,11.6351,11.6351,11.654,11.6611,11.6308,11.6271,11.4911,11.4646,11.4495,11.4798,11.4836,11.3699,11.3009,11.2748,11.229,11.165,11.1347,11.1347,11.1078,11.069,11.0551,11.0665,11.013,10.9455,10.9459,11.1973,11.2225,11.3079,11.3802,11.4292,11.433,11.433,11.433,11.433,11.433,11.433,11.433,11.433,11.421,11.3084,11.2556,11.2511,11.2556,11.2556,11.2556,11.2549,11.2556,11.2518,11.2556,11.2556,11.2556,11.2556,11.2556,11.2556,11.2556,11.2556,11.2556,11.2556,11.2556,11.2518,11.2556,11.2556,11.2556,11.2556,11.2556,11.2442,11.2556,11.2543,11.2392,11.0515,10.9457,10.9457,10.9446,10.9466,10.9466,10.9466,10.9466,10.9466,10.9466,10.9957,11.0938,11.1052,11.1509,11.2489,11.2684,11.2714,11.282,11.3354,11.3773,11.3859,11.427,11.4632,11.4881,11.581,11.5874,11.5469,11.5084,11.472,11.4723,11.4711,11.4817,11.4663,11.4684,11.4684,11.4684,11.4684,11.4684,11.4911,11.4684,11.4684,11.4684,11.4684,11.4798,11.4722,11.4684,11.4874,11.4722,11.4646,11.4305,11.3396,11.298,11.298,11.298,11.3018,11.298,11.279,11.1654,11.1503,11.1313,11.0897,11.0404,11.0594,11.0556,11.0404,11.0064,11.0026,11.0063,10.9798,10.9657,10.9571,10.7989,10.8688,11.0832,11.2489,11.3957,11.3868,11.3913,11.3686,11.3888,11.3977,11.3839,11.3877,11.4022,11.3624,11.0963,10.9535,10.9541,10.9692,10.9768,10.9768,10.9654,10.9503,10.9466,10.9466,10.9541,10.9881,10.9913,10.9806,10.9692,10.9617,10.9466,10.9535,10.973,10.9579,10.9692,10.9806,10.9535,10.9799,10.9806,10.9617,10.9617,10.9623,10.9695,10.9757,10.9465,10.9465,10.946,10.9437,10.9446,10.944,10.944,10.9434,10.9466,10.9466,10.9466,10.9541,10.9541,10.9547,10.966,10.976,10.9714,10.9819,11.1198,11.2069,11.2112,11.3078,11.3815,11.4314,11.4149,11.3692,11.2604,11.3277,11.4082,11.4075,11.4246,11.4234,11.4293,11.3944,11.4381,11.423,11.404,11.3889,11.4192,11.4495,11.4116,11.4078,11.4268,11.4192,11.3965,11.4154,11.4078,11.404,11.3927,11.3396,11.067,11.0556,11.0367,11.048,11.0897,11.0215,10.9912,10.9798,10.9912,10.9874,10.9836,10.9836,10.9798,10.9798,10.9798,10.9798,10.9798,10.9798,10.9798,10.9798,10.9479,10.7668,10.806,10.8665,10.9401,11.0076,11.0048,11.0148,11.0335,11.035,11.052,11.0775,11.0743,11.062,11.0274,10.9772,10.9466,10.9466,10.9466,10.9466,10.9466,10.9466,10.9466,10.9466,10.9466,10.9466,10.9466,10.9466,10.9466,10.9466,10.9466,10.9466,10.9466,10.9466,10.9466,10.9466,10.9466,10.9466,10.9466,10.9466,10.9466,10.9403,10.9442,10.947,10.9599,10.957,10.9575,10.957,10.9586,10.9533,10.9455,10.9449,10.9448,10.9434,10.9466,10.9466,10.9466,10.9466,10.9466,10.9466,10.946,10.947,10.9482,10.9827,11.0164,11.0257,11.0565,11.089,11.1058,11.0925,11.0918,11.0353,11.0779,11.1047,11.104,11.1104,11.1125,11.1242,11.1172,11.128,11.1166,11.1465,11.1166,11.12,11.1276,11.1389,11.1389,11.1313,11.1162,11.1162,11.128,11.128,11.1166,11.12,11.0787,11.0106,10.9798,10.9798,10.9798,10.9798,10.9798,10.9798,10.9798,10.9798,10.9798,10.9798,10.9798,10.9798,10.9798,10.9798,10.9798,10.9761,10.9723,10.9382,10.9723,10.9268,10.7031,10.7397,10.7647,10.7991,10.8435,10.8454,10.8555,10.8694,10.8694,10.8823,10.9032,10.9039,10.8925,10.8711,10.894,10.9099,10.9177,10.9221,10.93,10.9459,10.9466,10.9466,10.9466,10.9466,10.9466,10.9466,10.9466,10.9466,10.9466,10.9466,10.9466,10.9466,10.9466,10.9466,10.9466,10.9466,10.9466,10.9466,10.9466,10.8748,10.7558,10.744,10.7542,10.7635,10.7629,10.7671,10.764,10.7602,10.7533,10.7359,10.7386,10.7352,10.7351,10.7351,10.7389,10.7389,10.7351,10.7389,10.7351,10.8021,10.841,10.8408,10.9003,10.9439,10.9467,10.9467,10.918,10.8837,10.9213,10.9627,10.9752,10.9754,10.9751,10.972,10.9789,10.9828,10.9816,10.9833,10.9812,10.9807,10.9798,10.9836,10.9798,10.9798,10.9798,10.9798,10.9836,10.9988,10.9874,10.9798,10.9798,10.9798,10.9798,10.9798,10.9798,10.9798,10.9798,10.9798,10.9798,10.9798,10.9798,10.9798,10.9798,10.9798,10.9798,10.9798,10.9685,10.9798,10.9798,10.9609,10.9609,10.8544,10.7905,10.7791,10.7067,10.6366,10.6754,10.721,10.7821,10.833,10.835,10.8406,10.8407,10.8407,10.8407,10.8416,10.8445,10.8464,10.8417,10.8454,10.8646,10.8847,10.8818,10.8971,10.9306,10.937,10.9333,10.9351,10.932,10.9383,10.9352,10.9383,10.9352,10.9459,10.9466,10.9466,10.9466,10.9277,10.9157,10.9164,10.8975,10.8937,10.8975,10.8969,10.7471,10.4624,10.4657,10.4749,10.4765,10.4831,10.4758,10.4962,10.4642,10.4583,10.4397,10.4511,10.4461,10.4487,10.445,10.445,10.4487,10.4487,10.4412,10.4525,10.5847,10.6684,10.6779,10.8005,10.8783,10.8823,10.8858,10.8349,10.7432,10.8337,10.9,10.9323,10.95,10.9482,10.9362,10.964,10.9796,10.9819,10.9814,10.981,10.9789,10.9811,10.9798,10.9798,10.9798,10.9798,10.9798,10.9798,10.9798,10.9798,10.9798,10.9803,10.9819,10.9823,10.9823,10.9798,10.9798,10.9798,10.9798,10.9798,10.9798,10.9798,10.9798,10.9647,10.9306,10.9382,10.9155,10.9155,10.9344,10.9117,10.8473,10.7711,10.6647,10.5283,10.5094,10.4337,10.6187,10.6726,10.6846,10.729,10.7838,10.7875,10.7974,10.814,10.8161,10.8074,10.7908,10.8107,10.8151,10.822,10.8387,10.8491,10.8583,10.8546,10.8582,10.8681,10.8689,10.8681,10.8689,10.8689,10.8791,10.8956,10.8971,10.9149,10.9409,10.9466,10.9466,10.9315,10.81,10.749,10.7452,10.6174,10.5501,10.5501,10.5501,10.517,10.454,10.4585,10.4644,10.4762,10.4749,10.4749,10.4771,10.4755,10.4643,10.456,10.454,10.4465,10.4418,10.4412,10.4412,10.4412,10.4412,10.4412,10.4418,10.487,10.507,10.4984,10.5393,10.5647,10.5554,10.5557,10.5365,10.5241,10.5603,10.5858,10.6074,10.7094,10.7893,10.7955,10.9009,10.9605,10.9758,10.9792,10.9792,10.981,10.9819,10.9731,10.9798,10.9798,10.9773,10.9777,10.9798,10.9798,10.9798,10.9798,10.9804,10.9823,10.9813,10.964,10.9815,10.9693,10.9621,10.9798,10.9693,10.9508,10.9542,10.9689,10.9382,10.8128,10.7859,10.7484,10.6272,10.6041,10.6116,10.6234,10.5814,10.5208,10.4677,10.4564,10.3768,10.6408,10.6719,10.6877,10.7076,10.7442,10.7594,10.778,10.7773,10.6306,10.5509,10.5379,10.5544,10.5561,10.5621,10.5734,10.5902,10.608,10.608,10.6157,10.6222,10.6222,10.626,10.626,10.626,10.634,10.6431,10.6439,10.6558,10.6719,10.6772,10.6772,10.6689,10.5861,10.5452,10.5512,10.4779,10.4412,10.4368,10.3477,10.3087,10.3156,10.3209,10.3287,10.3365,10.2822,10.2544,10.2436,10.2474,10.2401,10.2278,10.2267,10.2208,10.2178,10.2134,10.2178,10.214,10.2172,10.2134,10.2134,10.2235,10.2543,10.3203,10.3978,10.3568,10.1202,10.2424,10.3352,10.3441,10.4245,10.4656,10.4703,10.5544,10.617,10.6233,10.7051,10.7616,10.7591,10.7626,10.7562,10.7497,10.75,10.7818,10.8579,10.8657,10.8847,10.9722,10.9795,10.9801,10.9798,10.8544,10.7492,10.7525,10.7535,10.7556,10.7487,10.7511,10.7511,10.7514,10.752,10.7529,10.7525,10.7474,10.7075,10.6344,10.6154,10.5738,10.5094,10.4753,10.4749,10.4715,10.4261,10.3655,10.3465,10.2935,10.1917,10.5997,10.6128,10.6356,10.6454,10.6507,10.6851,10.6939,10.6729,10.3919,10.2656,10.2619,10.2619,10.2619,10.2619,10.2619,10.2793,10.3154,10.3154,10.3245,0.0,10.3488,10.3451,10.3488,10.3479,10.3507,10.3543,10.3552,10.357,10.3606,10.3614,10.3577,10.3614,10.3577,10.3613,10.3588,10.362,10.364,10.3533,10.1899,10.1082,10.1112,10.1277,10.1408,10.1619,10.0545,9.9932,10.0007,9.9913,9.976,9.9793,9.9587,9.9457,9.9389,9.927,9.8974,9.8785,9.8751,9.8806,9.8763,9.8834,9.9412,10.0804,10.2416,10.1478,9.7242,9.936,10.1106,10.1375,10.2578,10.3758,10.4089,10.4259,10.4478,10.4599,10.4835,10.4969,10.5116,10.5124,10.5127,10.5077,10.4767,10.5483,10.6695,10.6963,10.7455,10.8637,10.855,10.8978,10.8405,10.6595,10.5003,10.4772,10.4771,10.4769,10.5136,10.4837,10.506,10.4764,10.4993,10.5188,10.5191,10.5178,10.4986,10.4507,10.4411,10.4245,10.3879,10.4061,10.3754,10.3617,10.2708,10.1951,10.1875,10.0928,9.9947,10.2828,10.3044,10.3096,10.3227,10.3438,10.3486,10.3498,10.351,0.0,0.0,0.0,10.2619,10.2619,10.2619,10.2619,10.2691,10.275,10.2713,10.2759,10.2779,10.2779,10.2827,10.279,10.2827,10.2972,10.3245,10.333,10.3394,10.3568,10.3577,10.3577,10.3577,10.3577,10.2919,10.1602,10.0563,9.9915,9.9574,9.9246,9.9206,9.9553,9.9544,10.0293,10.1789,10.0471,10.0302,10.1418,10.0462,10.0298,10.1232,9.9931,9.9125,9.8885,9.766,9.6359,9.5034,9.5092,9.5203,9.5238,9.5395,9.5618,9.5924,9.7431,9.7382,9.5303,9.5605,9.6515,9.7763,9.8207,9.9016,10.0451,10.1846,10.2736,10.2898,10.4152,10.4875,10.489,10.4959,10.4782,10.4937,10.4666,10.4878,10.5147,10.5224,10.5371,10.5639,10.5986,10.5675,10.5568,10.5163,10.458,10.4594,10.4443,10.4709,10.4735,10.4577,10.4764,10.4503,10.4572,10.4752,10.4752,10.4784,10.421,10.2949,10.2694,10.2143,10.0999,10.0872,10.0579,10.061,10.0322,10.0137,10.0137,9.9871,9.9576,10.2324,0.0,10.245,10.2523,0.0,10.2619,10.1727,10.0156,10.0156,10.0193,10.0193,10.0156,10.0156,10.0193,10.0156,10.0156,10.0193,10.0156,10.0204,10.0156,10.0193,10.0167,10.0156,10.0156,10.0296,10.0474,10.0474,10.0533,10.0662,10.0634,10.0672,10.0634,10.0672,10.0293,9.9605,9.8992,9.8271,9.7474,9.9007,9.9915,10.008,10.0126,10.056,10.1351,0.0,0.0,0.0,0.0,0.0,0.0,0.0,0.0,0.0,0.0,0.0,9.3856,9.3906,9.3952,9.3962,9.4062,9.4269,9.4464,9.5182,9.4928,9.333,9.4121,9.4945,9.5591,9.5768,9.6205,9.7152,9.7986,9.8562,9.8685,10.0128,10.1115,10.1231,10.1901,10.237,10.2412,10.2309,10.2656,10.3454,10.3568,10.3909,10.4706,10.4858,10.4933,10.4742,10.3504,10.2452,10.2442,10.2408,10.2417,10.2313,10.2315,10.2276,10.2316,10.2279,10.2316,10.2315,10.2309,10.2109,10.1313,10.1048,10.0854,9.9961,9.9805,9.9787,9.9718,9.973,9.9284,9.754,9.728,9.7244,10.169,10.1727,10.1715,10.1727,10.1715,10.1583,10.0074,9.7731,9.7482,9.7296,9.7296,9.6999,9.6851,9.6839,9.6839,9.6877,9.6851,9.6839,9.6877,9.6877,9.6814,9.6839,9.6839,9.6839,9.6839,9.6839,9.6851,9.6839,9.6839,9.6839,9.6851,9.6839,9.6851,9.6983,9.7172,0.0,0.0,0.0,9.8547,10.0016,10.011,10.0465,10.0632,10.061,9.9343,0.0,9.6643,9.6311,9.5626,9.4569,9.4171,0.0,0.0,0.0,0.0,0.0,0.0,0.0,0.0,0.0,0.0,0.0,9.2623,9.2383,9.1455,9.2724,9.3674,9.3787,9.401,9.4349,9.4696,9.4837,9.4843,9.4889,9.607,9.6903,9.6939,9.8421,9.9445,9.9447,9.9751,10.0474,10.1731,10.1953,10.2449,10.3591,10.4,10.3998,10.389,10.1652,10.0016,9.9903,10.0172,9.998,9.9903,10.0022,10.0219,9.9906,9.9902,9.9992,10.007,10.0039,9.9961,9.9962,9.9885,9.9923,9.9918,9.9614,9.9302,9.9258,9.894,9.8004,9.5457,9.4894,9.4856,9.8362,9.8373,9.841,9.841,9.8339,9.7795,9.7636,9.7668,9.6342,9.5748,9.5636,9.4166,9.3572,9.3535,9.3561,9.3535,9.3535,9.3535,9.3524,9.3535,9.3535,9.3535,9.3535,9.3561,9.3535,9.3535,9.3535,9.3535,9.3535,9.3535,9.3572,9.3535,9.3535,9.3556,9.3599,9.3599,9.352,9.3397,9.5208,9.6361,9.6659,9.8135,9.8908,9.8992,9.7687,9.6767,9.6424,9.5267,9.4985,9.5833,9.4516,9.3655,9.3389,9.1876,9.0421,0.0,8.9165,0.0,0.0,0.0,0.0,0.0,0.0,0.0,0.0,8.9814,9.0473,9.1814,9.2224,9.2972,9.4241,9.4659,9.484,9.4889,9.5046,9.5198,9.5236,9.6676,9.7698,9.7736,9.899,9.9941,10.013,10.0244,10.0244,10.0586,10.0661,10.0661,10.0586,10.0206,9.9827,9.9903,9.9903,9.9903,9.9903,9.9865,9.9827,9.9865,9.9724,9.9913,9.9727,9.9734,9.9812,9.9775,9.9665,9.975,9.9885,9.8634,9.7723,9.7671,9.6448,9.531,9.4746,9.4558,9.4856,9.673,9.6694,9.6694,9.5676,9.4132,9.417,9.4408,9.4602,9.4226,9.4028,9.3991,9.3238,9.2903,9.2903,9.2903,9.2903,9.2903,9.2903,9.2903,9.2903,9.2903,9.2903,9.2903,9.2903,9.2903,9.2903,9.2903,9.2903,9.2903,9.2903,9.2903,9.2903,9.2903,9.2012,9.0278,9.024,9.068,9.1624,9.2382,9.3334,9.4463,9.5323,9.5762,9.5788,9.52,9.4447,9.3504,9.2903,9.2354,9.1936,9.1174,9.0681,9.0494,8.9739,8.8546,0.0,0.0,0.0,0.0,0.0,0.0,0.0,0.0,0.0,0.0,0.0,8.6807,8.8705,8.9169,8.9894,9.1326,9.1757,9.198,9.197,9.2766,9.3435,9.3561,9.5008,9.5955,9.5993,9.6638,9.7095,9.7133,9.7928,9.8497,9.8497,9.7738,9.774,9.9369,9.9066,9.8838,9.9789,9.9903,9.9903,9.9903,9.9142,9.8497,9.8421,9.7738,9.7095,9.7095,9.7095,9.7133,9.7095,9.7133,9.7105,9.7087,9.6409,9.6001,9.5673,9.3965,9.2367,9.2177,9.2139,9.2177,9.4734,9.4719,9.4372,9.2908,9.0918,9.1448,9.1765,9.1883,9.1908,9.195,9.1913,9.1506,9.1358,9.1321,9.1358,9.1414,9.1515,9.1515,9.1607,9.1752,9.1752,9.1752,9.1752,9.1752,9.1752,9.179,9.1752,9.179,9.1752,9.1752,9.1752,9.1752,9.1752,9.05,8.8134,8.8022,8.8695,8.9992,8.9992,9.0824,9.2582,9.3164,9.3259,9.2886,9.2895,9.2119,9.0558,9.0483,8.9905,8.8554,8.8034,8.7757,8.77,8.73,0.0,0.0,0.0,0.0,0.0,0.0,0.0,0.0,0.0,8.0609,8.2333,0.0,8.3607,0.0,8.6077,8.6866,8.7905,8.8564,0.0,0.0,9.0447,9.1546,9.1816,9.3233,9.423,9.4285,9.4629,9.4856,9.4856,9.5993,9.6676,9.6256,9.5461,9.5767,9.8195,9.7548,9.7245,9.8347,9.8575,9.8726,9.8537,9.7586,9.6789,9.6789,9.5765,9.4856,9.4856,9.4856,9.4856,9.4856,9.4856,9.4856,9.4972,9.4515,9.4228,9.3607,9.1773,9.0001,9.0001,9.0041,9.0041,9.1527,9.1413,9.0117,8.9735,9.01,9.0272,9.0645,9.1123,8.9738,8.913,8.9057,8.7544,8.6836,8.6836,8.6823,0.0,8.7537,8.7574,8.7901,8.8431,8.8468,8.8431,8.8431,8.8468,8.8431,8.8468,8.8431,8.8468,8.8468,8.8458,8.8431,8.8431,8.8431,8.832,8.8097,8.8012,8.8144,8.8256,8.8293,8.9049,9.0776,9.247,9.2594,9.1046,9.1113,9.0347,8.876,8.8676,8.8646,8.8566,8.6899,8.5987,8.6071,0.0,0.0,0.0,0.0,0.0,0.0,0.0,0.0,0.0,0.0,0.0,0.0,0.0,0.0,0.0,8.3642,0.0,8.4577,8.6082,0.0,0.0,0.0,8.9597,8.9804,9.1329,9.2475,9.2684,0.0,0.0,9.4856,0.0,9.4515,9.3109,9.4058,9.4932,9.5198,9.5234,9.5084,9.5378,9.5348,9.531,9.5562,9.5336,9.5144,9.5031,9.497,9.4663,9.4667,9.4667,9.4818,9.4667,9.4818,9.478,9.4818,9.3528,9.2238,9.0805,9.0232,9.0001,9.0001,9.0001,9.0001,8.7573,8.3955,8.3418,8.33,8.3578,8.4079,8.4472,8.4727,8.4548,8.4515,8.4442,8.3771,8.3466,8.3479,8.3479,0.0,0.0,0.0,8.5531,8.606,8.7062,8.7675,8.8049,8.8022,8.8022,8.8022,8.8022,8.8022,8.8022,8.8022,8.7215,8.5616,0.0,0.0,8.699,8.731,8.7484,8.7495,8.784,8.8377,8.9049,8.9769,8.9849,8.9294,8.9451,8.9279,8.8569,8.7597,8.6994,8.6952,8.5075,8.3943,0.0,0.0,0.0,0.0,0.0,0.0,0.0,0.0,0.0,0.0,0.0,7.2301,7.4105,0.0,0.0,0.0,7.9109,8.0311,8.2242,8.4053,0.0,0.0,0.0,0.0,0.0,0.0,0.0,8.9111,9.0632,9.1662,9.1662,9.0083,8.9394,9.0834,9.0643,9.1499,9.4326,0.0,9.3531,9.4399,9.4498,9.4498,9.4498,9.4498,9.4157,9.3165,9.229,9.1754,9.1888,9.1936,9.1936,9.1935,9.1935,9.1936,9.1898,9.1441,9.0758,9.0153,9.0001,9.0001,9.0001,9.0001,9.0001,8.2832,0.0,0.0,0.0,0.0,7.955,7.9925,8.0158,8.0727,8.0986,8.0986,8.095,0.0,0.0,0.0,0.0,0.0,0.0,8.3337,8.3925,8.4993,8.5759,8.623,8.6348,8.6437,8.6474,8.7033,8.7033,8.6474,8.6284,8.5254,8.3346,0.0,0.0,0.0,0.0,8.6643,8.7085,8.7539,8.7787,8.7761,8.7657,8.7616,8.7744,8.8147,8.8257,8.7905,8.6614,8.565,8.5085,8.3047,0.0,0.0,0.0,0.0,0.0,0.0,0.0,0.0,0.0,0.0,0.0,0.0,0.0,0.0,0.0,0.0,0.0,0.0,0.0,7.892,8.0757,8.182,0.0,0.0,0.0,0.0,0.0,0.0,0.0,0.0,0.0,8.798,8.6509,8.6208,0.0,0.0,8.8563,9.1957,9.1408,9.1175,9.2596,0.0,0.0,0.0,9.2802,9.2419,9.1233,9.0215,8.9542,8.9755,8.9893,8.9956,8.9931,8.9911,9.0001,9.0001,9.0001,9.0001,9.0001,9.0001,9.0001,9.0001,9.0001,9.0001,0.0,0.0,0.0,0.0,0.0,0.0,0.0,0.0,7.9366,7.9344,0.0,7.9272,0.0,0.0,0.0,0.0,0.0,8.0627,0.0,0.0,8.1801,8.1826,8.1962,8.2442,8.261,8.2705,8.4644,8.4512,8.2562,8.2036,0.0,0.0,0.0,0.0,0.0,0.0,8.5584,8.6975,8.7085,8.7133,8.7122,8.6616,8.6434,8.6603,8.7305,8.7208,8.6243,8.5604,8.4658,8.3139,8.0957,0.0,0.0,0.0,0.0,0.0,0.0,0.0,0.0,0.0,0.0,0.0,0.0,0.0,0.0,0.0,0.0,0.0,0.0,0.0,0.0,7.5615,0.0,0.0,0.0,0.0,0.0,0.0,0.0,0.0,0.0,0.0,8.4308,8.5628,8.6282,8.4785,0.0,0.0,0.0,0.0,8.7585,8.9146,8.9377,8.9372,8.9372,8.941,8.9367,8.9297,0.0,0.0,8.9247,8.9675,8.9897,8.9644,8.9832,9.0001,8.996,8.9803,8.9843,8.9881,8.9841,8.9962,8.9962,8.9757,8.9913,0.0,0.0,0.0,0.0,0.0,0.0,0.0,0.0,0.0,7.6641,0.0,7.5589,0.0,0.0,0.0,0.0,0.0,0.0,0.0,0.0,7.9023,8.0274,8.1642,8.1816,8.1938,0.0,8.2656,8.0313,0.0,0.0,0.0,0.0,0.0,0.0,0.0,0.0,8.3871,8.4453,8.5846,8.6565,8.6565,8.6381,8.6354,8.65,8.6781,8.6348,8.5125,8.2964,8.1,0.0,0.0,0.0,0.0,0.0,0.0,0.0,0.0,0.0,0.0,0.0,0.0,0.0,0.0,0.0,0.0,0.0,0.0,0.0,0.0,0.0,0.0,0.0,7.2426,0.0,0.0,0.0,0.0,0.0,0.0,0.0,0.0,0.0,8.248,8.2105,8.2543,8.4134,8.3912,8.4321,8.6351,0.0,0.0,0.0,0.0,0.0,0.0,0.0,8.7174,8.7166,8.8234,8.9102,8.9102,8.9438,8.9744,8.9621,0.0,0.0,8.8262,8.7059,8.6681,8.7771,8.7998,8.7623,8.6533,8.7998,8.9164,0.0,0.0,0.0,0.0,0.0,0.0,0.0,0.0,0.0,7.2673,7.2618,0.0,0.0,0.0,0.0,0.0,0.0,0.0,0.0,0.0,0.0,0.0,7.7911,7.8128,0.0,0.0,0.0,0.0,0.0,0.0,0.0,0.0,0.0,0.0,0.0,0.0,8.1971,8.3034,8.4435,8.549,8.6021,8.5822,8.5554,8.5115,8.5363,8.4823,8.3404,0.0,0.0,0.0,0.0,0.0,0.0,0.0,0.0,0.0,0.0,0.0,0.0,0.0,0.0,0.0,0.0,0.0,0.0,0.0,0.0,0.0,0.0,0.0,0.0,0.0,6.8415,0.0,0.0,0.0,0.0,0.0,0.0,0.0,0.0,0.0,0.0,0.0,8.0574,8.2243,8.2474,8.3243,8.528,8.5057,8.4866,0.0,0.0,0.0,0.0,0.0,0.0,0.0,0.0,0.0,0.0,0.0,0.0,0.0,0.0,8.7702,8.6314,8.5135,8.4719,8.5847,0.0,0.0,0.0,0.0,0.0,0.0,0.0,0.0,0.0,0.0,0.0,0.0,0.0,0.0,0.0,0.0,0.0,0.0,6.8077,0.0,0.0,0.0,0.0,0.0,0.0,0.0,0.0,0.0,0.0,0.0,0.0,0.0,0.0,0.0,0.0,0.0,0.0,0.0,0.0,0.0,0.0,0.0,8.2773,8.2896,8.3712,8.5256,8.4752,8.3773,8.2483,8.2997,8.2575,8.0958,0.0,0.0,0.0,0.0,0.0,0.0,0.0,0.0,0.0,0.0,0.0,0.0,0.0,0.0,0.0,0.0,0.0,0.0,0.0,0.0,0.0,0.0,0.0,0.0,0.0,0.0,6.6471,6.935,7.1219,0.0,0.0,0.0,0.0,0.0,0.0,0.0,0.0,0.0,0.0,8.1545,8.3593,8.3706,8.5014,8.6293,8.7918,8.8275,8.8387,8.8209,8.8367,8.8554,0.0,0.0,0.0,0.0,0.0,0.0,0.0,0.0,0.0,0.0,0.0,0.0,0.0,0.0,0.0,0.0,0.0,0.0,0.0,0.0,0.0,0.0,0.0,0.0,0.0,0.0,0.0,0.0,0.0,0.0,0.0,0.0,0.0,0.0,0.0,0.0,0.0,0.0,0.0,0.0,0.0,0.0,0.0,0.0,0.0,0.0,0.0,0.0,0.0,0.0,0.0,0.0,0.0,0.0,7.7161,7.9168,8.0385,8.1159,8.1572,8.1552,8.1286,8.0809,8.106,7.9972,0.0,0.0,0.0,0.0,0.0,0.0,0.0,0.0,0.0,0.0,0.0,0.0,0.0,0.0,0.0,0.0,0.0,0.0,0.0,0.0,0.0,0.0,0.0,0.0,0.0,0.0,0.0,0.0,6.7156,6.8384,6.9567,0.0,0.0,0.0,0.0,0.0,0.0,0.0,0.0,0.0,0.0,7.8986,8.1177,8.1866,8.2075,8.1708,8.3421,8.4413,8.3598,8.4461,8.5247,8.5247,0.0,0.0,0.0,0.0,0.0,0.0,0.0,0.0,0.0,0.0,0.0,0.0,0.0,0.0,0.0,0.0,0.0,0.0,0.0,0.0,0.0,0.0,0.0,0.0,0.0,0.0,0.0,0.0,0.0,0.0,0.0,0.0,0.0,0.0,0.0,0.0,0.0,0.0,0.0,0.0,0.0,0.0,0.0,0.0,0.0,0.0,0.0,0.0,0.0,0.0,0.0,0.0,0.0,7.4973,7.6288,7.813,7.9366,7.9863,8.0036,7.9828,7.9142,7.9305,7.7756,0.0,0.0,0.0,0.0,0.0,0.0,0.0,0.0,0.0,0.0,0.0,0.0,0.0,0.0,0.0,0.0,0.0,0.0,0.0,0.0,0.0,0.0,0.0,0.0,0.0,0.0,0.0,0.0,6.5378,6.6178,6.7861,0.0,0.0,0.0,0.0,0.0,0.0,0.0,0.0,0.0,0.0,7.7631,8.0112,8.1021,0.0,0.0,8.1857,8.2654,8.2287,8.2926,8.3527,8.3764,8.3751,0.0,0.0,0.0,0.0,0.0,0.0,0.0,0.0,0.0,0.0,0.0,0.0,0.0,0.0,0.0,0.0,0.0,0.0,0.0,0.0,0.0,0.0,0.0,0.0,0.0,0.0,0.0,0.0,0.0,0.0,0.0,0.0,0.0,0.0,0.0,0.0,0.0,0.0,0.0,0.0,0.0,0.0,0.0,0.0,0.0,0.0,0.0,0.0,0.0,0.0,0.0,0.0,0.0,7.4215,7.633,7.8075,7.9506,7.9593,7.8895,7.7483,7.7535,7.5723,0.0,0.0,0.0,0.0,0.0,0.0,0.0,0.0,0.0,0.0,0.0,0.0,0.0,0.0,0.0,0.0,0.0,0.0,0.0,0.0,0.0,0.0,0.0,0.0,0.0,0.0,0.0,0.0,0.0,0.0,0.0,0.0,0.0,0.0,0.0,0.0,0.0,0.0,0.0,0.0,0.0,7.8181,7.9851,8.1531,8.275,0.0,0.0,8.2689,8.3398,8.3129,8.3001,8.3445,0.0,0.0,0.0,0.0,0.0,0.0,0.0,0.0,0.0,0.0,0.0,0.0,0.0,0.0,0.0,0.0,0.0,0.0,0.0,0.0,0.0,0.0,0.0,0.0,0.0,0.0,0.0,0.0,0.0,0.0,0.0,0.0,0.0,0.0,0.0,0.0,0.0,0.0,0.0,0.0,0.0,0.0,0.0,0.0,0.0,0.0,0.0,0.0,0.0,0.0,0.0,0.0,0.0,0.0,7.3209,7.5029,7.6074,7.6382,7.6607,7.6466,7.5984,7.4998,0.0,0.0,0.0,0.0,0.0,0.0,0.0,0.0,0.0,0.0,0.0,0.0,0.0,0.0,0.0,0.0,0.0,0.0,0.0,0.0,0.0,0.0,0.0,0.0,0.0,0.0,0.0,6.2295,0.0,0.0,0.0,0.0,0.0,0.0,0.0,0.0,0.0,0.0,0.0,0.0,0.0,0.0,7.2731,7.5562,7.735,7.8497,0.0,0.0,8.1942,8.1041,8.1018,8.1142,0.0,0.0,0.0,0.0,0.0,0.0,0.0,0.0,0.0,0.0,0.0,0.0,0.0,0.0,0.0,0.0,0.0,0.0,0.0,0.0,0.0,0.0,0.0,0.0,0.0,0.0,0.0,0.0,0.0,0.0,0.0,0.0,0.0,0.0,0.0,0.0,0.0,0.0,0.0,0.0,0.0,0.0,0.0,0.0,0.0,0.0,0.0,0.0,0.0,0.0,0.0,0.0,0.0,0.0,6.9486,7.0388,7.1947,7.2954,7.3207,7.3359,7.323,7.2859,7.2136,6.9797,0.0,0.0,0.0,0.0,0.0,0.0,0.0,0.0,0.0,0.0,0.0,0.0,0.0,0.0,0.0,0.0,0.0,0.0,0.0,0.0,0.0,0.0,0.0,0.0,0.0,0.0,0.0,0.0,0.0,0.0,0.0,0.0,0.0,0.0,0.0,0.0,0.0,0.0,0.0,0.0,0.0,0.0,7.2996,7.4864,0.0,0.0,0.0,7.8353,7.7189,0.0,0.0,0.0,0.0,0.0,0.0,0.0,0.0,0.0,0.0,0.0,0.0,0.0,0.0,0.0,0.0,0.0,0.0,0.0,0.0,0.0,0.0,0.0,0.0,0.0,0.0,0.0,0.0,0.0,0.0,0.0,0.0,0.0,0.0,0.0,0.0,0.0,0.0,0.0,0.0,0.0,0.0,0.0,0.0,0.0,0.0,0.0,0.0,0.0,0.0,0.0,0.0,0.0,0.0,0.0,0.0,0.0,6.7088,6.8707,6.9822,7.0383,7.0433,7.0068,6.9311,6.921,6.7149,0.0,0.0,0.0,0.0,0.0,0.0,0.0,0.0,0.0,0.0,0.0,0.0,0.0,0.0,0.0,0.0,0.0,0.0,0.0,0.0,0.0,0.0,0.0,0.0,0.0,0.0,0.0,0.0,0.0,0.0,0.0,0.0,0.0,0.0,0.0,0.0,0.0,0.0,0.0,0.0,0.0,7.0161,7.1406,7.3169,7.3938,0.0,0.0,7.3774,7.3144,7.3037,0.0,0.0,0.0,0.0,0.0,0.0,0.0,0.0,0.0,0.0,0.0,0.0,0.0,0.0,0.0,0.0,0.0,0.0,0.0,0.0,0.0,0.0,0.0,0.0,0.0,0.0,0.0,0.0,0.0,0.0,0.0,0.0,0.0,0.0,0.0,0.0,0.0,0.0,0.0,0.0,0.0,0.0,0.0,0.0,0.0,0.0,0.0,0.0,0.0,0.0,0.0,0.0,0.0,0.0,0.0,0.0,6.7102,6.9209,7.0076,6.9668,6.9638,6.9316,6.8617,6.6744,6.4324,0.0,0.0,0.0,0.0,0.0,0.0,0.0,0.0,0.0,0.0,0.0,0.0,0.0,0.0,0.0,0.0,0.0,0.0,0.0,0.0,0.0,0.0,0.0,0.0,0.0,0.0,0.0,0.0,0.0,0.0,0.0,0.0,0.0,0.0,0.0,0.0,0.0,0.0,0.0,0.0,0.0,6.7814,6.9387,6.9954,0.0,0.0,0.0,0.0,7.1811,7.2218,0.0,0.0,0.0,0.0,0.0,0.0,0.0,0.0,0.0,0.0,0.0,0.0,0.0,0.0,0.0,0.0,0.0,0.0,0.0,0.0,0.0,0.0,0.0,0.0,0.0,0.0,0.0,0.0,0.0,0.0,0.0,0.0,0.0,0.0,0.0,0.0,0.0,0.0,0.0,0.0,0.0,0.0,0.0,0.0,0.0,0.0,0.0,0.0,0.0,0.0,0.0,0.0,0.0,0.0,0.0,0.0,6.5938,6.6835,6.7075,6.6702,6.6667,6.6044,6.4732,6.3416,6.1287,0.0,0.0,0.0,0.0,0.0,0.0,0.0,0.0,0.0,0.0,0.0,0.0,0.0,0.0,0.0,0.0,0.0,0.0,0.0,0.0,0.0,0.0,0.0,0.0,0.0,0.0,0.0,0.0,0.0,0.0,0.0,0.0,0.0,0.0,0.0,0.0,0.0,0.0,0.0,0.0,6.6694,6.7041,6.7713,0.0,0.0,0.0,0.0,0.0,0.0,7.0027,7.0372,0.0,0.0,0.0,0.0,0.0,0.0,0.0,0.0,0.0,0.0,0.0,0.0,0.0,0.0,0.0,0.0,0.0,0.0,0.0,0.0,0.0,0.0,0.0,0.0,0.0,0.0,0.0,0.0,0.0,0.0,0.0,0.0,0.0,0.0,0.0,0.0,0.0,0.0,0.0,0.0,0.0,0.0,0.0,0.0,0.0,0.0,0.0,0.0,0.0,0.0,0.0,0.0,0.0,0.0,0.0,6.4387,6.4013,6.3736,6.3592,6.3385,6.238,6.0558,6.0111,5.8324,5.5055,0.0,0.0,0.0,0.0,0.0,0.0,0.0,0.0,0.0,0.0,0.0,0.0,0.0,0.0,0.0,0.0,0.0,0.0,0.0,0.0,0.0,0.0,0.0,0.0,0.0,0.0,0.0,0.0,0.0,0.0,0.0,0.0,0.0,0.0,0.0,0.0,0.0,0.0,0.0,6.6829,6.6977,0.0,0.0,0.0,0.0,0.0,0.0,0.0,0.0,6.8114,0.0,0.0,0.0,0.0,0.0,0.0,0.0,0.0,0.0,0.0,0.0,0.0,0.0,0.0,0.0,0.0,0.0,0.0,0.0,0.0,0.0,0.0,0.0,0.0,0.0,0.0,0.0,0.0,0.0,0.0,0.0,0.0,0.0,0.0,0.0,0.0,0.0,0.0,0.0,0.0,0.0,0.0,0.0,0.0,0.0,0.0,0.0,0.0,0.0,0.0,0.0,0.0,0.0,0.0,0.0,0.0,6.3532,6.3466,6.2919,6.1755,6.0729,5.9825,5.7784,5.568,5.3464,0.0,0.0,0.0,0.0,0.0,0.0,0.0,0.0,0.0,0.0,0.0,0.0,0.0,0.0,0.0,0.0,0.0,0.0,0.0,0.0,0.0,0.0,0.0,0.0,0.0,0.0,0.0,0.0,0.0,0.0,0.0,0.0,0.0,0.0,0.0,0.0,0.0,0.0,6.6305,6.6544,0.0,0.0,0.0,0.0,0.0,0.0,0.0,0.0,6.7326,0.0,0.0,0.0,0.0,0.0,0.0,0.0,0.0,0.0,0.0,0.0,0.0,0.0,0.0,0.0,0.0,0.0,0.0,0.0,0.0,0.0,0.0,0.0,0.0,0.0,0.0,0.0,0.0,0.0,0.0,0.0,0.0,0.0,0.0,0.0,0.0,0.0,0.0,0.0,0.0,0.0,0.0,0.0,0.0,0.0,0.0,0.0,0.0,0.0,0.0,0.0,0.0,0.0,0.0,0.0,0.0,0.0,0.0,6.256,6.116,6.045,5.9235,5.7355,5.5444,5.4025,0.0,0.0,0.0,0.0,0.0,0.0,0.0,0.0,0.0,0.0,0.0,0.0,0.0,0.0,0.0,0.0,0.0,0.0,0.0,0.0,0.0,0.0,0.0,0.0,0.0,0.0,0.0,0.0,0.0,0.0,0.0,0.0,0.0,0.0,0.0,0.0,0.0,0.0,0.0,0.0,0.0,0.0,0.0,0.0,0.0,0.0,0.0,0.0,0.0,0.0,0.0,0.0,0.0,0.0,0.0,0.0,0.0,0.0,0.0,0.0,0.0,0.0,0.0,0.0,0.0,0.0,0.0,0.0,0.0,0.0,0.0,0.0,0.0,0.0,0.0,0.0,0.0,0.0,0.0,0.0,0.0,0.0,0.0,0.0,0.0,0.0,0.0,0.0,0.0,0.0,0.0,0.0,0.0,0.0,0.0,0.0,0.0,0.0,0.0,0.0,0.0,0.0,0.0,0.0,0.0,0.0,0.0,0.0,6.1956,5.9737,5.9333,5.7892,5.5244,5.3818,5.2985,0.0,0.0,0.0,0.0,0.0,0.0,0.0,0.0,0.0,0.0,0.0,0.0,0.0,0.0,0.0,0.0,0.0,0.0,0.0,0.0,0.0,0.0,0.0,0.0,0.0,0.0,0.0,0.0,0.0,0.0,0.0,0.0,0.0,0.0,0.0,0.0,0.0,0.0,0.0,0.0,0.0,0.0,0.0,0.0,0.0,0.0,0.0,0.0,6.664,0.0,0.0,0.0,0.0,0.0,0.0,0.0,0.0,0.0,0.0,0.0,0.0,0.0,0.0,0.0,0.0,0.0,0.0,0.0,0.0,0.0,0.0,0.0,0.0,0.0,0.0,0.0,0.0,0.0,0.0,0.0,0.0,0.0,0.0,0.0,0.0,0.0,0.0,0.0,0.0,0.0,0.0,0.0,0.0,0.0,0.0,0.0,0.0,0.0,0.0,0.0,0.0,0.0,0.0,0.0,0.0,0.0,0.0,0.0,6.2456,5.9719,5.8294,5.6819,5.5244,5.3802,5.2734,0.0,0.0,0.0,0.0,0.0,0.0,0.0,0.0,0.0,0.0,0.0,0.0,0.0,0.0,0.0,0.0,0.0,0.0,0.0,0.0,0.0,0.0,0.0,0.0,0.0,0.0,0.0,0.0,0.0,0.0,0.0,0.0,0.0,0.0,0.0,0.0,0.0,0.0,0.0,0.0,0.0,0.0,0.0,0.0,0.0,0.0,0.0,0.0,0.0,0.0,0.0,0.0,0.0,0.0,0.0,0.0,0.0,0.0,0.0,0.0,0.0,0.0,0.0,0.0,0.0,0.0,0.0,0.0,0.0,0.0,0.0,0.0,0.0,0.0,0.0,0.0,0.0,0.0,0.0,0.0,0.0,0.0,0.0,0.0,0.0,0.0,0.0,0.0,0.0,0.0,0.0,0.0,0.0,0.0,0.0,0.0,0.0,0.0,0.0,0.0,0.0,0.0,0.0,0.0,0.0,0.0,0.0,0.0,6.1295,5.8395,5.7691,5.6052,5.3379,5.27,5.2224,0.0,0.0,0.0,0.0,0.0,0.0,0.0,0.0,0.0,0.0,0.0,0.0,0.0,0.0,0.0,0.0,0.0,0.0,0.0,0.0,0.0,0.0,0.0,0.0,0.0,0.0,0.0,0.0,0.0,0.0,0.0,0.0,0.0,0.0,0.0,0.0,0.0,0.0,0.0,0.0,0.0,0.0,0.0,0.0,0.0,0.0,0.0,0.0,0.0,0.0,0.0,0.0,0.0,0.0,0.0,0.0,0.0,0.0,0.0,0.0,0.0,0.0,0.0,0.0,0.0,0.0,0.0,0.0,0.0,0.0,0.0,0.0,0.0,0.0,0.0,0.0,0.0,0.0,0.0,0.0,0.0,0.0,0.0,0.0,0.0,0.0,0.0,0.0,0.0,0.0,0.0,0.0,0.0,0.0,0.0,0.0,0.0,0.0,0.0,0.0,0.0,0.0,0.0,0.0,0.0,0.0,0.0,0.0,0.0,5.7271,5.7104,5.542,5.2081,5.1916,5.1719,0.0,0.0,0.0,0.0,0.0,0.0,0.0,0.0,0.0,0.0,0.0,0.0,0.0,0.0,0.0,0.0,0.0,0.0,0.0,0.0,0.0,0.0,0.0,0.0,0.0,0.0,0.0,0.0,0.0,0.0,0.0,0.0,0.0,0.0,0.0,0.0,0.0,0.0,0.0,0.0,0.0,0.0,0.0,0.0,0.0,0.0,0.0,0.0,0.0,0.0,0.0,0.0,0.0,0.0,0.0,0.0,0.0,0.0,0.0,0.0,0.0,0.0,0.0,0.0,0.0,0.0,0.0,0.0,0.0,0.0,0.0,0.0,0.0,0.0,0.0,0.0,0.0,0.0,0.0,0.0,0.0,0.0,0.0,0.0,0.0,0.0,0.0,0.0,0.0,0.0,0.0,0.0,0.0,0.0,0.0,0.0,0.0,0.0,0.0,0.0,0.0,0.0,0.0,0.0,0.0,0.0,0.0,0.0,0.0,5.6516,5.6433,5.5013,5.2031,5.1883,5.1219,0.0,0.0,0.0,0.0,0.0,0.0,0.0,0.0,0.0,0.0,0.0,0.0,0.0,0.0,0.0,0.0,0.0,0.0,0.0,0.0,0.0,0.0,0.0,0.0,0.0,0.0,0.0,0.0,0.0,0.0,0.0,0.0,0.0,0.0,0.0,0.0,0.0,0.0,0.0,0.0,0.0,0.0,0.0,0.0,0.0,0.0,0.0,0.0,0.0,0.0,0.0,0.0,0.0,0.0,0.0,0.0,0.0,0.0,0.0,0.0,0.0,0.0,0.0,0.0,0.0,0.0,0.0,0.0,0.0,0.0,0.0,0.0,0.0,0.0,0.0,0.0,0.0,0.0,0.0,0.0,0.0,0.0,0.0,0.0,0.0,0.0,0.0,0.0,0.0,0.0,0.0,0.0,0.0,0.0,0.0,0.0,0.0,0.0,0.0,0.0,0.0,0.0,0.0,0.0,0.0,0.0,0.0,0.0,0.0,5.658,5.638,5.4929,5.1949,5.1437,5.0897,5.0344,0.0,0.0,0.0,0.0,0.0,0.0,0.0,0.0,0.0,0.0,0.0,0.0,0.0,0.0,0.0,0.0,0.0,0.0,0.0,0.0,0.0,0.0,0.0,0.0,0.0,0.0,0.0,0.0,0.0,0.0,0.0,0.0,0.0,0.0,0.0,0.0,0.0,0.0,0.0,0.0,0.0,0.0,0.0,0.0,0.0,0.0,0.0,0.0,0.0,0.0,0.0,0.0,0.0,0.0,0.0,0.0,0.0,0.0,0.0,0.0,0.0,0.0,0.0,0.0,0.0,0.0,0.0,0.0,0.0,0.0,0.0,0.0,0.0,0.0,0.0,0.0,0.0,0.0,0.0,0.0,0.0,0.0,0.0,0.0,0.0,0.0,0.0,0.0,0.0,0.0,0.0,0.0,0.0,0.0,0.0,0.0,0.0,0.0,0.0,0.0,0.0,0.0,0.0,0.0,0.0,0.0,0.0,0.0,5.6054,5.5739,5.4196,5.1315,5.0641,5.0379,0.0,0.0,0.0,0.0,0.0,0.0,0.0,0.0,0.0,0.0,0.0,0.0,0.0,0.0,0.0,0.0,0.0,0.0,0.0,0.0,0.0,0.0,0.0,0.0,0.0,0.0,0.0,0.0,0.0,0.0,0.0,0.0,0.0,0.0,0.0,0.0,0.0,0.0,0.0,0.0,0.0,0.0,0.0,0.0,0.0,0.0,0.0,0.0,0.0,0.0,0.0,0.0,0.0,0.0,0.0,0.0,0.0,0.0,0.0,0.0,0.0,0.0,0.0,0.0,0.0,0.0,0.0,0.0,0.0,0.0,0.0,0.0,0.0,0.0,0.0,0.0,0.0,0.0,0.0,0.0,0.0,0.0,0.0,0.0,0.0,0.0,0.0,0.0,0.0,0.0,0.0,0.0,0.0,0.0,0.0,0.0,0.0,0.0,0.0,0.0,0.0,0.0,0.0,0.0,0.0,0.0,0.0,0.0,0.0,5.5236,5.4319,5.2629,4.9754,4.9714,4.9646,0.0,0.0,0.0,0.0,0.0,0.0,0.0,0.0,0.0,0.0,0.0,0.0,0.0,0.0,0.0,0.0,0.0,0.0,0.0,0.0,0.0,0.0,0.0,0.0,0.0,0.0,0.0,0.0,0.0,0.0,0.0,0.0,0.0,0.0,0.0,0.0,0.0,0.0,0.0,0.0,0.0,0.0,0.0,0.0,0.0,0.0,0.0,0.0,0.0,0.0,0.0,0.0,0.0,0.0,0.0,0.0,0.0,0.0,0.0,0.0,0.0,0.0,0.0,0.0,0.0,0.0,0.0,0.0,0.0,0.0,0.0,0.0,0.0,0.0,0.0,0.0,0.0,0.0,0.0,0.0,0.0,0.0,0.0,0.0,0.0,0.0,0.0,0.0,0.0,0.0,0.0,0.0,0.0,0.0,0.0,0.0,0.0,0.0,0.0,0.0,0.0,0.0,0.0,0.0,0.0,0.0,0.0,0.0,0.0,5.7982,0.0,5.3232,0.0,5.1085,5.0621,0.0,0.0,0.0,0.0,0.0,0.0,0.0,0.0,0.0,0.0,0.0,0.0,0.0,0.0,0.0,0.0,0.0,0.0,0.0,0.0,0.0,0.0,0.0,0.0,0.0,0.0,0.0,0.0,0.0,0.0,0.0,0.0,0.0,0.0,0.0,0.0,0.0,0.0,0.0,0.0,0.0,0.0,0.0,0.0,0.0,0.0,0.0,0.0,0.0,0.0,0.0,0.0,0.0,0.0,0.0,0.0,0.0,0.0,0.0,0.0,0.0,0.0,0.0,0.0,0.0,0.0,0.0,0.0,0.0,0.0,0.0,0.0,0.0,0.0,0.0,0.0,0.0,0.0,0.0,0.0,0.0,0.0,0.0,0.0,0.0,0.0,0.0,0.0,0.0,0.0,0.0,0.0,0.0,0.0,0.0,0.0,0.0,0.0,0.0,0.0,0.0,0.0,0.0,0.0,0.0,0.0,0.0,0.0,0.0,5.8951,5.6154,5.4193,0.0,5.1567,5.1013,0.0,0.0,0.0,0.0,0.0,0.0,0.0,0.0,0.0,0.0,0.0,0.0,0.0,0.0,0.0,0.0,0.0,0.0,0.0,0.0,0.0,0.0,0.0,0.0,0.0,0.0,0.0,0.0,0.0,0.0,0.0,0.0,0.0,0.0,0.0,0.0,0.0,0.0,0.0,0.0,0.0,0.0,0.0,0.0,0.0,0.0,0.0,0.0,0.0,0.0,0.0,0.0,0.0,0.0,0.0,0.0,0.0,0.0,0.0,0.0,0.0,0.0,0.0,0.0,0.0,0.0,0.0,0.0,0.0,0.0,0.0,0.0,0.0,0.0,0.0,0.0,0.0,0.0,0.0,0.0,0.0,0.0,0.0,0.0,0.0,0.0,0.0,0.0,0.0,0.0,0.0,0.0,0.0,0.0,0.0,0.0,0.0,0.0,0.0,0.0,0.0,0.0,0.0,0.0,0.0,0.0,0.0,0.0,0.0,0.0,5.7098,5.5236,5.2734,5.1208,5.09,0.0,0.0,0.0,0.0,0.0,0.0,0.0,0.0,0.0,0.0,0.0,0.0,0.0,0.0,0.0,0.0,0.0,0.0,0.0,0.0,0.0,0.0,0.0,0.0,0.0,0.0,0.0,0.0,0.0,0.0,0.0,0.0,0.0,0.0,0.0,0.0,0.0,0.0,0.0,0.0,0.0,0.0,0.0,0.0,0.0,0.0,0.0,0.0,0.0,0.0,0.0,0.0,0.0,0.0,0.0,0.0,0.0,0.0,0.0,0.0,0.0,0.0,0.0,0.0,0.0,0.0,0.0,0.0,0.0,0.0,0.0,0.0,0.0,0.0,0.0,0.0,0.0,0.0,0.0,0.0,0.0,0.0,0.0,0.0,0.0,0.0,0.0,0.0,0.0,0.0,0.0,0.0,0.0,0.0,0.0,0.0,0.0,0.0,0.0,0.0,0.0,0.0,0.0,0.0,0.0,0.0,0.0,0.0,0.0,0.0,5.6266,0.0,5.4216,5.3151,5.2548,5.2449,0.0,0.0,0.0,0.0,0.0,0.0,0.0,0.0,0.0,0.0,0.0,0.0,0.0,0.0,0.0,0.0,0.0,0.0,0.0,0.0,0.0,0.0,0.0,0.0,0.0,0.0,0.0,0.0,0.0,0.0,0.0,0.0,0.0,0.0,0.0,0.0,0.0,0.0,0.0,0.0,0.0,0.0,0.0,0.0,0.0,0.0,0.0,0.0,0.0,0.0,0.0,0.0,0.0,0.0,0.0,0.0,0.0,0.0,0.0,0.0,0.0,0.0,0.0,0.0,0.0,0.0,0.0,0.0,0.0,0.0,0.0,0.0,0.0,0.0,0.0,0.0,0.0,0.0,0.0,0.0,0.0,0.0,0.0,0.0,0.0,0.0,0.0,0.0,0.0,0.0,0.0,0.0,0.0,0.0,0.0,0.0,0.0,0.0,0.0,0.0,0.0,0.0,0.0,0.0,0.0,0.0,0.0,0.0,0.0,0.0,0.0,5.5234,5.4493,5.356,0.0,0.0,0.0,0.0,0.0,0.0,0.0,0.0,0.0,0.0,0.0,0.0,0.0,0.0,0.0,0.0,0.0,0.0,0.0,0.0,0.0,0.0,0.0,0.0,0.0,0.0,0.0,0.0,0.0,0.0,0.0,0.0,0.0,0.0,0.0,0.0,0.0,0.0,0.0,0.0,0.0,0.0,0.0,0.0,0.0,0.0,0.0,0.0,0.0,0.0,0.0,0.0,0.0,0.0,0.0,0.0,0.0,0.0,0.0,0.0,0.0,0.0,0.0,0.0,0.0,0.0,0.0,0.0,0.0,0.0,0.0,0.0,0.0,0.0,0.0,0.0,0.0,0.0,0.0,0.0,0.0,0.0,0.0,0.0,0.0,0.0,0.0,0.0,0.0,0.0,0.0,0.0,0.0,0.0,0.0,0.0,0.0,0.0,0.0,0.0,0.0,0.0,0.0,0.0,0.0,0.0,0.0,0.0,0.0,0.0,0.0,5.7178,5.6005,5.5263,0.0,5.2772,0.0,0.0,0.0,0.0,0.0,0.0,0.0,0.0,0.0,0.0,0.0,0.0,0.0,0.0,0.0,0.0,0.0,0.0,0.0,0.0,0.0,0.0,0.0,0.0,0.0,0.0,0.0,0.0,0.0,0.0,0.0,0.0,0.0,0.0,0.0,0.0,0.0,0.0,0.0,0.0,0.0,0.0,0.0,0.0,0.0,0.0,0.0,0.0,0.0,0.0,0.0,0.0,0.0,0.0,0.0,0.0,0.0,0.0,0.0,0.0,0.0,0.0,0.0,0.0,0.0,0.0,0.0,0.0,0.0,0.0,0.0,0.0,0.0,0.0,0.0,0.0,0.0,0.0,0.0,0.0,0.0,0.0,0.0,0.0,0.0,0.0,0.0,0.0,0.0,0.0,0.0,0.0,0.0,0.0,0.0,0.0,0.0,0.0,0.0,0.0,0.0,0.0,0.0,0.0,0.0,0.0,0.0,0.0,0.0,0.0,0.0,0.0,5.5162,5.4428,5.532,0.0,0.0,0.0,0.0,0.0,0.0,0.0,0.0,0.0,0.0,0.0,0.0,0.0,0.0,0.0,0.0,0.0,0.0,0.0,0.0,0.0,0.0,0.0,0.0,0.0,0.0,0.0,0.0,0.0,0.0,0.0,0.0,0.0,0.0,0.0,0.0,0.0,0.0,0.0,0.0,0.0,0.0,0.0,0.0,0.0,0.0,0.0,0.0,0.0,0.0,0.0,0.0,0.0,0.0,0.0,0.0,0.0,0.0,0.0,0.0,0.0,0.0,0.0,0.0,0.0,0.0,0.0,0.0,0.0,0.0,0.0,0.0,0.0,0.0,0.0,0.0,0.0,0.0,0.0,0.0,0.0,0.0,0.0,0.0,0.0,0.0,0.0,0.0,0.0,0.0,0.0,0.0,0.0,0.0,0.0,0.0,0.0,0.0,0.0,0.0,0.0,0.0,0.0,0.0,0.0,0.0,0.0,0.0,0.0,0.0,5.5721,5.7457,5.4718,5.3892,5.5167,0.0,0.0,0.0,0.0,0.0,0.0,0.0,0.0,0.0,0.0,0.0,0.0,0.0,0.0,0.0,0.0,0.0,0.0,0.0,0.0,0.0,0.0,0.0,0.0,0.0,0.0,0.0,0.0,0.0,0.0,0.0,0.0,0.0,0.0,0.0,0.0,0.0,0.0,0.0,0.0,0.0,0.0,0.0,0.0,0.0,0.0,0.0,0.0,0.0,0.0,0.0,0.0,0.0,0.0,0.0,0.0,0.0,0.0,0.0,0.0,0.0,0.0,0.0,0.0,0.0,0.0,0.0,0.0,0.0,0.0,0.0,0.0,0.0,0.0,0.0,0.0,0.0,0.0,0.0,0.0,0.0,0.0,0.0,0.0,0.0,0.0,0.0,0.0,0.0,0.0,0.0,0.0,0.0,0.0,0.0,0.0,0.0,0.0,0.0,0.0,0.0,0.0,0.0,0.0,0.0,0.0,0.0,0.0,0.0,0.0,0.0,0.0,0.0,0.0,5.4001,0.0,0.0,0.0,0.0,0.0,0.0,0.0,0.0,0.0,0.0,0.0,0.0,0.0,0.0,0.0,0.0,0.0,0.0,0.0,0.0,0.0,0.0,0.0,0.0,0.0,0.0,0.0,0.0,0.0,0.0,0.0,0.0,0.0,0.0,0.0,0.0,0.0,0.0,0.0,0.0,0.0,0.0,0.0,0.0,0.0,0.0,0.0,0.0,0.0,0.0,0.0,0.0,0.0,0.0,0.0,0.0,0.0,0.0,0.0,0.0,0.0,0.0,0.0,0.0,0.0,0.0,0.0,0.0,0.0,0.0,0.0,0.0,0.0,0.0,0.0,0.0,0.0,0.0,0.0,0.0,0.0,0.0,0.0,0.0,0.0,0.0,0.0,0.0,0.0,0.0,0.0,0.0,0.0,0.0,0.0,0.0,0.0,0.0,0.0,0.0,0.0,0.0,0.0,0.0,0.0,0.0,0.0,0.0,0.0,0.0,0.0,0.0,0.0,0.0,0.0,0.0,0.0,0.0,0.0,0.0,0.0,0.0,0.0,0.0,0.0,0.0,0.0,0.0,0.0,0.0,0.0,0.0,0.0,0.0,0.0,0.0,0.0,0.0,0.0,0.0,0.0,0.0,0.0,0.0,0.0,0.0,0.0,0.0,0.0,0.0,0.0,0.0,0.0,0.0,0.0,0.0,0.0,0.0,0.0,0.0,0.0,0.0,0.0,0.0,0.0,0.0,0.0,0.0,0.0,0.0,0.0,0.0,0.0,0.0,0.0,0.0,0.0,0.0,0.0,0.0,0.0,0.0,0.0,0.0,0.0,0.0,0.0,0.0,0.0,0.0,0.0,0.0,0.0,0.0,0.0,0.0,0.0,0.0,0.0,0.0,0.0,0.0,0.0,0.0,0.0,0.0,0.0,0.0,0.0,0.0,0.0,0.0,0.0,0.0,0.0,0.0,0.0,0.0,0.0,0.0,0.0,0.0,0.0,0.0,0.0,0.0,0.0,0.0,0.0,0.0,0.0,0.0,0.0,0.0,0.0,0.0,0.0,0.0,0.0,0.0,0.0,0.0,0.0,0.0,0.0,0.0,0.0,0.0,0.0,0.0,0.0,0.0,0.0,0.0,0.0,0.0,0.0,0.0,0.0,0.0,0.0,0.0,0.0,0.0,0.0,0.0,0.0,0.0,0.0,0.0,0.0,0.0,0.0,0.0,0.0,0.0,0.0,0.0,0.0,0.0,0.0,0.0,0.0,0.0,0.0,0.0,0.0,0.0,0.0,0.0,0.0,0.0,0.0,0.0,0.0,0.0,0.0,0.0,0.0,0.0,0.0,0.0,0.0,0.0,0.0,0.0,0.0,0.0,0.0,0.0,0.0,0.0,0.0,0.0,0.0,0.0,0.0,0.0,0.0,0.0,0.0,0.0,0.0,0.0,0.0,0.0,0.0,0.0,0.0,0.0,0.0,0.0,0.0,0.0,0.0,0.0,0.0,0.0,0.0,0.0,0.0,0.0,0.0,0.0,0.0,0.0,0.0,0.0,0.0,0.0,0.0,0.0,0.0,0.0,0.0,0.0,0.0,0.0,0.0,0.0,0.0,0.0,0.0,0.0,0.0,0.0,0.0,0.0,0.0,0.0,0.0,0.0,0.0,0.0,0.0,0.0,0.0,0.0,0.0,0.0,0.0,0.0,0.0,0.0,0.0,0.0,0.0,0.0,0.0,0.0,0.0,0.0,0.0,0.0,0.0,0.0,0.0,0.0,0.0,0.0,0.0,0.0,0.0,0.0,0.0,0.0,0.0,0.0,0.0,0.0,0.0,0.0,0.0,0.0,0.0,0.0,0.0,0.0,0.0,0.0,0.0,0.0,0.0,0.0,0.0,0.0,0.0,0.0,0.0,0.0,0.0,0.0,0.0,0.0,0.0,0.0,0.0,0.0,0.0,0.0,0.0,0.0,0.0,0.0,0.0,0.0,0.0,0.0,0.0,0.0,0.0,0.0,0.0,0.0,0.0,0.0,0.0,0.0,0.0,0.0,0.0,0.0,0.0,0.0,0.0,0.0,0.0,0.0,0.0,0.0,0.0,0.0,0.0,0.0,0.0,0.0,0.0,0.0,0.0,0.0,0.0,0.0,0.0,0.0,0.0,0.0,0.0,0.0,0.0,0.0,0.0,0.0,0.0,0.0,0.0,0.0,0.0,0.0,0.0,0.0,0.0,0.0,0.0,0.0,0.0,0.0,0.0,0.0,0.0,0.0,0.0,0.0,0.0,0.0,0.0,0.0,0.0,0.0,0.0,0.0,0.0,0.0,0.0,0.0,0.0,0.0,0.0,0.0,0.0,0.0,0.0,0.0,0.0,0.0,0.0,0.0,0.0,0.0,0.0,0.0,0.0,0.0,0.0,0.0,0.0,0.0,0.0,0.0,0.0,0.0,0.0,0.0,0.0,0.0,0.0,0.0,0.0,0.0,0.0,0.0,0.0,0.0,0.0,0.0,0.0,0.0,0.0,0.0,0.0,0.0,0.0,0.0,0.0,0.0,0.0,0.0,0.0,0.0,0.0,0.0,0.0,0.0,0.0,0.0,0.0,0.0,0.0,0.0,0.0,0.0,0.0,0.0,0.0,0.0,0.0,0.0,0.0,0.0,0.0,0.0,0.0,0.0,0.0,0.0,0.0,0.0,0.0,0.0,0.0,0.0,0.0,0.0,0.0,0.0,0.0,0.0,0.0,0.0,0.0,0.0,0.0,0.0,0.0,0.0,0.0,0.0,0.0,0.0,0.0,0.0,0.0,0.0,0.0,0.0,0.0,0.0,0.0,0.0,0.0,0.0,0.0,0.0,0.0,0.0,0.0,0.0,0.0,0.0,0.0,0.0,0.0,0.0,0.0,0.0,0.0,0.0,0.0,0.0,0.0,0.0,0.0,0.0,0.0,0.0,0.0,0.0,0.0,0.0,0.0,0.0,0.0,0.0,0.0,0.0,0.0,0.0,0.0,0.0,0.0,0.0,0.0,0.0,0.0,0.0,0.0,0.0,0.0,0.0,0.0,0.0,0.0,0.0,0.0,0.0,0.0,0.0,0.0,0.0,0.0,0.0,0.0,0.0,0.0,0.0,0.0,0.0,0.0,0.0,0.0,0.0,0.0,0.0,0.0,0.0,0.0,0.0,0.0,0.0,0.0,0.0,0.0,0.0,0.0,0.0,0.0,0.0,0.0,0.0,0.0,0.0,0.0,0.0,0.0,0.0,0.0,0.0,0.0,0.0,0.0,0.0,0.0,0.0,0.0,0.0,0.0,0.0,0.0,0.0,0.0,0.0,0.0,0.0,0.0,0.0,0.0,0.0,0.0,0.0,0.0,0.0,0.0,0.0,0.0,0.0,0.0,0.0,0.0,0.0,0.0,0.0,0.0,0.0,0.0,0.0,0.0,0.0,0.0,0.0,0.0,0.0,0.0,0.0,0.0,0.0,0.0,0.0,0.0,0.0,0.0,0.0,0.0,0.0,0.0,0.0,0.0,0.0,0.0,0.0,0.0,0.0,0.0,0.0,0.0,0.0,0.0,0.0,0.0,0.0,0.0,0.0,0.0,0.0,0.0,0.0,0.0,0.0,0.0,0.0,0.0,0.0,0.0,0.0,0.0,0.0,0.0,0.0,0.0,0.0,0.0,0.0,0.0,0.0,0.0,0.0,0.0,0.0,0.0,0.0,0.0,0.0,0.0,0.0,0.0,0.0,0.0,0.0,0.0,0.0,0.0,0.0,0.0,0.0,0.0,0.0,0.0,0.0,0.0,0.0,0.0,0.0,0.0,0.0,0.0,0.0,0.0,0.0,0.0,0.0,0.0,0.0,0.0,0.0,0.0,0.0,0.0,0.0,0.0,0.0,0.0,0.0,0.0,0.0,0.0,0.0,0.0,0.0,0.0,0.0,0.0,0.0,0.0,0.0,0.0,0.0,0.0,0.0,0.0,0.0,0.0,0.0,0.0,0.0,0.0,0.0,0.0,0.0,0.0,0.0,0.0,0.0,0.0,0.0,0.0,0.0,0.0,0.0,0.0,0.0,0.0,0.0,0.0,0.0,0.0,0.0,0.0,0.0,0.0,0.0,0.0,0.0,0.0,0.0,0.0,0.0,0.0,0.0,0.0,0.0,0.0,0.0,0.0,0.0,0.0,0.0,0.0,0.0,0.0,0.0,0.0,0.0,0.0,0.0,0.0,0.0,0.0,0.0,0.0,0.0,0.0,0.0,0.0,0.0,0.0,0.0,0.0,0.0,0.0,0.0,0.0,0.0,0.0,0.0,0.0,0.0,0.0,0.0,0.0,0.0,0.0,0.0,0.0,0.0,0.0,0.0,0.0,0.0,0.0,0.0]}]]]